[[{"header":{"parameterUnit":"m.s-1","parameterCategory":1,"la1":31.0,"la2":29.5877,"lo1":-88.7671,"lo2":-86.6584,"dx":0.0162,"dy":0.0185,"nx":115,"ny":88,"refTime":"2022-11-24T06:00:00:Z","depth":0,"parameterNumber":2,"parameterNumberName":"U-component_of_WINDS"},"data":[0.0,0.0,0.0,0.0,0.0,0.0,0.0,0.0,0.0,0.0,0.0,0.0,0.0,0.0,0.0,0.0,0.0,0.0,0.0,0.0,0.0,0.0,0.0,0.0,0.0,0.0,0.0,0.0,0.0,0.0,0.0,0.0,0.0,0.0,0.0,0.0,0.0,0.0,0.0,0.0,0.0,0.0,0.0,0.0,0.0,0.0,0.0,0.0,0.0,0.0,0.0,0.0,0.0,0.0,0.0,0.0,0.0,0.0,0.0,0.0,0.0,0.0,0.0,0.0,0.0,0.0,0.0,0.0,0.0,0.0,0.0,0.0,0.0,0.0,0.0,0.0,0.0,0.0,0.0,0.0,0.0,0.0,0.0,0.0,0.0,0.0,0.0,0.0,0.0,0.0,0.0,0.0,0.0,0.0,0.0,0.0,0.0,0.0,0.0,0.0,0.0,0.0,0.0,0.0,0.0,0.0,0.0,0.0,0.0,0.0,0.0,0.0,0.0,0.0,0.0,0.0,0.0,0.0,0.0,0.0,0.0,0.0,0.0,0.0,0.0,0.0,0.0,0.0,0.0,0.0,0.0,0.0,0.0,0.0,0.0,0.0,0.0,0.0,0.0,0.0,0.0,0.0,0.0,0.0,0.0,0.0,0.0,0.0,0.0,0.0,0.0,0.0,0.0,0.0,0.0,0.0,0.0,0.0,0.0,0.0,0.0,0.0,0.0,0.0,0.0,0.0,0.0,0.0,0.0,0.0,0.0,0.0,0.0,0.0,0.0,0.0,0.0,0.0,0.0,0.0,0.0,0.0,0.0,0.0,0.0,0.0,0.0,0.0,0.0,0.0,0.0,0.0,0.0,0.0,0.0,0.0,0.0,0.0,0.0,0.0,0.0,0.0,0.0,0.0,0.0,0.0,0.0,0.0,0.0,0.0,0.0,0.0,0.0,0.0,0.0,0.0,0.0,0.0,0.0,0.0,0.0,0.0,0.0,0.0,0.0,0.0,0.0,0.0,0.0,0.0,0.0,0.0,0.0,0.0,0.0,0.0,0.0,0.0,0.0,0.0,0.0,0.0,0.0,0.0,0.0,0.0,0.0,0.0,0.0,0.0,0.0,0.0,0.0,0.0,0.0,0.0,0.0,0.0,0.0,0.0,0.0,0.0,0.0,0.0,0.0,0.0,0.0,0.0,0.0,0.0,0.0,0.0,0.0,0.0,0.0,0.0,0.0,0.0,0.0,0.0,0.0,0.0,0.0,0.0,0.0,0.0,0.0,0.0,0.0,0.0,0.0,0.0,0.0,0.0,0.0,0.0,0.0,0.0,0.0,0.0,0.0,0.0,0.0,0.0,0.0,0.0,0.0,0.0,0.0,0.0,0.0,0.0,0.0,0.0,0.0,0.0,0.0,0.0,0.0,0.0,0.0,0.0,0.0,0.0,0.0,0.0,0.0,0.0,0.0,0.0,0.0,0.0,0.0,0.0,0.0,0.0,0.0,0.0,0.0,0.0,0.0,0.0,0.0,0.0,0.0,0.0,0.0,0.0,0.0,0.0,0.0,0.0,0.0,0.0,0.0,0.0,0.0,0.0,0.0,0.0,0.0,0.0,0.0,0.0,0.0,0.0,0.0,0.0,0.0,0.0,0.0,0.0,0.0,0.0,0.0,0.0,0.0,0.0,0.0,0.0,0.0,0.0,0.0,0.0,0.0,0.0,0.0,0.0,0.0,0.0,0.0,0.0,0.0,0.0,0.0,0.0,0.0,0.0,0.0,0.0,0.0,0.0,0.0,0.0,0.0,0.0,0.0,0.0,0.0,0.0,0.0,0.0,0.0,0.0,0.0,0.0,0.0,0.0,0.0,0.0,0.0,0.0,0.0,0.0,0.0,0.0,0.0,0.0,0.0,0.0,0.0,0.0,0.0,0.0,0.0,0.0,0.0,0.0,0.0,0.0,0.0,0.0,0.0,0.0,0.0,0.0,0.0,0.0,0.0,0.0,0.0,0.0,0.0,0.0,0.0,0.0,0.0,0.0,0.0,0.0,0.0,0.0,0.0,0.0,0.0,0.0,0.0,0.0,0.0,0.0,0.0,0.0,0.0,0.0,0.0,0.0,0.0,0.0,0.0,0.0,0.0,0.0,0.0,0.0,0.0,0.0,0.0,0.0,0.0,0.0,0.0,0.0,0.0,0.0,0.0,0.0,0.0,0.0,0.0,0.0,0.0,0.0,0.0,0.0,0.0,0.0,0.0,0.0,0.0,0.0,0.0,0.0,0.0,0.0,0.0,0.0,0.0,0.0,0.0,0.0,0.0,0.0,0.0,0.0,0.0,0.0,0.0,0.0,0.0,0.0,0.0,0.0,0.0,0.0,0.0,0.0,0.0,0.0,0.0,0.0,0.0,0.0,0.0,0.0,0.0,0.0,0.0,0.0,0.0,0.0,0.0,0.0,0.0,0.0,0.0,0.0,0.0,0.0,0.0,0.0,0.0,0.0,0.0,0.0,0.0,0.0,0.0,0.0,0.0,0.0,0.0,0.0,0.0,0.0,0.0,0.0,0.0,0.0,0.0,0.0,0.0,0.0,0.0,0.0,0.0,0.0,0.0,0.0,0.0,0.0,0.0,0.0,0.0,0.0,0.0,0.0,0.0,0.0,0.0,0.0,0.0,0.0,0.0,0.0,0.0,0.0,0.0,0.0,0.0,0.0,0.0,0.0,0.0,0.0,0.0,0.0,0.0,0.0,0.0,0.0,0.0,0.0,0.0,0.0,0.0,0.0,0.0,0.0,0.0,0.0,0.0,0.0,0.0,0.0,0.0,0.0,0.0,0.0,0.0,0.0,0.0,0.0,0.0,0.0,0.0,0.0,0.0,0.0,0.0,0.0,0.0,0.0,0.0,0.0,0.0,0.0,0.0,0.0,0.0,0.0,0.0,0.0,0.0,0.0,0.0,0.0,0.0,0.0,0.0,0.0,0.0,0.0,0.0,0.0,0.0,0.0,0.0,0.0,0.0,0.0,0.0,0.0,0.0,0.0,0.0,0.0,0.0,0.0,0.0,0.0,0.0,0.0,0.0,0.0,0.0,0.0,0.0,0.0,0.0,0.0,0.0,0.0,0.0,0.0,0.0,0.0,0.0,0.0,0.0,0.0,0.0,0.0,0.0,0.0,0.0,0.0,0.0,0.0,0.0,0.0,0.0,0.0,0.0,0.0,0.0,0.0,0.0,0.0,0.0,0.0,0.0,0.0,0.0,0.0,0.0,0.0,0.0,0.0,0.0,0.0,0.0,0.0,0.0,0.0,0.0,0.0,0.0,0.0,0.0,0.0,0.0,0.0,0.0,0.0,0.0,0.0,0.0,0.0,0.0,0.0,0.0,0.0,0.0,0.0,0.0,0.0,0.0,0.0,0.0,0.0,0.0,0.0,0.0,0.0,0.0,0.0,0.0,0.0,0.0,0.0,0.0,0.0,0.0,0.0,0.0,0.0,0.0,0.0,0.0,0.0,0.0,0.0,0.0,0.0,0.0,0.0,0.0,0.0,0.0,0.0,0.0,0.0,0.0,0.0,0.0,0.0,0.0,0.0,0.0,0.0,0.0,0.0,0.0,0.0,0.0,0.0,0.0,0.0,0.0,0.0,0.0,0.0,0.0,0.0,0.0,0.0,0.0,0.0,0.0,0.0,0.0,0.0,0.0,0.0,0.0,0.0,0.0,0.0,0.0,0.0,0.0,0.0,0.0,0.0,0.0,0.0,0.0,0.0,0.0,0.0,0.0,0.0,0.0,0.0,0.0,0.0,0.0,0.0,0.0,0.0,0.0,0.0,0.0,0.0,0.0,0.0,0.0,0.0,0.0,0.0,0.0,0.0,0.0,0.0,0.0,0.0,0.0,0.0,0.0,0.0,0.0,0.0,0.0,0.0,0.0,0.0,0.0,0.0,0.0,0.0,0.0,0.0,0.0,0.0,0.0,0.0,0.0,0.0,0.0,0.0,0.0,0.0,0.0,0.0,0.0,0.0,0.0,0.0,0.0,0.0,0.0,0.0,0.0,0.0,0.0,0.0,0.0,0.0,0.0,0.0,0.0,0.0,0.0,0.0,0.0,0.0,0.0,0.0,0.0,0.0,0.0,0.0,0.0,0.0,0.0,0.0,0.0,0.0,0.0,0.0,0.0,0.0,0.0,0.0,0.0,0.0,0.0,0.0,0.0,0.0,0.0,0.0,0.0,0.0,0.0,0.0,0.0,0.0,0.0,0.0,0.0,0.0,0.8961,0.0,0.0,0.0,0.8591,0.0,0.0,0.0,0.0,0.0,0.0,0.0,0.0,0.0,0.0,0.0,0.0,0.0,0.0,0.0,0.0,0.0,0.0,0.0,0.0,0.0,0.0,0.0,0.0,0.0,0.0,0.0,0.0,0.0,0.0,0.0,0.0,0.0,0.0,0.0,0.0,0.0,0.0,0.0,0.0,0.0,0.0,0.0,0.0,0.0,0.0,0.0,0.0,0.0,0.0,0.0,0.0,0.0,0.0,0.0,0.0,0.0,0.0,0.0,0.0,0.0,0.0,0.0,0.0,0.0,0.0,0.0,0.0,0.0,0.0,0.0,0.0,0.0,0.0,0.0,0.0,0.0,0.0,0.0,0.0,0.0,0.0,0.0,0.0,0.0,0.0,0.0,0.0,0.0,0.0,0.0,0.0,0.0,0.0,0.0,0.0,0.0,0.0,0.0,0.0,0.0,0.0,0.0,0.0,0.0,0.0,0.0,0.0,0.0,0.0,0.9069,0.9168,0.9079,0.9103,0.9236,0.0,0.0,0.0,0.0,0.0,0.0,0.0,0.0,0.0,0.0,0.0,0.0,0.0,0.0,0.0,0.0,0.0,0.0,0.0,0.0,0.0,0.0,0.0,0.0,0.0,0.0,0.0,0.0,0.0,0.0,0.0,0.0,0.0,0.0,0.0,0.0,0.0,0.0,0.0,0.0,0.0,0.0,0.0,0.0,0.0,0.0,0.0,0.0,0.0,0.0,0.0,0.0,0.0,0.0,0.0,0.0,0.0,0.0,0.0,0.0,0.0,0.0,0.0,0.0,0.0,0.0,0.0,0.0,0.0,0.0,0.0,0.0,0.0,0.0,0.0,0.0,0.0,0.0,0.0,0.0,0.0,0.0,0.0,0.0,0.0,0.0,0.0,0.0,0.0,0.0,0.0,0.0,0.0,0.0,0.0,0.0,0.0,0.0,0.0,0.0,0.0,0.0,0.0,0.0,0.0,0.0,0.0,0.0,0.0,0.0,0.0,0.0,0.9469,0.9573,0.9755,0.0,0.0,0.0,0.0,0.0,0.0,0.0,0.0,0.0,0.0,0.0,0.0,0.0,0.0,0.0,0.0,0.0,0.0,0.0,0.0,0.0,0.0,0.0,0.0,0.0,0.0,0.0,0.0,0.0,0.0,0.0,0.0,0.0,0.0,0.0,0.0,0.0,0.0,0.0,0.0,0.0,0.0,0.0,0.0,0.0,0.0,0.0,0.0,0.0,0.0,0.0,0.0,0.0,0.0,0.0,0.0,0.0,0.0,0.0,0.0,0.0,0.0,0.0,0.0,0.0,0.0,0.0,0.0,0.0,0.0,0.0,0.0,0.0,0.0,0.0,0.0,0.0,0.0,0.0,0.0,0.0,0.0,0.0,0.0,0.0,0.0,0.0,0.0,0.0,0.0,0.0,0.0,0.0,0.0,0.0,0.0,0.0,0.0,0.0,0.0,0.0,0.0,0.0,0.0,0.0,0.0,0.0,0.0,0.0,0.0,0.9158,0.9493,0.9791,0.0,0.9732,0.0,0.0,0.0,0.0,0.0,0.0,0.0,0.0,0.0,0.0,0.0,0.0,0.0,0.0,0.0,0.0,0.0,0.0,0.0,0.0,0.0,0.0,0.0,0.0,0.0,0.0,0.0,0.0,0.0,0.0,0.0,0.0,0.0,0.0,0.0,0.0,0.0,0.0,0.0,0.0,0.0,0.0,0.0,0.0,0.0,0.0,0.0,0.0,0.0,0.0,0.0,0.0,0.0,0.0,0.0,0.0,0.0,0.0,0.0,0.0,0.0,0.0,0.0,0.0,0.0,0.0,0.0,0.0,0.0,0.0,0.0,0.0,0.0,0.0,0.0,0.0,0.0,0.0,0.0,0.0,0.0,0.0,0.0,0.0,0.0,0.0,0.0,0.0,0.0,0.0,0.0,0.0,0.0,0.0,0.0,0.0,0.0,0.0,0.0,0.0,0.0,0.0,0.0,0.0,0.0,0.0,0.0,0.0,0.0,0.0,0.9309,0.9953,0.9992,0.9892,0.0,0.0,0.0,0.0,0.0,0.0,0.0,0.0,0.0,0.0,0.0,0.0,0.0,0.0,0.0,0.0,0.0,0.0,0.0,0.0,0.0,0.0,0.0,0.0,0.0,0.0,0.0,0.0,0.0,0.0,0.0,0.0,0.0,0.0,0.0,0.0,0.0,0.0,0.0,0.0,0.0,0.0,0.0,0.0,0.0,0.0,0.0,0.0,0.0,0.0,0.0,0.0,0.0,0.0,0.0,0.0,0.0,0.0,0.0,0.0,0.0,0.0,0.0,0.0,0.0,0.0,0.0,0.0,0.0,0.0,0.0,0.0,0.0,0.0,0.0,0.0,0.0,0.0,0.0,0.0,0.0,0.0,0.0,0.0,0.0,0.0,0.0,0.0,0.0,0.0,0.0,0.0,0.0,0.0,0.0,0.0,0.0,0.0,0.0,0.0,0.0,0.0,0.0,0.0,0.0,0.0,0.0,0.0,0.0,0.0,0.9112,0.9513,1.0147,1.0078,0.992,0.9713,0.0,0.0,0.0,0.0,0.0,0.0,0.0,0.0,0.0,0.0,0.0,0.0,0.0,0.0,0.0,0.0,0.0,0.0,0.0,0.0,0.0,0.0,0.0,0.0,0.0,0.0,0.0,0.0,0.0,0.0,0.0,0.0,0.0,0.0,0.0,0.0,0.0,0.0,0.0,0.0,0.0,0.0,0.0,0.0,0.0,0.0,0.0,0.0,0.0,0.0,0.0,0.0,0.0,0.0,0.0,0.0,0.0,0.0,0.0,0.0,0.0,0.0,0.0,0.0,0.0,0.0,0.0,0.0,0.0,0.0,0.0,0.0,0.0,0.0,0.0,0.0,0.0,0.0,0.0,0.0,0.0,0.0,0.0,0.0,0.0,0.0,0.0,0.0,0.0,0.0,0.0,0.0,0.0,0.0,0.0,0.0,0.0,0.0,0.0,0.0,0.0,0.0,0.0,0.0,0.0,0.0,0.0,0.0,0.8976,0.9368,0.9713,1.0,1.0,0.9902,0.0,0.0,0.0,0.0,0.0,0.0,0.0,0.0,0.0,0.0,0.0,0.0,0.0,0.0,0.0,0.0,0.0,0.0,0.0,0.0,0.0,0.0,0.0,0.0,0.0,0.0,0.0,0.0,0.0,0.0,0.0,0.0,0.0,0.0,0.0,0.0,0.0,0.0,0.0,0.0,0.0,0.0,0.0,0.0,0.0,0.0,0.0,0.0,0.0,0.0,0.0,0.0,0.0,0.0,0.0,0.0,0.0,0.0,0.0,0.0,0.0,0.0,0.0,0.0,0.0,0.0,0.0,0.0,0.0,0.0,0.0,0.0,0.0,0.0,0.0,0.0,0.0,0.0,0.0,0.0,0.0,0.0,0.0,0.0,0.0,0.0,0.0,0.0,0.0,0.0,0.0,0.0,0.0,0.0,0.0,0.0,0.0,0.0,0.0,0.0,0.0,0.0,0.0,0.0,0.0,0.0,0.0,0.0,0.0,0.8938,0.9669,1.0031,1.001,1.0,0.9902,0.0,0.0,0.0,0.0,0.0,0.0,0.0,0.0,0.0,0.0,0.0,0.0,0.0,0.0,0.0,0.0,0.0,0.0,0.0,0.0,0.0,0.0,0.0,0.0,0.0,0.0,0.0,0.0,0.0,0.0,0.0,0.0,0.0,0.0,0.0,0.0,0.0,0.0,0.0,0.0,0.0,0.0,0.0,0.0,0.0,0.0,0.0,0.0,0.0,0.0,0.0,0.0,0.0,0.0,0.0,0.0,0.0,0.0,0.0,0.0,0.0,0.0,0.0,0.0,0.0,0.0,0.0,0.0,0.0,0.0,0.0,0.0,0.0,0.0,0.0,0.0,0.0,0.0,0.0,0.0,0.0,0.0,0.0,0.0,0.0,0.0,0.0,0.0,0.0,0.0,0.0,0.0,0.0,0.0,0.0,0.0,0.0,0.0,0.0,0.0,0.0,0.0,0.0,0.0,0.0,0.0,0.0,0.0,0.0,0.9518,1.0322,1.0642,1.046,1.0286,1.0118,0.0,0.0,0.0,0.0,0.0,0.0,0.0,0.0,0.0,0.0,0.0,0.0,0.0,0.0,0.0,0.0,0.0,0.0,0.0,0.0,0.0,0.0,0.0,0.0,0.0,0.0,0.0,0.0,0.0,0.0,0.0,0.0,0.0,0.0,0.0,0.0,0.0,0.0,0.0,0.0,0.0,0.0,0.0,0.0,0.0,0.0,0.0,0.0,0.0,0.0,0.0,0.0,0.0,0.0,0.0,0.0,0.0,0.0,0.0,0.0,0.0,0.0,0.0,0.0,0.0,0.0,0.0,0.0,0.0,0.0,0.0,0.0,0.0,0.0,0.0,0.0,0.0,0.0,0.0,0.0,0.0,0.0,0.0,0.0,0.0,0.0,0.0,0.0,0.0,0.0,0.0,0.0,0.0,0.0,0.0,0.0,0.0,0.0,0.0,0.0,0.0,0.0,0.0,0.0,0.0,0.0,0.0,0.0,0.9502,1.084,1.133,1.1482,1.1401,1.0858,1.0555,0.0,0.0,0.0,0.0,0.0,0.0,0.0,0.0,0.0,0.0,0.0,0.0,0.0,0.0,0.0,0.0,0.0,0.0,0.0,0.0,0.0,0.0,0.0,0.0,0.0,0.0,0.0,0.0,0.0,0.0,0.0,0.0,0.0,0.0,0.0,0.0,0.0,0.0,0.0,0.0,0.0,0.0,0.0,0.0,0.0,0.0,0.0,0.0,0.0,0.0,0.0,0.0,0.0,0.0,0.0,0.0,0.0,0.0,0.0,0.0,0.0,0.0,0.0,0.0,0.0,0.0,0.0,0.0,0.0,0.0,0.0,0.0,0.0,0.0,0.0,0.0,0.0,0.0,0.0,0.0,0.0,0.0,0.0,0.0,0.0,0.0,0.0,0.0,0.0,0.0,0.0,0.0,0.0,0.0,0.0,0.0,0.0,0.0,0.0,0.0,0.0,0.0,0.0,0.0,0.0,0.0,0.0,0.0,0.0,1.1369,1.1517,1.1541,1.139,1.1155,1.0857,0.0,0.0,0.0,0.0,0.0,0.0,0.0,0.0,0.0,0.0,0.0,0.0,0.0,0.0,0.0,0.0,0.0,0.0,0.0,0.0,0.0,0.0,0.0,0.0,0.0,0.0,0.0,0.0,0.0,0.0,0.0,0.0,0.0,0.0,0.0,0.0,0.0,0.0,0.0,0.0,0.0,0.0,0.0,0.0,0.0,0.0,0.0,0.0,0.0,0.0,0.0,0.0,0.0,0.0,0.0,0.0,0.0,0.0,0.0,0.0,0.0,0.0,0.0,0.0,0.0,0.0,0.0,0.0,0.0,0.0,0.0,0.0,0.0,0.0,0.0,0.0,0.0,0.0,0.0,0.0,0.0,0.0,0.0,0.0,0.0,0.0,0.0,0.0,0.0,0.0,0.0,0.0,0.0,0.0,0.0,0.0,0.0,0.0,0.0,0.0,0.0,0.0,0.0,0.0,0.0,0.0,0.0,0.0,0.0,1.2874,1.2736,1.261,1.2515,1.2092,1.1567,1.1027,0.0,0.0,0.0,0.0,0.0,0.0,0.0,0.0,0.0,0.0,0.0,0.0,0.0,0.0,0.0,0.0,0.0,0.0,0.0,0.0,0.0,0.0,0.0,0.0,0.0,0.0,0.0,0.0,0.0,0.0,0.0,0.0,0.0,0.0,0.0,0.0,0.0,0.0,0.0,0.0,0.0,0.0,0.0,0.0,0.0,0.0,0.0,0.0,0.0,0.0,0.0,0.0,0.0,0.0,0.0,0.0,0.0,0.0,0.0,0.0,0.0,0.0,0.0,0.0,0.0,0.0,0.0,0.0,0.0,0.0,0.0,0.0,0.0,0.0,0.0,0.0,0.0,0.0,0.0,0.0,0.0,0.0,0.0,0.0,0.0,0.0,0.0,0.0,0.0,0.0,0.0,0.0,0.0,0.0,0.0,0.0,0.0,0.0,0.0,0.0,0.0,0.0,0.0,0.0,0.0,0.0,0.0,0.0,1.5117,1.4765,1.4526,1.4414,1.3505,1.2686,0.0,0.0,0.0,0.0,0.0,0.0,0.0,0.0,0.0,0.0,0.0,0.0,0.0,0.0,0.0,0.0,0.0,0.0,0.0,0.0,0.0,0.0,0.0,0.0,0.0,0.0,0.0,0.0,0.0,0.0,0.0,0.0,0.0,0.0,0.0,0.0,0.0,0.0,0.0,0.0,0.0,0.0,0.0,0.0,0.0,0.0,0.0,0.0,0.0,0.0,0.0,0.0,0.0,0.0,0.0,0.0,0.0,0.0,0.0,0.0,0.0,0.0,0.0,0.0,0.0,0.0,0.0,0.0,0.0,0.0,0.0,0.0,0.0,0.0,0.0,0.0,0.0,0.0,0.0,0.0,0.0,0.0,0.0,0.0,0.0,0.0,0.0,0.0,0.0,0.0,0.0,0.0,0.0,0.0,0.0,0.0,0.0,0.0,0.0,0.0,0.0,0.0,0.0,0.0,0.0,0.0,0.0,0.0,0.0,1.563,1.6324,1.6191,1.5109,1.4631,1.3802,0.0,0.0,0.0,0.0,0.0,0.0,0.0,0.0,0.0,0.0,0.0,0.0,0.0,0.0,0.0,0.0,0.0,0.0,0.0,0.0,0.0,0.0,0.0,0.0,0.0,0.0,0.0,0.0,0.0,0.0,0.0,0.0,0.0,0.0,0.0,0.0,0.0,0.0,0.0,0.0,0.0,0.0,0.0,0.0,0.0,0.0,0.0,0.0,0.0,0.0,0.0,0.0,0.0,0.0,0.0,0.0,0.0,0.0,0.0,0.0,0.0,0.0,0.0,0.0,0.0,0.0,0.0,0.0,0.0,0.0,0.0,0.0,0.0,0.0,0.0,0.0,0.0,0.0,0.0,0.0,0.0,0.0,0.0,0.0,0.0,0.0,0.0,0.0,0.0,0.0,0.0,0.0,0.0,0.0,0.0,0.0,0.0,0.0,0.0,0.0,0.0,0.0,0.0,0.0,0.0,0.0,0.0,0.0,1.5798,1.7026,1.7956,1.7986,1.6924,1.5865,1.4709,0.0,0.0,0.0,0.0,0.0,0.0,0.0,0.0,0.0,0.0,0.0,0.0,0.0,0.0,0.0,0.0,0.0,0.0,0.0,0.0,0.0,0.0,0.0,0.0,0.0,0.0,0.0,0.0,0.0,0.0,0.0,0.0,0.0,0.0,0.0,0.0,0.0,0.0,0.0,0.0,0.0,0.0,0.0,0.0,0.0,0.0,0.0,0.0,0.0,0.0,0.0,0.0,0.0,0.0,0.0,0.0,0.0,0.0,0.0,0.0,0.0,0.0,0.0,0.0,0.0,0.0,0.0,0.0,0.0,0.0,0.0,0.0,0.0,0.0,0.0,0.0,0.0,0.0,0.0,0.0,0.0,0.0,0.0,0.0,0.0,0.0,0.0,0.0,0.0,0.0,0.0,0.0,0.0,0.0,0.0,0.0,0.0,0.0,0.0,0.0,0.0,0.0,0.0,0.0,0.0,0.0,0.0,0.0,1.7195,1.8576,1.9425,1.9641,1.9206,1.7195,1.5575,0.0,0.0,0.0,0.0,0.0,0.0,0.0,0.0,0.0,0.0,0.0,0.0,0.0,0.0,0.0,0.0,0.0,0.0,0.0,0.0,0.0,0.0,0.0,0.0,0.0,0.0,0.0,0.0,0.0,0.0,0.0,0.0,0.0,0.0,0.0,0.0,0.0,0.0,0.0,0.0,0.0,0.0,0.0,0.0,0.0,0.0,0.0,0.0,0.0,0.0,0.0,0.0,0.0,0.0,0.0,0.0,0.0,0.0,0.0,0.0,0.0,0.0,0.0,0.0,0.0,0.0,0.0,0.0,0.0,0.0,0.0,0.0,0.0,0.0,0.0,0.0,0.0,0.0,0.0,0.0,0.0,0.0,0.0,0.0,0.0,0.0,0.0,0.0,0.0,0.0,0.0,0.0,0.0,0.0,0.0,0.0,0.0,0.0,0.0,0.0,0.0,0.0,0.0,0.0,0.0,0.0,0.0,0.0,1.7591,1.8576,1.9698,2.0227,2.0103,1.8401,1.6683,0.0,0.0,0.0,0.0,0.0,0.0,0.0,0.0,0.0,0.0,0.0,0.0,0.0,0.0,0.0,0.0,0.0,0.0,0.0,0.0,0.0,0.0,0.0,0.0,0.0,0.0,0.0,0.0,0.0,0.0,0.0,0.0,0.0,0.0,0.0,0.0,0.0,0.0,0.0,0.0,0.0,0.0,0.0,0.0,0.0,0.0,0.0,0.0,1.279,0.0,0.0,0.0,0.0,0.0,0.0,0.0,0.0,0.0,0.0,0.0,0.0,0.0,0.0,0.0,0.0,0.0,0.0,0.0,0.0,0.0,0.0,0.0,0.0,0.0,0.0,0.0,0.0,0.0,0.0,0.0,0.0,0.0,0.0,0.0,0.0,0.0,0.0,0.0,0.0,0.0,0.0,0.0,0.0,0.0,0.0,0.0,0.0,0.0,0.0,0.0,0.0,0.0,0.0,0.0,0.0,0.0,0.0,0.0,1.8536,1.979,2.0642,2.0999,2.0866,1.9402,1.7777,0.0,0.0,0.0,0.0,0.0,0.0,0.0,0.0,0.0,0.0,0.0,0.0,0.0,0.0,0.0,0.0,0.0,0.0,0.0,0.0,0.0,0.0,0.0,0.0,0.0,0.0,0.0,0.0,0.0,0.0,0.0,0.0,0.0,0.0,0.0,0.0,0.0,0.0,0.0,0.0,0.0,0.0,0.0,0.0,0.0,0.0,0.0,0.0,0.0,0.0,0.0,0.0,0.0,0.0,0.0,0.0,0.0,0.0,0.0,0.0,0.0,0.0,0.0,0.0,0.0,0.0,0.0,0.0,0.0,0.0,0.0,0.0,0.0,0.0,0.0,0.0,0.0,0.0,0.0,0.0,0.0,0.0,0.0,0.0,0.0,0.0,0.0,0.0,0.0,0.0,0.0,0.0,0.0,0.0,0.0,0.0,0.0,0.0,0.0,0.0,0.0,0.0,0.0,0.0,0.0,0.0,0.0,1.7747,1.9533,2.1084,2.1654,2.1791,2.1536,2.0167,1.8805,1.7443,0.0,0.0,0.0,0.0,0.0,0.0,0.0,0.0,0.0,0.0,0.0,0.0,0.0,0.0,0.0,0.0,0.0,0.0,0.0,0.0,0.0,0.0,0.0,0.0,0.0,0.0,0.0,0.0,0.0,0.0,0.0,0.0,0.0,0.0,0.0,0.0,0.0,0.0,1.2348,1.3983,0.0,0.0,0.0,0.0,0.0,0.0,0.0,0.0,1.4012,0.0,0.0,0.0,0.0,0.0,0.0,0.0,0.0,0.0,0.0,0.0,0.0,0.0,0.0,0.0,0.0,0.0,0.0,0.0,0.0,0.0,0.0,0.0,0.0,0.0,0.0,0.0,0.0,0.0,0.0,0.0,0.0,0.0,0.0,0.0,0.0,0.0,0.0,0.0,0.0,0.0,0.0,0.0,0.0,0.0,0.0,0.0,0.0,0.0,0.0,0.0,0.0,0.0,0.0,0.0,0.0,1.6192,1.8326,1.9919,2.0934,2.1889,2.2191,2.1748,2.0651,1.9407,1.7961,0.0,0.0,0.0,0.0,0.0,0.0,0.0,0.0,0.0,0.0,0.0,0.0,0.0,0.0,0.0,0.0,0.0,0.0,0.0,0.0,0.0,0.0,0.0,0.0,0.0,0.0,0.0,0.0,0.0,0.0,0.0,0.0,0.0,0.0,0.0,0.0,0.0,0.0,0.0,1.4649,1.5395,0.0,0.0,0.0,0.0,0.0,0.0,0.0,0.0,1.5135,0.0,0.0,0.0,0.0,0.0,0.0,0.0,0.0,0.0,0.0,0.0,0.0,0.0,0.0,0.0,0.0,0.0,0.0,0.0,0.0,0.0,0.0,0.0,0.0,0.0,0.0,0.0,0.0,0.0,0.0,0.0,0.0,0.0,0.0,0.0,0.0,0.0,0.0,0.0,0.0,0.0,0.0,0.0,0.0,0.0,0.0,0.0,0.0,0.0,0.0,0.0,0.0,0.0,0.0,0.0,1.6589,1.8586,2.0241,2.1531,2.219,2.2351,2.1989,2.0759,1.9351,0.0,0.0,0.0,0.0,0.0,0.0,0.0,0.0,0.0,0.0,0.0,0.0,0.0,0.0,0.0,0.0,0.0,0.0,0.0,0.0,0.0,0.0,0.0,0.0,0.0,0.0,0.0,0.0,0.0,0.0,0.0,0.0,0.0,0.0,0.0,0.0,0.0,0.0,0.0,0.0,1.5412,1.6317,1.7064,0.0,0.0,0.0,0.0,0.0,0.0,1.6347,1.6007,0.0,0.0,0.0,0.0,0.0,0.0,0.0,0.0,0.0,0.0,0.0,0.0,0.0,0.0,0.0,0.0,0.0,0.0,0.0,0.0,0.0,0.0,0.0,0.0,0.0,0.0,0.0,0.0,0.0,0.0,0.0,0.0,0.0,0.0,0.0,0.0,0.0,0.0,0.0,0.0,0.0,0.0,0.0,0.0,0.0,0.0,0.0,0.0,0.0,0.0,0.0,0.0,0.0,0.0,0.0,1.6945,1.8812,2.0503,2.2002,2.2384,2.2404,2.2062,2.0742,1.9194,0.0,0.0,0.0,0.0,0.0,0.0,0.0,0.0,0.0,0.0,0.0,0.0,0.0,0.0,0.0,0.0,0.0,0.0,0.0,0.0,0.0,0.0,0.0,0.0,0.0,0.0,0.0,0.0,0.0,0.0,0.0,0.0,0.0,0.0,0.0,0.0,0.0,0.0,0.0,0.0,0.0,1.7315,1.8031,1.8449,0.0,0.0,0.0,0.0,1.7729,1.7366,0.0,0.0,0.0,0.0,0.0,0.0,0.0,0.0,0.0,0.0,0.0,0.0,0.0,0.0,0.0,0.0,0.0,0.0,0.0,0.0,0.0,0.0,0.0,0.0,0.0,0.0,0.0,0.0,0.0,0.0,0.0,0.0,0.0,0.0,0.0,0.0,0.0,0.0,0.0,0.0,0.0,0.0,0.0,0.0,0.0,0.0,0.0,0.0,0.0,0.0,0.0,0.0,0.0,0.0,0.0,0.0,1.7157,1.9181,2.0642,2.1569,2.2341,2.2422,2.1689,2.0539,1.9071,0.0,0.0,0.0,0.0,0.0,0.0,0.0,0.0,0.0,0.0,0.0,0.0,0.0,0.0,0.0,0.0,0.0,0.0,0.0,0.0,0.0,0.0,0.0,0.0,0.0,0.0,0.0,0.0,0.0,0.0,0.0,0.0,0.0,0.0,0.0,0.0,0.0,0.0,0.0,0.0,0.0,1.8112,1.9462,1.9541,1.9632,0.0,0.0,1.9643,1.9228,1.9098,0.0,0.0,0.0,0.0,0.0,0.0,0.0,0.0,0.0,0.0,0.0,0.0,0.0,0.0,0.0,0.0,0.0,0.0,0.0,0.0,0.0,0.0,0.0,0.0,0.0,0.0,0.0,0.0,0.0,0.0,0.0,0.0,0.0,0.0,0.0,0.0,0.0,0.0,0.0,0.0,0.0,0.0,0.0,0.0,0.0,0.0,0.0,0.0,0.0,0.0,0.0,0.0,0.0,0.0,0.0,1.576,1.752,1.9468,2.0976,2.1983,2.2383,2.2402,2.2062,2.0808,1.9313,0.0,0.0,0.0,0.0,0.0,0.0,0.0,0.0,0.0,0.0,0.0,0.0,0.0,0.0,0.0,0.0,0.0,0.0,0.0,0.0,0.0,0.0,0.0,0.0,0.0,0.0,0.0,0.0,0.0,0.0,0.0,0.0,0.0,0.0,0.0,0.0,0.0,0.0,0.0,0.0,0.0,0.0,1.9856,2.0424,0.0,0.0,0.0,2.0832,2.0535,0.0,0.0,0.0,0.0,0.0,0.0,0.0,0.0,0.0,0.0,0.0,0.0,0.0,0.0,0.0,0.0,0.0,0.0,0.0,0.0,0.0,0.0,0.0,0.0,0.0,0.0,0.0,0.0,0.0,0.0,0.0,0.0,0.0,0.0,0.0,0.0,0.0,0.0,0.0,0.0,0.0,0.0,0.0,0.0,0.0,0.0,0.0,0.0,0.0,0.0,0.0,0.0,0.0,0.0,0.0,0.0,0.0,1.771,1.9578,2.1129,2.2274,2.2422,2.2444,2.229,2.1048,0.0,0.0,0.0,0.0,0.0,0.0,0.0,0.0,0.0,0.0,0.0,0.0,0.0,0.0,0.0,0.0,0.0,0.0,0.0,0.0,0.0,0.0,0.0,0.0,0.0,0.0,0.0,0.768,0.0,0.0,0.0,0.0,0.0,0.0,0.0,0.0,0.0,0.0,0.0,0.0,0.0,0.0,1.949,2.0652,2.142,2.1947,0.0,0.0,2.2017,2.1636,2.0973,2.0283,0.0,0.0,0.0,0.0,0.0,0.0,0.0,0.0,0.0,0.0,0.0,0.0,0.0,0.0,0.0,0.0,0.0,0.0,0.0,0.0,0.0,0.0,0.0,0.0,0.0,0.0,0.0,0.0,0.0,0.0,0.0,0.0,0.0,0.0,0.0,0.0,0.0,0.0,0.0,0.0,0.0,0.0,0.0,0.0,0.0,0.0,0.0,0.0,0.0,0.0,0.0,0.0,0.0,0.0,1.5932,1.7531,1.9363,2.0918,2.2091,2.2483,2.2501,2.2109,2.1053,1.9732,0.0,0.0,0.0,0.0,0.0,0.0,0.0,0.0,0.0,0.0,0.0,0.0,0.0,0.0,0.0,0.0,0.0,0.0,0.0,0.0,0.0,0.0,0.0,0.0,0.0,0.0,0.0,0.0,0.0,0.0,0.0,0.0,0.0,0.0,0.0,0.0,0.0,0.0,0.0,0.0,0.0,2.0696,2.2546,2.2703,2.2918,0.0,2.3775,2.3337,2.2445,2.2272,2.1524,1.9473,0.0,0.0,0.0,0.0,0.0,0.0,0.0,0.0,0.0,0.0,0.0,0.0,0.0,0.0,0.0,0.0,0.0,0.0,0.0,0.0,0.0,0.0,0.0,0.0,0.0,0.0,0.0,0.0,0.0,0.0,0.0,0.0,0.0,0.0,0.0,0.0,0.0,0.0,0.0,0.0,0.0,0.0,0.0,0.0,0.0,0.0,0.0,0.0,0.0,0.0,0.0,0.0,0.0,1.6616,1.8229,1.9924,2.1385,2.252,2.2746,2.2764,2.2617,2.1717,2.0482,0.0,0.0,0.0,0.0,0.0,0.0,0.0,0.0,0.0,0.0,0.0,0.0,0.0,0.0,0.0,0.0,0.0,0.0,0.0,0.0,0.0,0.0,0.0,0.0,0.0,0.0,0.0,0.0,1.0634,1.1261,1.1386,0.0,0.0,0.0,0.0,0.0,0.0,0.0,0.0,0.0,0.0,2.1149,2.2456,2.3067,0.0,0.0,2.3848,2.3581,2.2945,2.2361,2.1663,2.0555,1.9324,0.0,0.0,0.0,0.0,0.0,0.0,0.0,0.0,0.0,0.0,0.0,0.0,0.0,0.0,0.0,0.0,0.0,0.0,0.0,0.0,0.0,0.0,0.0,0.0,0.0,0.0,0.0,0.0,0.0,0.0,0.0,0.0,0.0,0.0,0.0,0.0,0.0,0.0,0.0,0.0,0.0,0.0,0.0,0.0,0.0,0.0,0.0,0.0,0.0,0.0,0.0,0.0,1.7202,1.8705,2.0411,2.1801,2.2895,2.3023,2.3078,2.3036,2.2291,2.1233,0.0,0.0,0.0,0.0,0.0,0.0,0.0,0.0,0.0,0.0,0.0,0.0,0.0,0.0,0.0,0.0,0.0,0.0,0.0,0.0,0.0,0.0,0.0,0.0,0.0,0.0,0.0,0.0,1.1253,1.1788,1.1899,0.0,0.0,0.0,0.0,0.0,0.0,0.0,0.0,0.0,0.0,2.1834,2.2967,2.3648,2.4072,2.4283,2.4242,2.3971,2.3391,2.2777,2.2146,2.1408,0.0,0.0,0.0,0.0,0.0,0.0,0.0,0.0,0.0,0.0,0.0,0.0,0.0,0.0,0.0,0.0,0.0,0.0,0.0,0.0,0.0,0.0,0.0,0.0,0.0,0.0,0.0,1.0846,0.0,0.0,0.9721,0.0,0.0,0.0,0.0,0.0,0.0,0.0,0.0,0.0,0.0,0.0,0.0,0.0,0.0,0.0,0.0,0.0,0.0,0.0,0.0,0.0,0.0,1.7495,1.8724,2.0701,2.2089,2.2913,2.3297,2.3499,2.3462,2.2717,2.1911,2.105,0.0,0.0,0.0,0.0,0.0,0.0,0.0,0.0,0.0,0.0,0.0,0.0,0.0,0.0,0.0,0.0,0.0,0.0,0.0,0.0,0.0,0.0,0.0,0.0,0.0,0.0,1.1579,1.1743,1.1897,0.0,0.0,0.0,0.0,0.0,0.0,0.0,0.0,0.0,0.0,2.1767,2.2965,2.4493,2.4573,2.4711,2.5331,2.5227,2.4786,2.3919,2.3737,2.3252,0.0,0.0,0.0,0.0,0.0,0.0,0.0,0.0,0.0,0.0,0.0,0.0,0.0,0.0,0.0,0.0,0.0,0.0,0.0,0.0,0.0,0.0,0.0,0.0,0.0,0.0,0.0,1.2855,1.2514,0.0,0.0,0.0,0.0,0.0,0.0,0.0,0.0,0.0,0.0,0.0,1.7862,1.7477,0.0,0.0,0.0,0.0,0.0,0.0,0.0,0.0,0.0,0.0,0.0,0.0,1.843,1.9895,2.1361,2.2625,2.373,2.4152,2.4225,2.3975,2.37,2.28,2.1145,0.0,0.0,0.0,0.0,0.0,0.0,0.0,0.0,0.0,0.0,0.0,0.0,0.0,0.0,0.0,0.0,0.0,0.0,0.0,0.0,0.0,0.0,0.0,0.0,0.0,1.2033,0.0,0.0,0.0,0.0,0.0,0.0,0.0,0.0,0.0,0.0,0.0,1.8988,2.0818,2.2123,2.3267,2.4364,2.4747,2.4984,0.0,0.0,0.0,0.0,0.0,0.0,0.0,0.0,0.0,0.0,0.0,0.0,0.0,0.0,1.9043,1.8223,1.8276,1.8536,1.8815,0.0,0.0,0.0,0.0,0.0,0.0,0.0,0.0,0.0,0.0,0.0,0.0,0.0,0.0,1.5145,1.4763,1.4616,0.0,0.0,0.0,0.0,0.0,0.0,0.0,0.0,1.8302,1.9146,2.0097,1.9857,2.006,0.0,1.9749,1.854,0.0,0.0,0.0,0.0,0.0,0.0,0.0,0.0,1.9564,2.0903,2.2282,2.3443,2.436,2.4801,2.4893,2.4599,2.4349,2.3424,2.1782,2.006,1.8705,0.0,0.0,0.0,0.0,0.0,0.0,0.0,0.0,0.0,0.0,0.0,0.0,0.0,0.0,0.0,0.0,0.0,0.0,0.0,0.0,0.0,0.0,0.0,1.3305,0.0,0.0,0.0,0.0,0.0,0.0,0.0,0.0,0.0,1.7279,1.8583,2.0111,2.1609,2.2869,2.3919,2.4726,0.0,0.0,0.0,0.0,0.0,0.0,0.0,2.419,2.3729,2.3118,2.2648,2.258,2.2356,2.2177,2.2191,0.0,0.0,2.0368,2.0372,2.072,2.1095,2.1431,2.177,2.199,2.2647,2.328,0.0,0.0,0.0,0.0,0.0,0.0,0.0,0.0,1.8192,1.7972,0.0,1.7202,0.0,0.0,0.0,0.0,0.0,1.8247,0.0,0.0,2.105,2.1819,2.1888,2.2602,2.2986,2.295,2.2181,2.1778,2.1617,1.865,0.0,0.0,0.0,0.0,0.0,0.0,2.0936,2.1778,2.3345,2.4397,2.4874,2.5223,2.5407,2.5388,2.4617,2.3804,2.2944,2.1738,2.0552,1.9401,1.7807,0.0,0.0,0.0,0.0,0.0,0.0,0.0,0.0,0.0,0.0,0.0,0.0,0.0,0.0,0.0,0.0,0.0,0.0,0.0,0.0,1.4102,0.0,0.0,0.0,0.0,0.0,0.0,0.0,0.0,0.0,0.0,1.886,2.0369,2.1947,2.2989,0.0,0.0,0.0,0.0,2.5895,2.6127,2.6151,2.6,2.561,2.5554,2.5402,2.5,0.0,0.0,2.43,2.4275,2.4367,2.4783,2.4935,2.4467,2.234,2.2149,2.2582,2.3512,2.3935,2.4383,2.4999,2.5445,2.5976,2.2318,0.0,0.0,0.0,0.0,2.0136,2.0246,2.0283,2.0555,2.0445,2.0063,1.9932,0.0,0.0,0.0,0.0,0.0,0.0,2.1548,2.2782,2.3259,2.3938,2.4764,2.4702,2.4812,2.5095,2.4599,2.436,2.4262,2.2837,2.1221,1.9492,0.0,0.0,0.0,0.0,2.1705,2.2702,2.3739,2.4863,2.6059,2.5902,2.5705,2.5484,2.4706,2.4036,2.362,2.2452,2.1377,2.0467,1.9075,0.0,0.0,0.0,0.0,0.0,0.0,0.0,0.0,0.0,0.0,0.0,0.0,0.0,0.0,0.0,0.0,0.0,0.0,0.0,1.5331,1.5918,1.6195,0.0,0.0,0.0,0.0,0.0,0.0,0.0,0.0,0.0,2.1929,2.2318,2.2914,0.0,0.0,2.5544,2.6282,2.6413,2.6589,2.6952,2.7028,0.0,2.6619,2.6574,2.6483,2.6159,2.6053,2.5974,2.5921,2.5921,2.5958,2.6086,2.6352,2.6451,2.6135,2.5439,2.5093,2.5387,2.5685,2.6008,2.6231,2.685,2.7493,2.5003,2.3198,2.2318,2.2061,2.2226,2.2465,2.2667,2.2813,2.2933,2.2802,2.259,2.2286,2.1915,2.1442,2.1419,0.0,0.0,0.0,2.3628,2.4762,2.5096,2.5765,2.6701,2.6682,2.6811,2.7151,2.6784,2.6573,2.6582,2.5642,2.4459,2.2953,0.0,0.0,2.1512,2.2274,2.3029,2.3845,2.4656,2.5586,2.6624,2.6453,2.6216,2.6006,2.5255,2.4738,2.4562,2.3447,2.245,2.1631,2.0402,1.8967,0.0,0.0,0.0,0.0,0.0,0.0,0.0,0.0,0.0,0.0,0.0,1.0385,1.1754,0.0,0.0,0.0,1.5038,1.6101,1.7367,1.7844,0.0,0.0,0.0,0.0,0.0,0.0,0.0,2.1493,2.2751,2.3727,2.4325,2.4678,2.4946,2.5019,2.5773,2.6511,2.6991,0.0,2.7483,2.7753,2.7921,2.7977,2.7836,2.7808,2.7724,2.7601,2.7545,2.7545,2.7545,2.7573,2.7628,2.7793,2.7995,2.8289,2.8663,2.8187,2.7632,2.7471,2.7693,2.7945,2.7945,2.8493,2.9069,2.7076,2.6601,2.5109,2.4659,2.4897,2.497,2.5182,2.5512,2.5232,2.5145,2.502,2.4393,2.4068,2.4024,2.4024,0.0,2.4121,2.4845,2.542,2.5851,2.6569,2.7303,2.7989,2.8367,2.8697,2.8977,2.8641,2.8447,2.8411,2.7358,2.6837,2.6755,2.4571,2.3273,2.2955,2.3946,2.4668,2.5047,2.5816,2.6409,2.6803,2.6827,2.6827,2.6745,2.6028,2.5612,2.5539,2.4509,2.3576,2.2793,2.1655,2.0333,1.8874,0.0,0.0,0.0,0.0,0.0,0.0,0.0,0.0,0.0,0.0,0.0,0.0,0.0,0.0,1.5879,1.7441,0.0,1.9457,1.9895,0.0,0.0,0.0,2.1086,2.1819,2.2002,2.2667,2.422,0.0,0.0,2.6113,2.7206,2.7558,2.6503,2.7164,2.7735,2.7753,2.8175,2.8498,2.8546,2.8858,2.9097,2.9053,2.9042,2.906,2.9085,2.9122,2.9152,2.9188,2.9207,2.9354,2.9629,2.9758,2.9904,3.0277,3.0308,3.0229,2.9728,2.9755,2.9858,2.981,3.0186,3.0554,2.8152,2.7979,2.7303,2.6545,2.5856,2.6453,2.6603,2.6504,2.6978,2.7009,2.6696,2.6551,2.63,2.6017,2.5989,2.6176,2.6487,2.6681,2.7123,2.7794,2.8018,2.8362,2.8826,2.8933,2.8999,2.9043,2.8954,2.8918,2.8901,2.8346,2.7965,2.7732,2.6883,2.5828,2.4672,2.4968,2.5325,2.5608,2.609,2.6485,2.682,2.7093,2.7005,2.6504,2.6071,2.568,2.5434,2.4624,2.4006,2.3523,2.2546,2.1526,2.0544,1.9249,0.0,0.0,0.0,0.0,0.0,0.0,0.0,0.0,0.0,1.4194,1.548,0.0,1.6817,0.0,1.9914,2.1028,2.1544,2.1943,0.0,0.0,2.2923,2.3387,2.3589,2.4415,2.526,2.5958,2.6655,2.7279,2.7775,2.8619,2.9071,2.8803,2.87,2.8781,2.9076,2.92,2.9445,2.9709,2.9874,2.991,2.9947,2.991,3.002,3.0314,3.04,3.0461,3.0786,3.0841,3.0877,3.0987,3.1231,3.1451,3.1543,3.1799,3.196,3.1805,3.117,3.0568,3.0587,3.1122,3.164,2.9291,2.9273,2.9043,2.8491,2.7771,2.7801,2.7855,2.7853,2.8144,2.8123,2.793,2.7761,2.7578,2.7374,2.7374,2.7613,2.7961,2.7961,2.8379,2.911,2.9142,2.9416,2.9927,2.9945,3.0024,3.0154,3.0172,3.0154,3.0136,2.9605,2.9182,2.8832,2.831,2.7574,2.6577,2.6442,2.6459,2.6606,2.7016,2.7297,2.7417,2.7301,2.7082,2.6709,2.6058,2.5625,2.5461,2.4899,2.4378,2.3872,2.3159,2.2325,2.1402,2.0337,1.9372,0.0,0.0,0.0,0.0,0.0,0.0,0.0,0.0,0.0,0.0,0.0,1.9457,2.1031,2.2171,2.3052,2.362,2.4042,2.4347,2.453,2.515,2.5617,2.58,2.6545,2.7298,2.7885,2.8326,2.8748,2.9159,2.9923,3.04,3.0418,3.0497,3.0461,3.0216,3.029,3.0516,3.0937,3.1157,3.1267,3.1267,3.1267,3.1341,3.1543,3.1598,3.1671,3.1905,3.1909,3.1928,3.196,3.2111,3.2258,3.2276,3.2423,3.2588,3.2533,3.2221,3.1836,3.1634,3.1946,3.2276,3.0175,3.0175,3.0175,2.9979,2.9647,2.8916,2.8825,2.9182,2.9,2.8908,2.8876,2.8621,2.8477,2.8477,2.8477,2.8665,2.8991,2.9023,2.9366,2.995,2.9967,3.0306,3.0888,3.0939,3.1058,3.1362,3.1362,3.1362,3.1344,3.0708,3.0244,2.9863,2.9308,2.8819,2.8477,2.8134,2.7878,2.7689,2.7983,2.8123,2.8123,2.7455,2.7099,2.7052,2.6144,2.563,2.5581,2.5235,2.4771,2.4084,2.3667,2.3025,2.2103,2.1188,2.0526,0.0,1.9404,0.0,0.0,0.0,0.0,0.0,0.0,0.0,0.0,2.0998,2.2295,2.3706,2.4342,2.4955,2.5645,2.6131,2.6508,2.6848,2.7279,2.7646,2.7995,2.8407,2.8993,2.9648,2.9794,2.9977,3.0322,3.0993,3.1395,3.1399,3.1804,3.1826,3.123,3.1212,3.1537,3.1939,3.2235,3.2172,3.2241,3.2348,3.2366,3.2506,3.2506,3.2612,3.2735,3.2753,3.2753,3.2753,3.2771,3.2771,3.2753,3.2808,3.2863,3.2918,3.3175,3.323,3.2771,3.279,3.2826,2.9495,2.9495,2.9495,2.9427,2.9376,2.921,2.9378,2.9755,2.9981,3.0068,3.0085,3.0001,2.9967,2.9967,2.9967,3.0002,3.0087,3.0121,3.0156,3.0292,3.0292,3.0395,3.0497,3.0497,3.0531,3.0599,3.0599,3.0599,3.0599,3.0462,3.0343,3.0274,3.0138,3.0053,2.9967,0.0,0.0,0.0,2.7899,2.7807,2.7775,2.736,2.7106,2.7106,2.6658,0.0,2.598,2.5686,2.5266,2.4827,2.4412,0.0,0.0,0.0,0.0,0.0,0.0,0.0,0.0,0.0,0.0,0.0,2.2825,2.2983,2.2756,2.4152,2.5205,2.5517,2.649,2.7169,2.7334,2.8014,2.8472,2.8564,2.8913,2.9188,2.928,2.9874,3.044,3.056,3.0872,3.1085,3.1195,3.1397,3.1501,3.1483,3.1593,3.1735,3.184,3.1843,3.192,3.1977,3.1935,3.1751,3.17,3.1769,3.2029,3.2379,3.2589,3.2852,3.3365,3.3525,3.3578,3.356,3.3578,3.356,3.3578,3.3835,3.4018,3.4055,3.4331,3.4331,3.3324,3.3615,3.4055,2.9301,0.0,2.9301,2.9442,0.0,2.9617,2.9798,3.0118,2.9933,2.9866,2.9866,2.9866,2.9866,2.9849,2.9866,2.9967,3.0153,3.0325,3.0495,3.0717,3.0925,3.0977,3.0994,3.0994,3.0994,3.0994,3.0994,3.0994,3.0994,3.0994,3.0891,3.0686,3.072,3.0617,3.0395,3.0395,2.9866,2.8797,2.8417,2.8171,2.7993,2.7439,2.7148,2.7148,2.668,0.0,0.0,0.0,0.0,0.0,0.0,0.0,0.0,0.0,0.0,2.3745,2.3215,2.3034,2.3374,2.3651,2.4145,2.4852,2.5853,2.6033,2.5182,2.6081,2.6729,2.6927,2.7694,2.8162,2.818,2.8853,2.9352,2.9388,2.9892,3.0234,3.0288,3.0775,3.1142,3.1157,3.1338,3.1452,3.1496,3.1708,3.1797,3.1798,3.1992,3.2135,3.2311,3.22,3.2106,3.2303,3.2202,3.2082,3.2116,3.2082,3.2186,3.2554,3.2659,3.2887,3.3433,3.3573,3.3663,3.3985,3.411,3.4147,3.4385,3.4551,3.468,3.4715,3.4844,3.4844,3.4203,3.4405,3.468,2.901,2.9082,2.901,2.9226,2.9568,2.9568,2.9747,2.9965,0.0,0.0,0.0,2.9481,2.9481,2.9481,2.9481,2.9681,2.9979,3.0295,3.0602,3.0904,3.1241,3.1435,3.1489,3.1489,3.1524,3.1595,3.1595,3.1595,3.1595,3.1595,3.1405,3.1131,3.1114,3.0943,3.0617,3.0532,3.0174,2.9513,2.9094,2.8727,2.8378,2.7735,2.7391,2.7391,2.6872,2.6486,2.6375,2.6359,2.6168,2.5723,2.5691,2.5596,2.5294,2.4918,2.4863,2.5228,2.4865,2.4946,2.5652,2.5749,2.6213,2.7163,2.8171,2.8285,2.7199,2.7488,2.7847,2.8195,2.8654,2.8937,2.8937,2.9574,3.003,3.0016,3.0614,3.1019,3.1037,3.1373,3.1602,3.1536,3.1555,3.159,3.1541,3.1787,3.1998,3.2033,3.221,3.2526,3.2456,3.2226,3.2173,3.235,3.2316,3.2421,3.2474,3.2403,3.2526,3.2508,3.2579,3.2736,3.3069,3.3263,3.353,3.3995,3.4228,3.4393,3.4684,3.4776,3.4902,3.4993,3.5047,3.5138,3.5192,3.5192,3.5192,2.7949,2.8238,2.7949,2.8021,2.8346,2.8346,2.8382,2.8527,2.9722,3.0222,3.0258,3.0258,3.0258,3.0222,3.0258,3.0291,3.0324,3.0359,3.0428,3.0477,3.0548,3.0762,3.1064,3.1064,3.1258,3.1559,3.1595,3.1595,3.1595,3.1595,3.1577,3.1526,3.1526,3.1492,3.1423,3.108,3.0562,2.9836,2.9437,2.905,2.8759,2.8283,2.8079,2.8079,2.7947,2.7645,2.7089,2.7057,2.6756,2.6152,2.6104,2.6104,2.6025,2.5675,2.5716,2.6319,2.6062,2.6164,2.6803,2.7107,2.7669,2.8472,2.9243,2.928,2.8381,2.8937,2.9379,2.9468,3.0069,3.0561,3.0596,3.0933,3.1129,3.1198,3.1304,3.1426,3.141,3.1729,3.1856,3.1547,3.1826,3.1861,3.1617,3.1651,3.1685,3.1685,3.1789,3.1771,3.1876,3.1982,3.1983,3.1824,3.1753,3.1753,3.1859,3.1771,3.1912,3.214,3.2193,3.2351,3.2755,3.3109,3.3376,3.3465,3.3786,3.3982,3.407,3.4247,3.4645,3.4919,3.5191,3.5519,3.5759,3.5851,3.5815,2.7025,2.7332,2.7184,2.7347,2.7681,2.7866,2.794,2.8014,2.8679,2.9049,2.9154,2.9138,2.9154,2.9138,2.9138,2.9282,2.9497,2.9728,2.9942,3.0121,3.0299,3.0477,3.0655,3.0691,3.0797,3.0922,3.0975,3.0975,3.0975,3.0939,3.0939,3.0939,3.0939,3.0939,3.0922,3.0771,3.0406,2.9895,2.9512,2.901,2.8475,2.8302,2.8183,2.8183,2.8183,2.8056,2.7772,2.7757,2.7614,2.728,2.728,2.7297,2.7297,2.7144,2.7295,2.7735,2.7646,2.7897,2.8565,2.8939,2.9249,2.9641,2.9984,3.0016,2.9572,2.9865,3.0056,3.0073,3.0436,3.0627,3.0627,3.1009,3.1235,3.1235,3.1409,3.1565,3.1583,3.1705,3.1757,3.1599,3.1685,3.1771,3.163,3.1595,3.1595,3.1595,3.1595,3.1612,3.1612,3.189,3.1995,3.1681,3.1595,3.1595,3.1612,3.1595,3.1665,3.1806,3.1979,3.2242,3.2613,3.3018,3.3425,3.3799,3.403,3.4208,3.4367,3.458,3.4797,3.4907,3.5108,3.5363,3.553,3.553,3.5607,2.6071,2.6406,2.6292,2.6572,2.7027,2.7406,2.7557,2.7557,2.7595,2.7656,2.7819,2.7957,2.8103,2.8176,2.8176,2.8431,2.878,2.9122,2.9464,2.9845,3.0098,3.033,3.051,3.051,3.0529,3.0653,3.0653,3.0653,3.0653,3.0637,3.0604,3.0521,3.0439,3.0406,3.0406,3.0406,3.0228,2.9894,2.9584,2.9116,2.8456,2.8471,2.8437,2.8471,2.8437,2.8424,2.8344,2.831,2.8313,2.8199,2.8183,2.8183,2.8201,2.8321,2.8584,2.8873,2.8994,2.9327,2.9967,3.0327,3.0532,3.0532,3.06,3.0652,3.0652,3.0686,3.0617,3.0549,3.0669,3.0703,3.0772,3.096,3.1148,3.1165,3.1388,3.1578,3.1595,3.1595,3.1595,3.1595,3.1595,3.1595,3.1595,3.1595,3.1646,3.1696,3.18,3.1852,3.1886,3.2073,3.2107,3.1972,3.1852,3.1886,3.1852,3.1886,3.1886,3.1852,3.2092,3.2371,3.2674,3.3023,3.3446,3.3928,3.416,3.4281,3.4636,3.4689,3.4689,3.4747,3.4839,3.4894,3.5044,3.5082,3.5269,2.5172,2.5415,2.5173,2.5428,2.6142,2.6624,2.6776,2.6776,2.6799,2.6809,2.6867,2.7508,2.802,2.8447,2.8432,2.8604,2.8993,2.9083,2.9328,2.9684,2.9753,3.0124,3.0757,3.081,3.1011,3.1326,3.1309,3.1203,3.1203,3.1272,3.1214,3.0957,3.0571,3.0368,3.0387,3.0387,3.0228,2.9907,2.9861,2.9651,2.9238,2.9202,2.9186,2.9202,2.9186,2.9043,2.8777,2.8745,2.8567,2.8265,2.8249,2.8199,2.8268,2.8563,2.8891,2.9252,2.9611,2.9952,3.0344,3.072,3.0925,3.0959,3.1251,3.1457,3.1457,3.1475,3.1302,3.1097,3.1268,3.1423,3.1492,3.1509,3.1526,3.1525,3.1595,3.1595,3.1646,3.1595,3.1595,3.1595,3.168,3.1612,3.168,3.1697,3.1783,3.2039,3.2296,3.2433,3.2486,3.2552,3.2621,3.257,3.257,3.257,3.2555,3.257,3.2467,3.2518,3.2587,3.2675,3.2816,3.3057,3.3366,3.3655,3.3733,3.394,3.3936,3.395,3.4119,3.4452,3.4548,3.4626,3.4875,3.5003,3.5226,2.4933,2.5205,2.5061,2.5166,2.5479,2.5674,2.5752,2.5752,2.5752,2.5752,2.5791,2.6065,2.665,2.7406,2.7429,2.7784,2.8364,2.8401,2.874,2.9324,2.9586,2.9884,3.0182,3.0442,3.0627,3.0776,3.0553,3.0442,3.0405,3.0182,3.0007,2.9902,2.9928,2.9975,3.0011,3.0231,3.0267,3.0158,3.0158,3.0048,2.9854,2.9504,2.9298,2.9298,2.9298,2.9234,2.9107,2.9075,2.9012,2.8869,2.8853,2.8853,2.8853,2.9257,2.9609,2.9944,3.0539,3.0958,3.1114,3.1251,3.1337,3.1372,3.1509,3.1595,3.1595,3.1595,3.1526,3.144,3.1509,3.1595,3.1612,3.1595,3.168,3.1833,3.1902,3.1987,3.221,3.2263,3.2263,3.2263,3.2263,3.2227,3.2263,3.2263,3.2296,3.245,3.2621,3.2707,3.2743,3.2878,3.3052,3.3066,3.3203,3.3135,3.2826,3.2672,3.2689,3.2741,3.2932,3.3032,3.3083,3.334,3.3597,3.3597,3.3696,3.3799,3.3837,3.4042,3.42,3.4426,3.4632,3.4813,3.5005,3.4988,3.518,2.4571,2.4759,2.4851,2.4931,2.4931,2.505,2.509,2.509,2.509,2.509,2.509,2.509,2.5531,2.621,2.6515,2.7014,2.7588,2.7779,2.8289,2.8995,2.9336,2.96,2.9827,3.0112,3.0263,3.0188,2.9993,2.9827,2.9774,2.9418,2.9237,2.9274,2.9445,2.9548,2.9564,2.9847,3.0017,3.0092,3.0129,3.0182,3.0198,2.9838,2.9568,2.9584,2.9568,2.9568,2.9584,2.9568,2.9584,2.9584,2.9568,2.9584,2.9568,2.993,3.0399,3.083,3.1403,3.1796,3.1867,3.1903,3.1903,3.1903,3.192,3.1903,3.1903,3.1903,3.1903,3.192,3.1903,3.1903,3.173,3.1852,3.204,3.2244,3.2296,3.2415,3.2657,3.2672,3.2655,3.2672,3.2604,3.2672,3.2689,3.2741,3.288,3.288,3.2946,3.2998,3.3015,3.3254,3.3426,3.3443,3.3665,3.3542,3.3117,3.3066,3.2998,3.3049,3.3289,3.3426,3.3426,3.3662,3.3799,3.3696,3.3782,3.3816,3.3833,3.4111,3.4487,3.4573,3.4817,3.5023,3.4981,3.4989,3.5106,2.384,2.392,2.4332,2.4532,2.4532,2.4891,2.505,2.501,2.505,2.505,2.505,2.505,2.5117,2.5252,2.5977,2.6595,2.7067,2.7432,2.8004,2.8798,2.8929,2.9332,3.0045,3.0083,3.0107,3.0007,2.9915,2.9906,2.9945,2.9671,2.9595,2.9519,2.9237,2.9145,2.9138,2.9213,2.9355,2.9738,2.9775,2.9915,3.0235,3.0224,3.0209,3.0193,3.0214,3.0219,3.0235,3.0251,3.0251,3.0251,3.0219,3.0235,3.0288,3.0584,3.1175,3.1836,3.2019,3.2239,3.2477,3.2497,3.2533,3.2604,3.2499,3.2604,3.2555,3.2518,3.2518,3.2604,3.257,3.243,3.2155,3.2328,3.2606,3.2675,3.2655,3.2689,3.2707,3.2809,3.2689,3.2741,3.2755,3.2736,3.2758,3.3052,3.3129,3.3231,3.3453,3.3604,3.3515,3.3638,3.3655,3.3693,3.3727,3.3782,3.373,3.3576,3.3611,3.3611,3.3597,3.3713,3.3765,3.3799,3.3799,3.3799,3.3799,3.3833,3.3867,3.4162,3.459,3.483,3.5018,3.5177,3.5258,3.5109,3.5182,2.38,2.38,2.396,2.4052,2.4092,2.4212,2.4252,2.428,2.4252,2.4252,2.4292,2.424,2.4252,2.432,2.4878,2.5713,2.6584,2.6781,2.7294,2.8026,2.8392,2.8666,2.8939,2.9197,2.9314,2.9314,2.9095,2.8783,2.852,2.8365,2.8322,2.8385,2.8492,2.8602,2.8679,2.9103,2.9448,2.9586,2.9816,3.0046,3.0129,3.0183,3.0145,3.0152,3.0237,3.0315,3.0315,3.0315,3.0315,3.0315,3.0315,3.0315,3.0352,3.0664,3.0998,3.1293,3.1552,3.1772,3.192,3.192,3.2067,3.2287,3.2323,3.245,3.2653,3.2672,3.2672,3.2687,3.2688,3.2594,3.2546,3.2628,3.2829,3.3015,3.3103,3.3115,3.332,3.3388,3.3388,3.3351,3.3184,3.3018,3.2926,3.2927,3.286,3.2877,3.294,3.3044,3.3061,3.3023,3.3137,3.3365,3.3441,3.3517,3.3799,3.3782,3.3799,3.3799,3.3782,3.3782,3.3799,3.3799,3.3799,3.3799,3.3799,3.3884,3.397,3.4419,3.483,3.5429,3.5583,3.5532,3.5703,3.5532,3.5583,2.386,2.3921,2.3933,2.3981,2.4053,2.4053,2.4053,2.4053,2.4053,2.4053,2.4053,2.4053,2.4053,2.4094,2.4389,2.5012,2.5883,2.5964,2.6347,2.7004,2.7451,2.7765,2.7961,2.83,2.8456,2.8417,2.8065,2.7712,2.7437,2.728,2.7201,2.724,2.7647,2.7883,2.8001,2.8549,2.8939,2.9134,2.9407,2.9547,2.9664,2.9703,2.9703,2.9759,2.9915,3.0137,3.0235,3.0363,3.0439,3.0476,3.0589,3.0664,3.0702,3.0889,3.113,3.128,3.1505,3.1712,3.1824,3.1861,3.199,3.2234,3.2287,3.2382,3.2642,3.2679,3.2679,3.2672,3.2658,3.2655,3.2643,3.2645,3.2797,3.3018,3.3068,3.317,3.3369,3.3403,3.3348,3.3293,3.3125,3.299,3.2968,3.274,3.2664,3.2588,3.2588,3.2588,3.2588,3.2588,3.2681,3.293,3.3006,3.3099,3.3251,3.3251,3.3609,3.3685,3.3685,3.3723,3.3723,3.3723,3.3761,3.3761,3.385,3.3953,3.4209,3.4659,3.5241,3.5909,3.5994,3.5874,3.5977,3.6046,3.5977,2.3969,2.4186,2.4198,2.4318,2.4499,2.4511,2.4559,2.4523,2.4535,2.4499,2.4475,2.4535,2.4499,2.4547,2.4581,2.4743,2.497,2.512,2.5407,2.5832,2.6228,2.6623,2.6965,2.728,2.7437,2.7437,2.7122,2.6965,2.6886,2.6531,2.6386,2.6465,2.6728,2.6925,2.6951,2.7358,2.7805,2.8157,2.8328,2.851,2.8847,2.8886,2.8886,2.8925,2.9231,2.9565,2.9967,3.0446,3.0685,3.0739,3.1101,3.1379,3.13,3.1338,3.1523,3.1797,3.1944,3.2152,3.244,3.2408,3.2358,3.2472,3.2538,3.2527,3.2607,3.2624,3.2641,3.2624,3.256,3.2555,3.2555,3.2505,3.2543,3.2626,3.2674,3.2707,3.2702,3.2626,3.2626,3.2664,3.2642,3.2604,3.2604,3.2473,3.2397,3.2413,3.2435,3.2435,3.2397,3.2397,3.2512,3.2604,3.2604,3.2681,3.2642,3.2664,3.3137,3.3496,3.3534,3.3572,3.3496,3.3458,3.3403,3.3441,3.3592,3.3712,3.4231,3.4679,3.5189,3.5737,3.5874,3.608,3.6097,3.6097,3.6097,2.4222,2.4451,2.4504,2.4552,2.4583,2.4583,2.4583,2.4583,2.4583,2.4583,2.4583,2.4583,2.4583,2.4595,2.4583,2.463,2.471,2.4735,2.496,2.5273,2.5461,2.558,2.5726,2.5832,2.5885,2.5872,2.5753,2.5673,2.5673,2.5554,2.5488,2.5527,2.5634,2.5673,2.5753,2.6096,2.6531,2.6978,2.7294,2.7594,2.7947,2.7986,2.7986,2.8026,2.8143,2.8261,2.8417,2.9625,3.026,3.0299,3.074,3.1125,3.1318,3.1395,3.1472,3.1533,3.1571,3.1609,3.1725,3.1801,3.1916,3.2108,3.2184,3.2337,3.2566,3.255,3.255,3.255,3.2375,3.2184,3.2146,3.1916,3.2031,3.2512,3.2588,3.255,3.2512,3.255,3.2588,3.255,3.2375,3.2222,3.2146,3.1993,3.184,3.184,3.184,3.184,3.1801,3.1878,3.1916,3.2108,3.2146,3.2261,3.2337,3.2375,3.2604,3.2909,3.3061,3.3213,3.3175,3.3137,3.3099,3.3137,3.3289,3.3568,3.4123,3.4557,3.4976,3.547,3.5726,3.592,3.6063,3.6097,3.6097,2.4499,2.4728,2.474,2.48,2.4885,2.4885,2.4885,2.4885,2.4885,2.4885,2.4897,2.4885,2.4927,2.4885,2.4885,2.4824,2.4752,2.4782,2.4799,2.496,2.5112,2.5153,2.518,2.524,2.5179,2.5063,2.4931,2.4891,2.4851,2.4691,2.4612,2.4652,2.4771,2.4891,2.4931,2.5276,2.5634,2.5911,2.6188,2.6412,2.661,2.6663,2.6689,2.6702,2.6807,2.6965,2.7201,2.8339,2.9197,2.9664,3.0222,3.0647,3.0879,3.1033,3.1164,3.1202,3.1318,3.1433,3.1395,3.1472,3.151,3.1725,3.1763,3.1878,3.2108,3.2146,3.2146,3.2108,3.1916,3.1763,3.1725,3.1571,3.1648,3.2069,3.2146,3.2146,3.2146,3.2146,3.2146,3.2069,3.1916,3.1801,3.1686,3.1609,3.1395,3.1395,3.1395,3.1395,3.1395,3.1433,3.1609,3.1725,3.1763,3.1878,3.2069,3.2108,3.2108,3.2299,3.249,3.2681,3.2778,3.2778,3.2778,3.2778,3.2909,3.3114,3.363,3.3859,3.4261,3.4824,3.544,3.5559,3.5661,3.6022,3.6097,2.4764,2.5017,2.5029,2.515,2.5343,2.5355,2.5331,2.5367,2.5355,2.5343,2.5355,2.5318,2.5343,2.5367,2.5306,2.5198,2.5053,2.5017,2.4939,2.4899,2.5087,2.5269,2.5186,2.5244,2.5178,2.5002,2.4724,2.4539,2.4548,2.4254,2.3848,2.4081,2.4415,2.4514,2.4616,2.4914,2.5124,2.5257,2.5231,2.5271,2.5351,2.5299,2.5313,2.534,2.5646,2.599,2.6347,2.6847,2.7619,2.8769,2.9547,2.995,3.0144,3.0508,3.0663,3.074,3.1125,3.1279,3.1318,3.1318,3.1356,3.1472,3.1472,3.1395,3.1494,3.1571,3.1571,3.1533,3.1472,3.1433,3.1433,3.1395,3.1433,3.1433,3.1549,3.1549,3.1433,3.1472,3.1549,3.151,3.1433,3.1433,3.1472,3.1433,3.1395,3.1395,3.1395,3.1395,3.1395,3.1395,3.1395,3.1472,3.1494,3.1571,3.1763,3.1763,3.1801,3.184,3.1993,3.2146,3.2283,3.2321,3.2337,3.2375,3.2544,3.278,3.3006,3.3287,3.3681,3.4282,3.4662,3.4966,3.5271,3.5625,3.5855,2.5053,2.5282,2.5294,2.5331,2.5391,2.5391,2.5391,2.5391,2.5391,2.5391,2.5391,2.5391,2.5391,2.5391,2.5391,2.5355,2.5294,2.5282,2.527,2.524,2.5313,2.5101,2.4863,2.4812,2.4808,2.4735,2.4657,2.4542,2.4583,2.4424,2.4342,2.4379,2.4465,2.4559,2.4624,2.4682,2.4911,2.5209,2.5238,2.5389,2.5593,2.5633,2.5598,2.5407,2.5463,2.5481,2.5513,2.5832,2.6807,2.8275,2.8627,2.9095,2.9523,2.9772,2.995,3.0222,3.0376,3.0608,3.0856,3.0933,3.1087,3.1356,3.1356,3.1395,3.1395,3.1395,3.1395,3.1395,3.1395,3.1395,3.1395,3.1395,3.1395,3.1395,3.1395,3.1395,3.1395,3.1395,3.1395,3.1395,3.1395,3.1395,3.1395,3.1395,3.1395,3.1395,3.1395,3.1395,3.1395,3.1395,3.1395,3.1395,3.1433,3.1433,3.1433,3.1433,3.1472,3.151,3.1571,3.1609,3.1725,3.1725,3.1686,3.1702,3.2031,3.2276,3.2528,3.2797,3.324,3.3651,3.4097,3.4455,3.4787,3.5085,3.5311,2.5258,2.5391,2.5391,2.5391,2.5391,2.5391,2.5391,2.5391,2.5391,2.5391,2.5391,2.5391,2.5391,2.5391,2.5391,2.5391,2.5391,2.5391,2.5391,2.5391,2.5379,2.5192,2.489,2.4764,2.4704,2.4583,2.4595,2.4583,2.4613,2.4583,2.4583,2.4571,2.4583,2.4583,2.4601,2.4583,2.4707,2.4955,2.4996,2.5133,2.5339,2.538,2.5264,2.5115,2.5131,2.5048,2.5052,2.53,2.6109,2.7215,2.7687,2.804,2.8612,2.89,2.9095,2.9368,2.964,2.9989,3.0237,3.0392,3.0701,3.1048,3.1125,3.1241,3.1356,3.1395,3.1395,3.1395,3.1395,3.1395,3.1395,3.1395,3.1395,3.1395,3.1395,3.1395,3.1395,3.1395,3.1395,3.1395,3.1395,3.1395,3.1395,3.1395,3.1395,3.1395,3.1395,3.1395,3.1395,3.1395,3.1395,3.1395,3.1395,3.1395,3.1395,3.1395,3.1395,3.1395,3.1395,3.1395,3.1395,3.1395,3.1433,3.151,3.1648,3.1833,3.2029,3.2252,3.2466,3.29,3.3469,3.3965,3.431,3.4596,3.4824,2.5391,2.5391,2.5391,2.5391,2.5391,2.5391,2.5391,2.5391,2.5391,2.5391,2.5391,2.5391,2.5391,2.5391,2.5391,2.5391,2.5391,2.5391,2.5391,2.5391,2.5379,2.5246,2.5077,2.5041,2.4933,2.4776,2.468,2.4716,2.4764,2.4728,2.4692,2.4752,2.4728,2.4692,2.4764,2.4728,2.468,2.477,2.4847,2.4889,2.4931,2.4931,2.4936,2.4809,2.4712,2.478,2.4857,2.5022,2.5444,2.6202,2.6597,2.7004,2.7437,2.7883,2.8157,2.8353,2.8861,2.9251,2.9446,2.9718,3.0144,3.0508,3.0663,3.0894,3.1164,3.1279,3.1318,3.1395,3.1395,3.1395,3.1395,3.1395,3.1395,3.1395,3.1395,3.1395,3.1395,3.1395,3.1395,3.1395,3.1395,3.1395,3.1395,3.1395,3.1395,3.1395,3.1395,3.1395,3.1395,3.1395,3.1395,3.1395,3.1395,3.1395,3.1395,3.1395,3.1395,3.1395,3.1395,3.1395,3.1395,3.1395,3.1395,3.1472,3.1549,3.1587,3.1565,3.174,3.1909,3.2322,3.2968,3.3451,3.3839,3.4148,3.4376,2.5391,2.5391,2.5391,2.5391,2.5391,2.5391,2.5391,2.5391,2.5391,2.5391,2.5391,2.5391,2.5391,2.5391,2.5391,2.5391,2.5391,2.5391,2.5391,2.5391,2.5391,2.5379,2.5306,2.5294,2.527,2.5186,2.521,2.521,2.5198,2.5162,2.521,2.5186,2.5138,2.521,2.5186,2.515,2.5222,2.5222,2.5198,2.5174,2.5162,2.5162,2.509,2.4921,2.4716,2.4654,2.4647,2.4697,2.489,2.5178,2.547,2.5937,2.6518,2.6781,2.7097,2.7555,2.783,2.8197,2.8549,2.8886,2.9314,2.9718,3.0067,3.0454,3.0856,3.0933,3.1087,3.1318,3.1395,3.1395,3.1395,3.1395,3.1395,3.1395,3.1395,3.1395,3.1395,3.1395,3.1395,3.1395,3.1395,3.1395,3.1395,3.1395,3.1395,3.1395,3.1395,3.1395,3.1395,3.1395,3.1395,3.1395,3.1395,3.1395,3.1395,3.1395,3.1395,3.1395,3.1395,3.1395,3.1395,3.1395,3.1395,3.1395,3.1433,3.1395,3.1395,3.149,3.1736,3.2157,3.2539,3.3074,3.3507,3.3773,3.3968,2.5391,2.5391,2.5391,2.5391,2.5391,2.5391,2.5391,2.5391,2.5391,2.5391,2.5391,2.5391,2.5391,2.5391,2.5391,2.5391,2.5391,2.5391,2.5391,2.5391,2.5391,2.5391,2.5391,2.5391,2.5391,2.5391,2.5391,2.5391,2.5391,2.5391,2.5367,2.5391,2.5391,2.5367,2.5391,2.5391,2.5379,2.5379,2.5391,2.5391,2.5391,2.5391,2.5355,2.5162,2.4933,2.4776,2.4788,2.4644,2.4676,2.4747,2.4857,2.513,2.5646,2.5805,2.603,2.6347,2.6886,2.7097,2.7451,2.7961,2.851,2.8861,2.9329,2.9718,3.0183,3.0508,3.0856,3.1087,3.1279,3.1395,3.1395,3.1395,3.1395,3.1395,3.1395,3.1395,3.1395,3.1395,3.1395,3.1395,3.1395,3.1395,3.1395,3.1395,3.1395,3.1395,3.1395,3.1395,3.1395,3.1395,3.1395,3.1395,3.1395,3.1395,3.1395,3.1395,3.1395,3.1395,3.1395,3.1395,3.1395,3.1395,3.1395,3.1395,3.1395,3.1395,3.1411,3.1522,3.1729,3.2213,3.2626,3.2976,3.3247,3.3617,3.3738,2.5391,2.5391,2.5391,2.5391,2.5391,2.5391,2.5391,2.5391,2.5391,2.5391,2.5391,2.5391,2.5391,2.5391,2.5391,2.5391,2.5391,2.5391,2.5391,2.5391,2.5391,2.5391,2.5391,2.5391,2.5391,2.5391,2.5391,2.5391,2.5391,2.5391,2.5391,2.5391,2.5391,2.5391,2.5391,2.5391,2.5391,2.5391,2.5391,2.5391,2.5391,2.5391,2.5379,2.5318,2.5186,2.5065,2.5029,2.4885,2.4758,2.4656,2.4644,2.48,2.4926,2.5097,2.5217,2.5322,2.6081,2.6334,2.648,2.6955,2.752,2.799,2.8353,2.89,2.9407,3.0004,3.0431,3.0856,3.1125,3.1395,3.1395,3.1395,3.1395,3.1395,3.1395,3.1395,3.1395,3.1395,3.1395,3.1395,3.1395,3.1395,3.1395,3.1395,3.1395,3.1395,3.1395,3.1395,3.1356,3.1318,3.1279,3.1279,3.1279,3.1356,3.1356,3.1395,3.1395,3.1395,3.1395,3.1427,3.1411,3.1395,3.1395,3.1395,3.1395,3.1411,3.149,3.1649,3.1935,3.2348,3.2682,3.3056,3.3295,3.3485,3.3501,2.5391,2.5391,2.5391,2.5391,2.5391,2.5391,2.5391,2.5391,2.5391,2.5391,2.5391,2.5391,2.5391,2.5391,2.5391,2.5391,2.5391,2.5391,2.5391,2.5391,2.5391,2.5391,2.5391,2.5391,2.5391,2.5391,2.5391,2.5391,2.5391,2.5391,2.5391,2.5391,2.5391,2.5391,2.5391,2.5391,2.5391,2.5391,2.5391,2.5391,2.5391,2.5391,2.5391,2.5391,2.5318,2.5306,2.5306,2.527,2.5162,2.4969,2.4933,2.4835,2.4877,2.5079,2.5354,2.5577,2.5809,2.5882,2.5821,2.6119,2.6441,2.673,2.7162,2.7908,2.8651,2.9236,2.9873,3.0663,3.1125,3.1395,3.1395,3.1395,3.1395,3.1395,3.1356,3.1356,3.1318,3.1318,3.1264,3.1187,3.1264,3.1318,3.1187,3.111,3.1071,3.1071,3.1071,3.111,3.111,3.1033,3.101,3.1048,3.1087,3.1202,3.1302,3.1395,3.1395,3.1411,3.1427,3.149,3.1474,3.1411,3.1395,3.157,3.1538,3.1474,3.1586,3.1792,3.211,3.2491,3.2833,3.312,3.3247,3.3374,3.3349,2.5391,2.5391,2.5391,2.5391,2.5391,2.5391,2.5391,2.5391,2.5391,2.5391,2.5391,2.5391,2.5391,2.5391,2.5391,2.5391,2.5391,2.5391,2.5391,2.5391,2.5391,2.5391,2.5391,2.5391,2.5391,2.5391,2.5391,2.5391,2.5391,2.5391,2.5391,2.5391,2.5391,2.5391,2.5391,2.5391,2.5391,2.5391,2.5391,2.5391,2.5391,2.5391,2.5391,2.5391,2.5391,2.5391,2.5391,2.5391,2.5331,2.5222,2.521,2.5126,2.5126,2.5167,2.5332,2.5331,2.5475,2.5548,2.5455,2.5679,2.5863,2.5947,2.6361,2.69,2.7673,2.8378,2.9407,3.0431,3.0894,3.1202,3.1395,3.1356,3.1318,3.1125,3.1087,3.0956,3.0801,3.0763,3.0724,3.0763,3.0856,3.0763,3.0647,3.0647,3.0686,3.0724,3.0763,3.0801,3.084,3.0686,3.0585,3.0624,3.0701,3.0971,3.1141,3.1304,3.1436,3.149,3.1586,3.1649,3.1713,3.1729,3.1856,3.2015,3.1887,3.1729,3.1872,3.2126,3.2396,3.265,3.3008,3.3247,3.3215,3.3231,3.3158,2.5391,2.5391,2.5391,2.5391,2.5391,2.5391,2.5391,2.5391,2.5391,2.5391,2.5391,2.5391,2.5391,2.5391,2.5391,2.5391,2.5391,2.5391,2.5391,2.5391,2.5391,2.5391,2.5391,2.5391,2.5391,2.5391,2.5391,2.5391,2.5391,2.5391,2.5391,2.5391,2.5391,2.5391,2.5391,2.5391,2.5391,2.5391,2.5391,2.5391,2.5391,2.5391,2.5391,2.5391,2.5391,2.5391,2.5391,2.5391,2.5391,2.5367,2.5379,2.5379,2.5391,2.5391,2.5186,2.492,2.5139,2.528,2.5293,2.5305,2.5401,2.543,2.5921,2.6215,2.686,2.7986,2.929,3.0198,3.0624,3.074,3.0956,3.1071,3.0971,3.0778,3.0624,3.0508,3.0183,3.0028,2.9912,2.9989,3.0237,3.026,3.0129,3.0322,3.04,3.04,3.0438,3.04,3.04,3.0183,3.0067,3.0144,3.0299,3.0624,3.0902,3.1229,3.1431,3.1633,3.184,3.1999,3.2094,3.2173,3.2229,3.2253,3.2364,3.2269,3.238,3.2412,3.2571,3.2849,3.3199,3.3231,3.2952,3.2841,3.2793,2.5391,2.5391,2.5391,2.5391,2.5391,2.5391,2.5391,2.5391,2.5391,2.5391,2.5391,2.5391,2.5391,2.5391,2.5391,2.5391,2.5391,2.5391,2.5391,2.5391,2.5391,2.5391,2.5391,2.5391,2.5391,2.5391,2.5391,2.5391,2.5391,2.5391,2.5391,2.5391,2.5391,2.5391,2.5391,2.5391,2.5391,2.5391,2.5391,2.5391,2.5391,2.5391,2.5391,2.5391,2.5391,2.5391,2.5391,2.5391,2.5391,2.5391,2.5391,2.5391,2.5391,2.5391,2.5379,2.5318,2.5325,2.5283,2.5119,2.5111,2.5087,2.5119,2.5405,2.584,2.6585,2.7687,2.8808,2.9056,2.9718,3.0129,3.0206,3.0245,3.0206,3.0144,3.0028,2.9834,2.9562,2.9197,2.9095,2.8783,2.89,2.9407,2.9586,2.9897,3.0129,3.009,3.0052,2.9974,2.9935,2.9679,2.9562,2.964,2.9994,3.0375,3.0662,3.0973,3.1301,3.1606,3.1874,3.2126,3.2165,3.2148,3.2332,3.2355,3.2458,3.2474,3.2331,3.2363,3.2674,3.2833,3.2904,3.2761,3.2539,3.2475,3.2444,2.5391,2.5391,2.5391,2.5391,2.5391,2.5391,2.5391,2.5391,2.5391,2.5391,2.5391,2.5391,2.5391,2.5391,2.5391,2.5391,2.5391,2.5391,2.5391,2.5391,2.5391,2.5391,2.5391,2.5391,2.5391,2.5391,2.5391,2.5391,2.5391,2.5391,2.5391,2.5391,2.5391,2.5391,2.5391,2.5391,2.5391,2.5391,2.5391,2.5391,2.5391,2.5391,2.5391,2.5391,2.5391,2.5391,2.5391,2.5391,2.5391,2.5391,2.5391,2.5391,2.5391,2.5391,2.5391,2.5391,2.5391,2.5331,2.5234,2.509,2.4913,2.4828,2.5057,2.553,2.6347,2.7215,2.8118,2.8549,2.8861,2.9134,2.9353,2.9392,2.929,2.9173,2.9095,2.8808,2.8573,2.8456,2.8182,2.7844,2.7608,2.8026,2.8417,2.8534,2.8691,2.8925,2.8886,2.8886,2.9003,2.9119,2.908,2.9158,2.9649,3.0127,3.0405,3.0724,3.1035,3.1302,3.1589,3.1789,3.1932,3.2003,3.2059,3.2115,3.2096,3.2065,3.2047,3.2353,3.2665,3.261,3.2539,3.238,3.2221,3.2142,3.2078,2.5391,2.5391,2.5391,2.5391,2.5391,2.5391,2.5391,2.5391,2.5391,2.5391,2.5391,2.5391,2.5391,2.5391,2.5391,2.5391,2.5391,2.5391,2.5391,2.5391,2.5391,2.5391,2.5391,2.5391,2.5391,2.5391,2.5391,2.5391,2.5391,2.5391,2.5391,2.5391,2.5391,2.5391,2.5391,2.5391,2.5391,2.5391,2.5391,2.5391,2.5391,2.5391,2.5391,2.5391,2.5391,2.5391,2.5391,2.5294,2.5282,2.5282,2.527,2.5258,2.527,2.5343,2.5391,2.5391,2.5391,2.5343,2.5222,2.5077,2.4861,2.4761,2.4731,2.516,2.5858,2.6479,2.6939,2.7687,2.7922,2.8143,2.8339,2.8378,2.8143,2.7961,2.7805,2.753,2.728,2.724,2.7044,2.6623,2.6386,2.6426,2.6728,2.69,2.7162,2.7555,2.7712,2.779,2.8079,2.8471,2.8596,2.8664,2.8942,2.9462,2.9907,3.0241,3.063,3.0947,3.1213,3.1364,3.1409,3.1526,3.1556,3.1571,3.1522,3.1406,3.1207,3.1922,3.2593,3.2245,3.2008,3.2023,3.1935,3.1817,3.1737,2.5391,2.5391,2.5391,2.5391,2.5391,2.5391,2.5391,2.5391,2.5391,2.5391,2.5391,2.5391,2.5391,2.5391,2.5391,2.5391,2.5391,2.5391,2.5391,2.5391,2.5391,2.5391,2.5391,2.5391,2.5391,2.5391,2.5391,2.5391,2.5379,2.5343,2.5367,2.5391,2.5379,2.5391,2.5391,2.5391,2.5391,2.5391,2.5391,2.5391,2.5391,2.5391,2.5391,2.5391,2.5391,2.5391,2.5379,2.515,2.5029,2.5029,2.5029,2.5029,2.5053,2.5174,2.5246,2.5258,2.5258,2.5174,2.5041,2.5017,2.4861,2.4659,2.4633,2.4766,2.5262,2.5594,2.607,2.6544,2.6821,2.7004,2.7122,2.7083,2.6925,2.6821,2.6663,2.6505,2.6268,2.6096,2.5872,2.5395,2.5316,2.5475,2.5514,2.5753,2.6386,2.6847,2.7398,2.753,2.7636,2.7939,2.8095,2.8194,2.8281,2.8679,2.9177,2.9607,3.0083,3.0364,3.0551,3.0724,3.0812,3.0871,3.078,3.0645,3.0521,3.0424,3.038,3.0769,3.1137,3.1417,3.1442,3.1386,3.1331,3.1253,3.1267,2.5391,2.5391,2.5391,2.5391,2.5391,2.5391,2.5391,2.5391,2.5391,2.5391,2.5391,2.5391,2.5391,2.5391,2.5391,2.5391,2.5391,2.5391,2.5391,2.5391,2.5391,2.5391,2.5391,2.5391,2.5391,2.5379,2.5391,2.5391,2.5391,2.5234,2.5162,2.5186,2.5282,2.5379,2.5391,2.5343,2.5355,2.5367,2.5379,2.5391,2.5391,2.5391,2.5391,2.5391,2.5198,2.5162,2.5102,2.4885,2.4788,2.474,2.474,2.4752,2.4764,2.4885,2.4933,2.4945,2.4957,2.4873,2.4824,2.4849,2.4812,2.4461,2.4433,2.4532,2.4731,2.5077,2.5329,2.5594,2.5753,2.5951,2.5872,2.5832,2.5753,2.5647,2.5554,2.5475,2.5356,2.5236,2.5117,2.4798,2.4771,2.4811,2.4811,2.4811,2.5514,2.6228,2.6781,2.7268,2.7337,2.7434,2.7599,2.778,2.7891,2.8206,2.87,2.9144,2.9591,2.9675,2.9815,2.9787,2.9704,2.9768,2.9681,2.9551,2.9377,2.9128,2.9123,2.9364,2.9789,3.0395,3.0607,3.0631,3.0616,3.0686,3.0763,2.5391,2.5391,2.5391,2.5391,2.5391,2.5391,2.5391,2.5391,2.5391,2.5391,2.5391,2.5391,2.5391,2.5391,2.5391,2.5391,2.5391,2.5391,2.5391,2.5391,2.5391,2.5391,2.5367,2.5306,2.5234,2.5258,2.5174,2.5126,2.509,2.4957,2.4897,2.4933,2.5041,2.5102,2.5126,2.5162,2.5162,2.515,2.515,2.515,2.5138,2.5126,2.5126,2.5102,2.4945,2.4885,2.48,2.4632,2.4487,2.4475,2.4516,2.4516,2.454,2.4535,2.4571,2.4583,2.4571,2.4547,2.4547,2.4571,2.4547,2.4154,2.4186,2.4264,2.4372,2.4572,2.4691,2.4931,2.497,2.4931,2.4931,2.501,2.4891,2.4811,2.4731,2.4639,2.4639,2.4559,2.448,2.4332,2.4292,2.4292,2.4412,2.4452,2.513,2.5753,2.6188,2.6625,2.6786,2.6947,2.7163,2.7365,2.7538,2.7891,2.8274,2.8312,2.8295,2.8266,2.8377,2.8394,2.8381,2.8441,2.8222,2.7771,2.7594,2.763,2.789,2.8213,2.8861,2.9592,2.981,3.0097,3.0276,3.0361,3.0284,2.5391,2.5391,2.5391,2.5391,2.5391,2.5391,2.5391,2.5391,2.5391,2.5391,2.5391,2.5391,2.5391,2.5391,2.5391,2.5391,2.5379,2.5367,2.5355,2.5343,2.5258,2.5331,2.5246,2.5126,2.5005,2.4945,2.4861,2.4752,2.4721,2.4632,2.4607,2.4571,2.4607,2.4656,2.4607,2.462,2.462,2.462,2.4668,2.4692,2.4704,2.4716,2.4728,2.4716,2.4644,2.4595,2.4547,2.4342,2.421,2.4198,2.4198,2.4198,2.421,2.4391,2.4463,2.4487,2.4511,2.4415,2.4246,2.4222,2.4089,2.3933,2.3984,2.3932,2.388,2.392,2.4132,2.4452,2.4492,2.4492,2.4492,2.4492,2.4252,2.4172,2.4092,2.4092,2.4132,2.4132,2.408,2.408,2.392,2.384,2.4012,2.4252,2.4851,2.5356,2.5673,2.595,2.6186,2.6449,2.6729,2.6964,2.7144,2.7315,2.7501,2.7172,2.7025,2.6953,2.7058,2.7291,2.7177,2.7064,2.6678,2.6122,2.625,2.6614,2.6838,2.7071,2.7673,2.8261,2.9314,2.9703,2.9897,2.9858,2.9586,2.5234,2.5391,2.5391,2.5391,2.5391,2.5391,2.5391,2.5391,2.5391,2.5391,2.5391,2.5391,2.5391,2.5391,2.5379,2.5379,2.5355,2.5174,2.5138,2.5114,2.4993,2.4873,2.4824,2.4812,2.477,2.4704,2.4607,2.4547,2.4607,2.4415,2.433,2.4306,2.4222,2.427,2.4499,2.4583,2.4595,2.4595,2.4595,2.4595,2.4583,2.4571,2.4559,2.4547,2.4403,2.433,2.4318,2.4077,2.3981,2.3969,2.3969,2.3969,2.3957,2.4113,2.4101,2.4089,2.4077,2.4041,2.3945,2.3933,2.3909,2.3824,2.38,2.38,2.38,2.38,2.392,2.4012,2.4092,2.4092,2.4052,2.4052,2.392,2.392,2.388,2.388,2.388,2.388,2.388,2.388,2.38,2.38,2.3892,2.3972,2.4492,2.4811,2.5077,2.543,2.5702,2.5985,2.6285,2.654,2.6742,2.677,2.6758,2.652,2.6465,2.655,2.6563,2.6675,2.6425,2.596,2.5814,2.5549,2.5585,2.5671,2.5964,2.6188,2.6333,2.6886,2.7869,2.8495,2.8573,2.8442,2.8285,2.5017,2.5246,2.5258,2.5306,2.5391,2.5391,2.5391,2.5391,2.5391,2.5391,2.5391,2.5391,2.5391,2.5367,2.5306,2.5258,2.5234,2.4981,2.4861,2.4836,2.4692,2.4644,2.4607,2.4528,2.4451,2.4427,2.4354,2.4294,2.4258,2.4138,2.4065,2.4017,2.3897,2.4017,2.4222,2.427,2.427,2.4258,2.4246,2.4258,2.4258,2.4282,2.4294,2.4246,2.415,2.4053,2.4017,2.3921,2.38,2.38,2.38,2.38,2.38,2.38,2.38,2.38,2.3812,2.3812,2.3824,2.3824,2.3824,2.3812,2.38,2.38,2.38,2.38,2.38,2.384,2.38,2.38,2.38,2.38,2.38,2.38,2.38,2.38,2.38,2.38,2.38,2.38,2.38,2.38,2.38,2.3852,2.4052,2.4252,2.4452,2.4826,2.5203,2.5495,2.5773,2.5954,2.6108,2.6106,2.6101,2.6009,2.6009,2.6136,2.6045,2.5903,2.5525,2.5095,2.506,2.506,2.5042,2.5061,2.5195,2.5368,2.5594,2.5792,2.6268,2.6768,2.7083,2.7162,2.7162,2.474,2.4969,2.4993,2.5126,2.5331,2.5343,2.5367,2.5391,2.5391,2.5391,2.5391,2.5379,2.5331,2.5306,2.5102,2.4993,2.4933,2.4692,2.4607,2.4547,2.4463,2.4475,2.4403,2.4282,2.421,2.4101,2.4029,2.3981,2.3848,2.3884,2.3872,2.3836,2.3824,2.3884,2.3921,2.3945,2.3945,2.3957,2.3969,2.3969,2.3981,2.3909,2.3945,2.3933,2.3897,2.3872,2.3848,2.3812,2.38,2.38,2.38,2.38,2.38,2.38,2.38,2.38,2.38,2.38,2.38,2.38,2.38,2.38,2.38,2.38,2.38,2.38,2.38,2.38,2.38,2.38,2.38,2.38,2.38,2.38,2.38,2.38,2.38,2.38,2.38,2.38,2.38,2.38,2.38,2.3852,2.3852,2.3932,2.4145,2.4298,2.4631,2.4959,2.5137,2.52,2.5336,2.5404,2.5392,2.5402,2.5396,2.5485,2.5126,2.4918,2.4506,2.4413,2.4429,2.444,2.4434,2.4492,2.4652,2.4771,2.4931,2.513,2.5236,2.5634,2.6136,2.6307,2.6386,2.4463,2.4704,2.4704,2.4752,2.4849,2.5041,2.521,2.5379,2.5391,2.5391,2.5391,2.5198,2.5114,2.509,2.4836,2.477,2.4607,2.4463,2.4342,2.4258,2.4174,2.4077,2.4017,2.3981,2.3933,2.3909,2.3848,2.38,2.3812,2.38,2.3788,2.3812,2.3728,2.3752,2.3752,2.38,2.3788,2.3788,2.3788,2.38,2.38,2.38,2.38,2.38,2.38,2.38,2.38,2.38,2.38,2.38,2.38,2.38,2.38,2.38,2.38,2.38,2.38,2.38,2.38,2.38,2.38,2.38,2.38,2.38,2.38,2.38,2.38,2.38,2.38,2.38,2.38,2.38,2.38,2.38,2.38,2.38,2.38,2.38,2.38,2.38,2.38,2.38,2.38,2.38,2.38,2.38,2.3864,2.3993,2.4182,2.4507,2.469,2.4709,2.4824,2.4981,2.4885,2.4865,2.4799,2.4709,2.4463,2.4294,2.4238,2.4146,2.3961,2.3929,2.4052,2.4092,2.4092,2.4252,2.4452,2.4252,2.432,2.4759,2.5157,2.5356,2.5554,2.4198,2.4415,2.4427,2.4487,2.4607,2.4764,2.4945,2.5077,2.5186,2.5234,2.521,2.4957,2.4836,2.48,2.4571,2.4427,2.4403,2.4174,2.4041,2.3993,2.3884,2.386,2.3812,2.38,2.3824,2.38,2.38,2.38,2.3764,2.3655,2.3619,2.3502,2.3526,2.3538,2.3538,2.3547,2.3631,2.368,2.3728,2.3788,2.38,2.38,2.38,2.38,2.38,2.38,2.38,2.38,2.38,2.38,2.38,2.38,2.38,2.38,2.38,2.38,2.38,2.38,2.38,2.38,2.38,2.38,2.38,2.38,2.38,2.38,2.38,2.38,2.38,2.38,2.38,2.38,2.38,2.38,2.38,2.38,2.38,2.38,2.38,2.38,2.38,2.38,2.38,2.38,2.38,2.38,2.38,2.3864,2.4013,2.4182,2.4368,2.4456,2.4547,2.468,2.4547,2.4463,2.4439,2.4379,2.4198,2.4065,2.4017,2.3969,2.386,2.3824,2.3852,2.384,2.3892,2.384,2.392,2.3824,2.3836,2.4197,2.4504,2.448,2.4691,2.3945,2.4162,2.4162,2.4306,2.4535,2.4559,2.4583,2.4607,2.4836,2.4957,2.4909,2.468,2.4601,2.4511,2.4282,2.4174,2.4113,2.3957,2.3872,2.38,2.3824,2.38,2.38,2.38,2.3764,2.3764,2.374,2.3655,2.3631,2.3499,2.3309,2.3094,2.3143,2.3191,2.3251,2.3378,2.3487,2.3523,2.368,2.38,2.38,2.38,2.38,2.38,2.38,2.38,2.38,2.38,2.38,2.38,2.38,2.38,2.38,2.38,2.38,2.38,2.38,2.38,2.38,2.38,2.38,2.38,2.38,2.38,2.38,2.38,2.38,2.38,2.38,2.38,2.38,2.38,2.38,2.38,2.38,2.38,2.38,2.38,2.38,2.38,2.38,2.38,2.38,2.38,2.38,2.38,2.38,2.38,2.386,2.4005,2.4089,2.4174,2.4246,2.433,2.4318,2.4234,2.4174,2.4077,2.3945,2.3897,2.3909,2.386,2.3812,2.38,2.38,2.38,2.38,2.3812,2.3848,2.3921,2.3921,2.3884,2.3965,2.4094,2.4129,2.3836,2.3897,2.3897,2.4053,2.427,2.4282,2.4403,2.4559,2.4427,2.4511,2.4607,2.4427,2.4282,2.4205,2.4001,2.384,2.378,2.3652,2.376,2.3672,2.366,2.352,2.3724,2.3544,2.3576,2.3559,2.3487,2.3336,2.3168,2.3098,2.3116,2.3031,2.2995,2.2882,2.2906,2.3132,2.3248,2.33,2.3564,2.3748,2.38,2.38,2.38,2.38,2.38,2.38,2.38,2.38,2.38,2.38,2.38,2.38,2.38,2.38,2.38,2.38,2.38,2.38,2.38,2.38,2.38,2.38,2.38,2.38,2.38,2.38,2.38,2.38,2.38,2.38,2.38,2.38,2.38,2.38,2.38,2.38,2.38,2.38,2.38,2.38,2.38,2.38,2.38,2.38,2.38,2.38,2.38,2.38,2.38,2.3884,2.3909,2.3957,2.3921,2.3969,2.4017,2.4053,2.4005,2.3957,2.3872,2.3824,2.38,2.38,2.38,2.38,2.38,2.3848,2.3872,2.3824,2.3884,2.4029,2.4113,2.4125,2.4246,2.44,2.4182,2.38,2.38,2.38,2.3884,2.4005,2.4017,2.4032,2.3953,2.3834,2.3736,2.3762,2.3887,2.3948,2.3786,2.3579,2.3305,2.3178,2.3063,2.2854,2.291,2.3012,2.2863,2.2937,2.3012,2.2764,2.2698,2.2674,2.2568,2.2487,2.2363,2.2313,2.2295,2.2259,2.2271,2.2319,2.254,2.2854,2.2972,2.3329,2.3576,2.372,2.38,2.38,2.38,2.38,2.38,2.38,2.38,2.38,2.38,2.38,2.38,2.38,2.38,2.38,2.38,2.38,2.38,2.38,2.38,2.38,2.38,2.38,2.38,2.38,2.38,2.38,2.38,2.38,2.38,2.38,2.38,2.38,2.38,2.38,2.38,2.38,2.38,2.38,2.38,2.38,2.38,2.38,2.38,2.38,2.38,2.38,2.38,2.38,2.38,2.38,2.38,2.38,2.38,2.3872,2.3897,2.386,2.3824,2.38,2.3812,2.3824,2.3812,2.38,2.3872,2.3945,2.3993,2.3993,2.4005,2.4138,2.433,2.4379,2.4403,2.4535,2.4656,2.4504,2.38,2.38,2.3732,2.3732,2.372,2.3652,2.3463,2.3182,2.313,2.2941,2.2815,2.3367,2.3371,2.3251,2.3032,2.2629,2.2423,2.2393,2.2114,2.1983,2.1976,2.2123,2.2112,2.1926,2.1981,2.1912,2.1843,2.1728,2.1593,2.1608,2.1528,2.1143,2.1109,2.1169,2.1243,2.1593,2.2121,2.2553,2.2941,2.3284,2.3532,2.3772,2.38,2.38,2.38,2.38,2.38,2.38,2.38,2.38,2.38,2.38,2.38,2.38,2.38,2.38,2.38,2.38,2.38,2.38,2.38,2.38,2.38,2.38,2.38,2.38,2.38,2.38,2.38,2.38,2.38,2.38,2.38,2.3788,2.3788,2.3788,2.3788,2.38,2.38,2.38,2.38,2.38,2.38,2.38,2.38,2.38,2.38,2.38,2.38,2.38,2.38,2.38,2.38,2.38,2.38,2.38,2.38,2.38,2.3812,2.3824,2.386,2.3921,2.3981,2.4041,2.4101,2.4169,2.4282,2.433,2.4475,2.4578,2.4644,2.468,2.4824,2.4897,2.4812,2.38,2.376,2.3451,2.3319,2.3279,2.297,2.2769,2.2728,2.2688,2.2648,2.2527,2.2648,2.2769,2.2677,2.2487,2.2179,2.1992,2.1867,2.1843,2.1802,2.1545,2.1667,2.1667,2.1411,2.1604,2.149,2.1254,2.1208,2.1019,2.1061,2.114,2.1019,2.1045,2.1148,2.1364,2.1638,2.1889,2.224,2.2487,2.2809,2.305,2.3331,2.376,2.38,2.38,2.38,2.38,2.38,2.38,2.38,2.376,2.376,2.38,2.38,2.38,2.38,2.38,2.38,2.38,2.38,2.38,2.38,2.38,2.38,2.38,2.38,2.38,2.38,2.38,2.38,2.38,2.38,2.38,2.3764,2.3752,2.3752,2.3752,2.3776,2.38,2.38,2.38,2.38,2.38,2.38,2.38,2.38,2.38,2.38,2.38,2.38,2.376,2.38,2.376,2.38,2.38,2.38,2.38,2.38,2.382,2.3836,2.392,2.4113,2.4174,2.4001,2.4203,2.4375,2.4489,2.4395,2.4586,2.4651,2.4825,2.4969,2.5059,2.5023,2.4812]},{"header":{"parameterUnit":"m.s-1","parameterCategory":1,"la1":31.0,"la2":29.5877,"lo1":-88.7671,"lo2":-86.6584,"dx":0.0162,"dy":0.0185,"nx":115,"ny":88,"refTime":"2022-11-24T06:00:00:Z","depth":0,"parameterNumber":3,"parameterNumberName":"V-component_of_WINDS"},"data":[0.0,0.0,0.0,0.0,0.0,0.0,0.0,0.0,0.0,0.0,0.0,0.0,0.0,0.0,0.0,0.0,0.0,0.0,0.0,0.0,0.0,0.0,0.0,0.0,0.0,0.0,0.0,0.0,0.0,0.0,0.0,0.0,0.0,0.0,0.0,0.0,0.0,0.0,0.0,0.0,0.0,0.0,0.0,0.0,0.0,0.0,0.0,0.0,0.0,0.0,0.0,0.0,0.0,0.0,0.0,0.0,0.0,0.0,0.0,0.0,0.0,0.0,0.0,0.0,0.0,0.0,0.0,0.0,0.0,0.0,0.0,0.0,0.0,0.0,0.0,0.0,0.0,0.0,0.0,0.0,0.0,0.0,0.0,0.0,0.0,0.0,0.0,0.0,0.0,0.0,0.0,0.0,0.0,0.0,0.0,0.0,0.0,0.0,0.0,0.0,0.0,0.0,0.0,0.0,0.0,0.0,0.0,0.0,0.0,0.0,0.0,0.0,0.0,0.0,0.0,0.0,0.0,0.0,0.0,0.0,0.0,0.0,0.0,0.0,0.0,0.0,0.0,0.0,0.0,0.0,0.0,0.0,0.0,0.0,0.0,0.0,0.0,0.0,0.0,0.0,0.0,0.0,0.0,0.0,0.0,0.0,0.0,0.0,0.0,0.0,0.0,0.0,0.0,0.0,0.0,0.0,0.0,0.0,0.0,0.0,0.0,0.0,0.0,0.0,0.0,0.0,0.0,0.0,0.0,0.0,0.0,0.0,0.0,0.0,0.0,0.0,0.0,0.0,0.0,0.0,0.0,0.0,0.0,0.0,0.0,0.0,0.0,0.0,0.0,0.0,0.0,0.0,0.0,0.0,0.0,0.0,0.0,0.0,0.0,0.0,0.0,0.0,0.0,0.0,0.0,0.0,0.0,0.0,0.0,0.0,0.0,0.0,0.0,0.0,0.0,0.0,0.0,0.0,0.0,0.0,0.0,0.0,0.0,0.0,0.0,0.0,0.0,0.0,0.0,0.0,0.0,0.0,0.0,0.0,0.0,0.0,0.0,0.0,0.0,0.0,0.0,0.0,0.0,0.0,0.0,0.0,0.0,0.0,0.0,0.0,0.0,0.0,0.0,0.0,0.0,0.0,0.0,0.0,0.0,0.0,0.0,0.0,0.0,0.0,0.0,0.0,0.0,0.0,0.0,0.0,0.0,0.0,0.0,0.0,0.0,0.0,0.0,0.0,0.0,0.0,0.0,0.0,0.0,0.0,0.0,0.0,0.0,0.0,0.0,0.0,0.0,0.0,0.0,0.0,0.0,0.0,0.0,0.0,0.0,0.0,0.0,0.0,0.0,0.0,0.0,0.0,0.0,0.0,0.0,0.0,0.0,0.0,0.0,0.0,0.0,0.0,0.0,0.0,0.0,0.0,0.0,0.0,0.0,0.0,0.0,0.0,0.0,0.0,0.0,0.0,0.0,0.0,0.0,0.0,0.0,0.0,0.0,0.0,0.0,0.0,0.0,0.0,0.0,0.0,0.0,0.0,0.0,0.0,0.0,0.0,0.0,0.0,0.0,0.0,0.0,0.0,0.0,0.0,0.0,0.0,0.0,0.0,0.0,0.0,0.0,0.0,0.0,0.0,0.0,0.0,0.0,0.0,0.0,0.0,0.0,0.0,0.0,0.0,0.0,0.0,0.0,0.0,0.0,0.0,0.0,0.0,0.0,0.0,0.0,0.0,0.0,0.0,0.0,0.0,0.0,0.0,0.0,0.0,0.0,0.0,0.0,0.0,0.0,0.0,0.0,0.0,0.0,0.0,0.0,0.0,0.0,0.0,0.0,0.0,0.0,0.0,0.0,0.0,0.0,0.0,0.0,0.0,0.0,0.0,0.0,0.0,0.0,0.0,0.0,0.0,0.0,0.0,0.0,0.0,0.0,0.0,0.0,0.0,0.0,0.0,0.0,0.0,0.0,0.0,0.0,0.0,0.0,0.0,0.0,0.0,0.0,0.0,0.0,0.0,0.0,0.0,0.0,0.0,0.0,0.0,0.0,0.0,0.0,0.0,0.0,0.0,0.0,0.0,0.0,0.0,0.0,0.0,0.0,0.0,0.0,0.0,0.0,0.0,0.0,0.0,0.0,0.0,0.0,0.0,0.0,0.0,0.0,0.0,0.0,0.0,0.0,0.0,0.0,0.0,0.0,0.0,0.0,0.0,0.0,0.0,0.0,0.0,0.0,0.0,0.0,0.0,0.0,0.0,0.0,0.0,0.0,0.0,0.0,0.0,0.0,0.0,0.0,0.0,0.0,0.0,0.0,0.0,0.0,0.0,0.0,0.0,0.0,0.0,0.0,0.0,0.0,0.0,0.0,0.0,0.0,0.0,0.0,0.0,0.0,0.0,0.0,0.0,0.0,0.0,0.0,0.0,0.0,0.0,0.0,0.0,0.0,0.0,0.0,0.0,0.0,0.0,0.0,0.0,0.0,0.0,0.0,0.0,0.0,0.0,0.0,0.0,0.0,0.0,0.0,0.0,0.0,0.0,0.0,0.0,0.0,0.0,0.0,0.0,0.0,0.0,0.0,0.0,0.0,0.0,0.0,0.0,0.0,0.0,0.0,0.0,0.0,0.0,0.0,0.0,0.0,0.0,0.0,0.0,0.0,0.0,0.0,0.0,0.0,0.0,0.0,0.0,0.0,0.0,0.0,0.0,0.0,0.0,0.0,0.0,0.0,0.0,0.0,0.0,0.0,0.0,0.0,0.0,0.0,0.0,0.0,0.0,0.0,0.0,0.0,0.0,0.0,0.0,0.0,0.0,0.0,0.0,0.0,0.0,0.0,0.0,0.0,0.0,0.0,0.0,0.0,0.0,0.0,0.0,0.0,0.0,0.0,0.0,0.0,0.0,0.0,0.0,0.0,0.0,0.0,0.0,0.0,0.0,0.0,0.0,0.0,0.0,0.0,0.0,0.0,0.0,0.0,0.0,0.0,0.0,0.0,0.0,0.0,0.0,0.0,0.0,0.0,0.0,0.0,0.0,0.0,0.0,0.0,0.0,0.0,0.0,0.0,0.0,0.0,0.0,0.0,0.0,0.0,0.0,0.0,0.0,0.0,0.0,0.0,0.0,0.0,0.0,0.0,0.0,0.0,0.0,0.0,0.0,0.0,0.0,0.0,0.0,0.0,0.0,0.0,0.0,0.0,0.0,0.0,0.0,0.0,0.0,0.0,0.0,0.0,0.0,0.0,0.0,0.0,0.0,0.0,0.0,0.0,0.0,0.0,0.0,0.0,0.0,0.0,0.0,0.0,0.0,0.0,0.0,0.0,0.0,0.0,0.0,0.0,0.0,0.0,0.0,0.0,0.0,0.0,0.0,0.0,0.0,0.0,0.0,0.0,0.0,0.0,0.0,0.0,0.0,0.0,0.0,0.0,0.0,0.0,0.0,0.0,0.0,0.0,0.0,0.0,0.0,0.0,0.0,0.0,0.0,0.0,0.0,0.0,0.0,0.0,0.0,0.0,0.0,0.0,0.0,0.0,0.0,0.0,0.0,0.0,0.0,0.0,0.0,0.0,0.0,0.0,0.0,0.0,0.0,0.0,0.0,0.0,0.0,0.0,0.0,0.0,0.0,0.0,0.0,0.0,0.0,0.0,0.0,0.0,0.0,0.0,0.0,0.0,0.0,0.0,0.0,0.0,0.0,0.0,0.0,0.0,0.0,0.0,0.0,0.0,0.0,0.0,0.0,0.0,0.0,0.0,0.0,0.0,0.0,0.0,0.0,0.0,0.0,0.0,0.0,0.0,0.0,0.0,0.0,0.0,0.0,0.0,0.0,0.0,0.0,0.0,0.0,0.0,0.0,0.0,0.0,0.0,0.0,0.0,0.0,0.0,0.0,0.0,0.0,0.0,0.0,0.0,0.0,0.0,0.0,0.0,0.0,0.0,0.0,0.0,0.0,0.0,0.0,0.0,0.0,0.0,0.0,0.0,0.0,0.0,0.0,0.0,0.0,0.0,0.0,0.0,0.0,0.0,0.0,0.0,0.0,0.0,0.0,0.0,0.0,0.0,0.0,0.0,0.0,0.0,0.0,0.0,0.0,0.0,0.0,0.0,0.0,0.0,0.0,0.0,0.0,0.0,0.0,0.0,0.0,0.0,0.0,0.0,0.0,0.0,0.0,0.0,0.0,0.0,0.0,0.0,0.0,0.0,0.0,0.0,0.0,0.0,0.0,0.0,0.0,0.0,0.0,0.0,0.0,0.0,0.0,1.562,0.0,0.0,0.0,1.5782,0.0,0.0,0.0,0.0,0.0,0.0,0.0,0.0,0.0,0.0,0.0,0.0,0.0,0.0,0.0,0.0,0.0,0.0,0.0,0.0,0.0,0.0,0.0,0.0,0.0,0.0,0.0,0.0,0.0,0.0,0.0,0.0,0.0,0.0,0.0,0.0,0.0,0.0,0.0,0.0,0.0,0.0,0.0,0.0,0.0,0.0,0.0,0.0,0.0,0.0,0.0,0.0,0.0,0.0,0.0,0.0,0.0,0.0,0.0,0.0,0.0,0.0,0.0,0.0,0.0,0.0,0.0,0.0,0.0,0.0,0.0,0.0,0.0,0.0,0.0,0.0,0.0,0.0,0.0,0.0,0.0,0.0,0.0,0.0,0.0,0.0,0.0,0.0,0.0,0.0,0.0,0.0,0.0,0.0,0.0,0.0,0.0,0.0,0.0,0.0,0.0,0.0,0.0,0.0,0.0,0.0,0.0,0.0,0.0,0.0,1.5828,1.6266,1.6316,1.6571,1.7032,0.0,0.0,0.0,0.0,0.0,0.0,0.0,0.0,0.0,0.0,0.0,0.0,0.0,0.0,0.0,0.0,0.0,0.0,0.0,0.0,0.0,0.0,0.0,0.0,0.0,0.0,0.0,0.0,0.0,0.0,0.0,0.0,0.0,0.0,0.0,0.0,0.0,0.0,0.0,0.0,0.0,0.0,0.0,0.0,0.0,0.0,0.0,0.0,0.0,0.0,0.0,0.0,0.0,0.0,0.0,0.0,0.0,0.0,0.0,0.0,0.0,0.0,0.0,0.0,0.0,0.0,0.0,0.0,0.0,0.0,0.0,0.0,0.0,0.0,0.0,0.0,0.0,0.0,0.0,0.0,0.0,0.0,0.0,0.0,0.0,0.0,0.0,0.0,0.0,0.0,0.0,0.0,0.0,0.0,0.0,0.0,0.0,0.0,0.0,0.0,0.0,0.0,0.0,0.0,0.0,0.0,0.0,0.0,0.0,0.0,0.0,0.0,1.7038,1.7471,1.8084,0.0,0.0,0.0,0.0,0.0,0.0,0.0,0.0,0.0,0.0,0.0,0.0,0.0,0.0,0.0,0.0,0.0,0.0,0.0,0.0,0.0,0.0,0.0,0.0,0.0,0.0,0.0,0.0,0.0,0.0,0.0,0.0,0.0,0.0,0.0,0.0,0.0,0.0,0.0,0.0,0.0,0.0,0.0,0.0,0.0,0.0,0.0,0.0,0.0,0.0,0.0,0.0,0.0,0.0,0.0,0.0,0.0,0.0,0.0,0.0,0.0,0.0,0.0,0.0,0.0,0.0,0.0,0.0,0.0,0.0,0.0,0.0,0.0,0.0,0.0,0.0,0.0,0.0,0.0,0.0,0.0,0.0,0.0,0.0,0.0,0.0,0.0,0.0,0.0,0.0,0.0,0.0,0.0,0.0,0.0,0.0,0.0,0.0,0.0,0.0,0.0,0.0,0.0,0.0,0.0,0.0,0.0,0.0,0.0,0.0,1.6002,1.68,1.7529,0.0,1.8184,0.0,0.0,0.0,0.0,0.0,0.0,0.0,0.0,0.0,0.0,0.0,0.0,0.0,0.0,0.0,0.0,0.0,0.0,0.0,0.0,0.0,0.0,0.0,0.0,0.0,0.0,0.0,0.0,0.0,0.0,0.0,0.0,0.0,0.0,0.0,0.0,0.0,0.0,0.0,0.0,0.0,0.0,0.0,0.0,0.0,0.0,0.0,0.0,0.0,0.0,0.0,0.0,0.0,0.0,0.0,0.0,0.0,0.0,0.0,0.0,0.0,0.0,0.0,0.0,0.0,0.0,0.0,0.0,0.0,0.0,0.0,0.0,0.0,0.0,0.0,0.0,0.0,0.0,0.0,0.0,0.0,0.0,0.0,0.0,0.0,0.0,0.0,0.0,0.0,0.0,0.0,0.0,0.0,0.0,0.0,0.0,0.0,0.0,0.0,0.0,0.0,0.0,0.0,0.0,0.0,0.0,0.0,0.0,0.0,0.0,1.6186,1.7348,1.7774,1.8054,0.0,0.0,0.0,0.0,0.0,0.0,0.0,0.0,0.0,0.0,0.0,0.0,0.0,0.0,0.0,0.0,0.0,0.0,0.0,0.0,0.0,0.0,0.0,0.0,0.0,0.0,0.0,0.0,0.0,0.0,0.0,0.0,0.0,0.0,0.0,0.0,0.0,0.0,0.0,0.0,0.0,0.0,0.0,0.0,0.0,0.0,0.0,0.0,0.0,0.0,0.0,0.0,0.0,0.0,0.0,0.0,0.0,0.0,0.0,0.0,0.0,0.0,0.0,0.0,0.0,0.0,0.0,0.0,0.0,0.0,0.0,0.0,0.0,0.0,0.0,0.0,0.0,0.0,0.0,0.0,0.0,0.0,0.0,0.0,0.0,0.0,0.0,0.0,0.0,0.0,0.0,0.0,0.0,0.0,0.0,0.0,0.0,0.0,0.0,0.0,0.0,0.0,0.0,0.0,0.0,0.0,0.0,0.0,0.0,0.0,1.5803,1.6519,1.7776,1.795,1.8082,1.8195,0.0,0.0,0.0,0.0,0.0,0.0,0.0,0.0,0.0,0.0,0.0,0.0,0.0,0.0,0.0,0.0,0.0,0.0,0.0,0.0,0.0,0.0,0.0,0.0,0.0,0.0,0.0,0.0,0.0,0.0,0.0,0.0,0.0,0.0,0.0,0.0,0.0,0.0,0.0,0.0,0.0,0.0,0.0,0.0,0.0,0.0,0.0,0.0,0.0,0.0,0.0,0.0,0.0,0.0,0.0,0.0,0.0,0.0,0.0,0.0,0.0,0.0,0.0,0.0,0.0,0.0,0.0,0.0,0.0,0.0,0.0,0.0,0.0,0.0,0.0,0.0,0.0,0.0,0.0,0.0,0.0,0.0,0.0,0.0,0.0,0.0,0.0,0.0,0.0,0.0,0.0,0.0,0.0,0.0,0.0,0.0,0.0,0.0,0.0,0.0,0.0,0.0,0.0,0.0,0.0,0.0,0.0,0.0,1.5566,1.6287,1.708,1.7949,1.7994,1.8048,0.0,0.0,0.0,0.0,0.0,0.0,0.0,0.0,0.0,0.0,0.0,0.0,0.0,0.0,0.0,0.0,0.0,0.0,0.0,0.0,0.0,0.0,0.0,0.0,0.0,0.0,0.0,0.0,0.0,0.0,0.0,0.0,0.0,0.0,0.0,0.0,0.0,0.0,0.0,0.0,0.0,0.0,0.0,0.0,0.0,0.0,0.0,0.0,0.0,0.0,0.0,0.0,0.0,0.0,0.0,0.0,0.0,0.0,0.0,0.0,0.0,0.0,0.0,0.0,0.0,0.0,0.0,0.0,0.0,0.0,0.0,0.0,0.0,0.0,0.0,0.0,0.0,0.0,0.0,0.0,0.0,0.0,0.0,0.0,0.0,0.0,0.0,0.0,0.0,0.0,0.0,0.0,0.0,0.0,0.0,0.0,0.0,0.0,0.0,0.0,0.0,0.0,0.0,0.0,0.0,0.0,0.0,0.0,0.0,1.5678,1.679,1.7618,1.7988,1.7994,1.8048,0.0,0.0,0.0,0.0,0.0,0.0,0.0,0.0,0.0,0.0,0.0,0.0,0.0,0.0,0.0,0.0,0.0,0.0,0.0,0.0,0.0,0.0,0.0,0.0,0.0,0.0,0.0,0.0,0.0,0.0,0.0,0.0,0.0,0.0,0.0,0.0,0.0,0.0,0.0,0.0,0.0,0.0,0.0,0.0,0.0,0.0,0.0,0.0,0.0,0.0,0.0,0.0,0.0,0.0,0.0,0.0,0.0,0.0,0.0,0.0,0.0,0.0,0.0,0.0,0.0,0.0,0.0,0.0,0.0,0.0,0.0,0.0,0.0,0.0,0.0,0.0,0.0,0.0,0.0,0.0,0.0,0.0,0.0,0.0,0.0,0.0,0.0,0.0,0.0,0.0,0.0,0.0,0.0,0.0,0.0,0.0,0.0,0.0,0.0,0.0,0.0,0.0,0.0,0.0,0.0,0.0,0.0,0.0,0.0,1.6696,1.7901,1.8573,1.8677,1.8461,1.8419,0.0,0.0,0.0,0.0,0.0,0.0,0.0,0.0,0.0,0.0,0.0,0.0,0.0,0.0,0.0,0.0,0.0,0.0,0.0,0.0,0.0,0.0,0.0,0.0,0.0,0.0,0.0,0.0,0.0,0.0,0.0,0.0,0.0,0.0,0.0,0.0,0.0,0.0,0.0,0.0,0.0,0.0,0.0,0.0,0.0,0.0,0.0,0.0,0.0,0.0,0.0,0.0,0.0,0.0,0.0,0.0,0.0,0.0,0.0,0.0,0.0,0.0,0.0,0.0,0.0,0.0,0.0,0.0,0.0,0.0,0.0,0.0,0.0,0.0,0.0,0.0,0.0,0.0,0.0,0.0,0.0,0.0,0.0,0.0,0.0,0.0,0.0,0.0,0.0,0.0,0.0,0.0,0.0,0.0,0.0,0.0,0.0,0.0,0.0,0.0,0.0,0.0,0.0,0.0,0.0,0.0,0.0,0.0,1.6795,1.8775,1.9575,1.9938,2.0074,1.9438,1.9115,0.0,0.0,0.0,0.0,0.0,0.0,0.0,0.0,0.0,0.0,0.0,0.0,0.0,0.0,0.0,0.0,0.0,0.0,0.0,0.0,0.0,0.0,0.0,0.0,0.0,0.0,0.0,0.0,0.0,0.0,0.0,0.0,0.0,0.0,0.0,0.0,0.0,0.0,0.0,0.0,0.0,0.0,0.0,0.0,0.0,0.0,0.0,0.0,0.0,0.0,0.0,0.0,0.0,0.0,0.0,0.0,0.0,0.0,0.0,0.0,0.0,0.0,0.0,0.0,0.0,0.0,0.0,0.0,0.0,0.0,0.0,0.0,0.0,0.0,0.0,0.0,0.0,0.0,0.0,0.0,0.0,0.0,0.0,0.0,0.0,0.0,0.0,0.0,0.0,0.0,0.0,0.0,0.0,0.0,0.0,0.0,0.0,0.0,0.0,0.0,0.0,0.0,0.0,0.0,0.0,0.0,0.0,0.0,0.0,1.9642,1.9873,2.0039,2.0081,1.9944,1.9663,0.0,0.0,0.0,0.0,0.0,0.0,0.0,0.0,0.0,0.0,0.0,0.0,0.0,0.0,0.0,0.0,0.0,0.0,0.0,0.0,0.0,0.0,0.0,0.0,0.0,0.0,0.0,0.0,0.0,0.0,0.0,0.0,0.0,0.0,0.0,0.0,0.0,0.0,0.0,0.0,0.0,0.0,0.0,0.0,0.0,0.0,0.0,0.0,0.0,0.0,0.0,0.0,0.0,0.0,0.0,0.0,0.0,0.0,0.0,0.0,0.0,0.0,0.0,0.0,0.0,0.0,0.0,0.0,0.0,0.0,0.0,0.0,0.0,0.0,0.0,0.0,0.0,0.0,0.0,0.0,0.0,0.0,0.0,0.0,0.0,0.0,0.0,0.0,0.0,0.0,0.0,0.0,0.0,0.0,0.0,0.0,0.0,0.0,0.0,0.0,0.0,0.0,0.0,0.0,0.0,0.0,0.0,0.0,0.0,2.202,2.1784,2.1677,2.1732,2.1209,2.0654,1.997,0.0,0.0,0.0,0.0,0.0,0.0,0.0,0.0,0.0,0.0,0.0,0.0,0.0,0.0,0.0,0.0,0.0,0.0,0.0,0.0,0.0,0.0,0.0,0.0,0.0,0.0,0.0,0.0,0.0,0.0,0.0,0.0,0.0,0.0,0.0,0.0,0.0,0.0,0.0,0.0,0.0,0.0,0.0,0.0,0.0,0.0,0.0,0.0,0.0,0.0,0.0,0.0,0.0,0.0,0.0,0.0,0.0,0.0,0.0,0.0,0.0,0.0,0.0,0.0,0.0,0.0,0.0,0.0,0.0,0.0,0.0,0.0,0.0,0.0,0.0,0.0,0.0,0.0,0.0,0.0,0.0,0.0,0.0,0.0,0.0,0.0,0.0,0.0,0.0,0.0,0.0,0.0,0.0,0.0,0.0,0.0,0.0,0.0,0.0,0.0,0.0,0.0,0.0,0.0,0.0,0.0,0.0,0.0,2.5505,2.4942,2.4538,2.4378,2.31,2.2084,0.0,0.0,0.0,0.0,0.0,0.0,0.0,0.0,0.0,0.0,0.0,0.0,0.0,0.0,0.0,0.0,0.0,0.0,0.0,0.0,0.0,0.0,0.0,0.0,0.0,0.0,0.0,0.0,0.0,0.0,0.0,0.0,0.0,0.0,0.0,0.0,0.0,0.0,0.0,0.0,0.0,0.0,0.0,0.0,0.0,0.0,0.0,0.0,0.0,0.0,0.0,0.0,0.0,0.0,0.0,0.0,0.0,0.0,0.0,0.0,0.0,0.0,0.0,0.0,0.0,0.0,0.0,0.0,0.0,0.0,0.0,0.0,0.0,0.0,0.0,0.0,0.0,0.0,0.0,0.0,0.0,0.0,0.0,0.0,0.0,0.0,0.0,0.0,0.0,0.0,0.0,0.0,0.0,0.0,0.0,0.0,0.0,0.0,0.0,0.0,0.0,0.0,0.0,0.0,0.0,0.0,0.0,0.0,0.0,2.6109,2.6968,2.6683,2.5146,2.4839,2.3876,0.0,0.0,0.0,0.0,0.0,0.0,0.0,0.0,0.0,0.0,0.0,0.0,0.0,0.0,0.0,0.0,0.0,0.0,0.0,0.0,0.0,0.0,0.0,0.0,0.0,0.0,0.0,0.0,0.0,0.0,0.0,0.0,0.0,0.0,0.0,0.0,0.0,0.0,0.0,0.0,0.0,0.0,0.0,0.0,0.0,0.0,0.0,0.0,0.0,0.0,0.0,0.0,0.0,0.0,0.0,0.0,0.0,0.0,0.0,0.0,0.0,0.0,0.0,0.0,0.0,0.0,0.0,0.0,0.0,0.0,0.0,0.0,0.0,0.0,0.0,0.0,0.0,0.0,0.0,0.0,0.0,0.0,0.0,0.0,0.0,0.0,0.0,0.0,0.0,0.0,0.0,0.0,0.0,0.0,0.0,0.0,0.0,0.0,0.0,0.0,0.0,0.0,0.0,0.0,0.0,0.0,0.0,0.0,2.6554,2.8232,2.9266,2.9065,2.7517,2.6469,2.5065,0.0,0.0,0.0,0.0,0.0,0.0,0.0,0.0,0.0,0.0,0.0,0.0,0.0,0.0,0.0,0.0,0.0,0.0,0.0,0.0,0.0,0.0,0.0,0.0,0.0,0.0,0.0,0.0,0.0,0.0,0.0,0.0,0.0,0.0,0.0,0.0,0.0,0.0,0.0,0.0,0.0,0.0,0.0,0.0,0.0,0.0,0.0,0.0,0.0,0.0,0.0,0.0,0.0,0.0,0.0,0.0,0.0,0.0,0.0,0.0,0.0,0.0,0.0,0.0,0.0,0.0,0.0,0.0,0.0,0.0,0.0,0.0,0.0,0.0,0.0,0.0,0.0,0.0,0.0,0.0,0.0,0.0,0.0,0.0,0.0,0.0,0.0,0.0,0.0,0.0,0.0,0.0,0.0,0.0,0.0,0.0,0.0,0.0,0.0,0.0,0.0,0.0,0.0,0.0,0.0,0.0,0.0,0.0,2.8723,3.0764,3.139,3.1394,3.0698,2.8129,2.605,0.0,0.0,0.0,0.0,0.0,0.0,0.0,0.0,0.0,0.0,0.0,0.0,0.0,0.0,0.0,0.0,0.0,0.0,0.0,0.0,0.0,0.0,0.0,0.0,0.0,0.0,0.0,0.0,0.0,0.0,0.0,0.0,0.0,0.0,0.0,0.0,0.0,0.0,0.0,0.0,0.0,0.0,0.0,0.0,0.0,0.0,0.0,0.0,0.0,0.0,0.0,0.0,0.0,0.0,0.0,0.0,0.0,0.0,0.0,0.0,0.0,0.0,0.0,0.0,0.0,0.0,0.0,0.0,0.0,0.0,0.0,0.0,0.0,0.0,0.0,0.0,0.0,0.0,0.0,0.0,0.0,0.0,0.0,0.0,0.0,0.0,0.0,0.0,0.0,0.0,0.0,0.0,0.0,0.0,0.0,0.0,0.0,0.0,0.0,0.0,0.0,0.0,0.0,0.0,0.0,0.0,0.0,0.0,2.9168,3.0764,3.191,3.2409,3.221,3.0139,2.78,0.0,0.0,0.0,0.0,0.0,0.0,0.0,0.0,0.0,0.0,0.0,0.0,0.0,0.0,0.0,0.0,0.0,0.0,0.0,0.0,0.0,0.0,0.0,0.0,0.0,0.0,0.0,0.0,0.0,0.0,0.0,0.0,0.0,0.0,0.0,0.0,0.0,0.0,0.0,0.0,0.0,0.0,0.0,0.0,0.0,0.0,0.0,0.0,1.8984,0.0,0.0,0.0,0.0,0.0,0.0,0.0,0.0,0.0,0.0,0.0,0.0,0.0,0.0,0.0,0.0,0.0,0.0,0.0,0.0,0.0,0.0,0.0,0.0,0.0,0.0,0.0,0.0,0.0,0.0,0.0,0.0,0.0,0.0,0.0,0.0,0.0,0.0,0.0,0.0,0.0,0.0,0.0,0.0,0.0,0.0,0.0,0.0,0.0,0.0,0.0,0.0,0.0,0.0,0.0,0.0,0.0,0.0,0.0,3.0697,3.2815,3.3439,3.3769,3.376,3.1816,2.9513,0.0,0.0,0.0,0.0,0.0,0.0,0.0,0.0,0.0,0.0,0.0,0.0,0.0,0.0,0.0,0.0,0.0,0.0,0.0,0.0,0.0,0.0,0.0,0.0,0.0,0.0,0.0,0.0,0.0,0.0,0.0,0.0,0.0,0.0,0.0,0.0,0.0,0.0,0.0,0.0,0.0,0.0,0.0,0.0,0.0,0.0,0.0,0.0,0.0,0.0,0.0,0.0,0.0,0.0,0.0,0.0,0.0,0.0,0.0,0.0,0.0,0.0,0.0,0.0,0.0,0.0,0.0,0.0,0.0,0.0,0.0,0.0,0.0,0.0,0.0,0.0,0.0,0.0,0.0,0.0,0.0,0.0,0.0,0.0,0.0,0.0,0.0,0.0,0.0,0.0,0.0,0.0,0.0,0.0,0.0,0.0,0.0,0.0,0.0,0.0,0.0,0.0,0.0,0.0,0.0,0.0,0.0,3.0167,3.2468,3.509,3.5293,3.53,3.5273,3.3317,3.1219,2.903,0.0,0.0,0.0,0.0,0.0,0.0,0.0,0.0,0.0,0.0,0.0,0.0,0.0,0.0,0.0,0.0,0.0,0.0,0.0,0.0,0.0,0.0,0.0,0.0,0.0,0.0,0.0,0.0,0.0,0.0,0.0,0.0,0.0,0.0,0.0,0.0,0.0,0.0,1.6957,1.9246,0.0,0.0,0.0,0.0,0.0,0.0,0.0,0.0,2.0798,0.0,0.0,0.0,0.0,0.0,0.0,0.0,0.0,0.0,0.0,0.0,0.0,0.0,0.0,0.0,0.0,0.0,0.0,0.0,0.0,0.0,0.0,0.0,0.0,0.0,0.0,0.0,0.0,0.0,0.0,0.0,0.0,0.0,0.0,0.0,0.0,0.0,0.0,0.0,0.0,0.0,0.0,0.0,0.0,0.0,0.0,0.0,0.0,0.0,0.0,0.0,0.0,0.0,0.0,0.0,0.0,2.8987,3.1503,3.3648,3.5407,3.652,3.6795,3.6195,3.4712,3.2906,3.0721,0.0,0.0,0.0,0.0,0.0,0.0,0.0,0.0,0.0,0.0,0.0,0.0,0.0,0.0,0.0,0.0,0.0,0.0,0.0,0.0,0.0,0.0,0.0,0.0,0.0,0.0,0.0,0.0,0.0,0.0,0.0,0.0,0.0,0.0,0.0,0.0,0.0,0.0,0.0,2.0162,2.1213,0.0,0.0,0.0,0.0,0.0,0.0,0.0,0.0,2.2491,0.0,0.0,0.0,0.0,0.0,0.0,0.0,0.0,0.0,0.0,0.0,0.0,0.0,0.0,0.0,0.0,0.0,0.0,0.0,0.0,0.0,0.0,0.0,0.0,0.0,0.0,0.0,0.0,0.0,0.0,0.0,0.0,0.0,0.0,0.0,0.0,0.0,0.0,0.0,0.0,0.0,0.0,0.0,0.0,0.0,0.0,0.0,0.0,0.0,0.0,0.0,0.0,0.0,0.0,0.0,2.966,3.2029,3.4319,3.6552,3.7205,3.7382,3.7052,3.5329,3.3391,0.0,0.0,0.0,0.0,0.0,0.0,0.0,0.0,0.0,0.0,0.0,0.0,0.0,0.0,0.0,0.0,0.0,0.0,0.0,0.0,0.0,0.0,0.0,0.0,0.0,0.0,0.0,0.0,0.0,0.0,0.0,0.0,0.0,0.0,0.0,0.0,0.0,0.0,0.0,0.0,2.1682,2.2955,2.4006,0.0,0.0,0.0,0.0,0.0,0.0,2.4265,2.3787,0.0,0.0,0.0,0.0,0.0,0.0,0.0,0.0,0.0,0.0,0.0,0.0,0.0,0.0,0.0,0.0,0.0,0.0,0.0,0.0,0.0,0.0,0.0,0.0,0.0,0.0,0.0,0.0,0.0,0.0,0.0,0.0,0.0,0.0,0.0,0.0,0.0,0.0,0.0,0.0,0.0,0.0,0.0,0.0,0.0,0.0,0.0,0.0,0.0,0.0,0.0,0.0,0.0,0.0,0.0,3.0491,3.2666,3.5026,3.7634,3.7953,3.7987,3.7735,3.5836,3.3752,0.0,0.0,0.0,0.0,0.0,0.0,0.0,0.0,0.0,0.0,0.0,0.0,0.0,0.0,0.0,0.0,0.0,0.0,0.0,0.0,0.0,0.0,0.0,0.0,0.0,0.0,0.0,0.0,0.0,0.0,0.0,0.0,0.0,0.0,0.0,0.0,0.0,0.0,0.0,0.0,0.0,2.4785,2.581,2.6471,0.0,0.0,0.0,0.0,2.6254,2.5745,0.0,0.0,0.0,0.0,0.0,0.0,0.0,0.0,0.0,0.0,0.0,0.0,0.0,0.0,0.0,0.0,0.0,0.0,0.0,0.0,0.0,0.0,0.0,0.0,0.0,0.0,0.0,0.0,0.0,0.0,0.0,0.0,0.0,0.0,0.0,0.0,0.0,0.0,0.0,0.0,0.0,0.0,0.0,0.0,0.0,0.0,0.0,0.0,0.0,0.0,0.0,0.0,0.0,0.0,0.0,0.0,3.1355,3.4119,3.6299,3.7929,3.9287,3.9331,3.7995,3.6581,3.4493,0.0,0.0,0.0,0.0,0.0,0.0,0.0,0.0,0.0,0.0,0.0,0.0,0.0,0.0,0.0,0.0,0.0,0.0,0.0,0.0,0.0,0.0,0.0,0.0,0.0,0.0,0.0,0.0,0.0,0.0,0.0,0.0,0.0,0.0,0.0,0.0,0.0,0.0,0.0,0.0,0.0,2.5896,2.786,2.8233,2.8598,0.0,0.0,2.9157,2.8541,2.8347,0.0,0.0,0.0,0.0,0.0,0.0,0.0,0.0,0.0,0.0,0.0,0.0,0.0,0.0,0.0,0.0,0.0,0.0,0.0,0.0,0.0,0.0,0.0,0.0,0.0,0.0,0.0,0.0,0.0,0.0,0.0,0.0,0.0,0.0,0.0,0.0,0.0,0.0,0.0,0.0,0.0,0.0,0.0,0.0,0.0,0.0,0.0,0.0,0.0,0.0,0.0,0.0,0.0,0.0,0.0,2.8913,3.2225,3.5077,3.7456,3.9354,4.0071,4.0105,3.9445,3.7684,3.534,0.0,0.0,0.0,0.0,0.0,0.0,0.0,0.0,0.0,0.0,0.0,0.0,0.0,0.0,0.0,0.0,0.0,0.0,0.0,0.0,0.0,0.0,0.0,0.0,0.0,0.0,0.0,0.0,0.0,0.0,0.0,0.0,0.0,0.0,0.0,0.0,0.0,0.0,0.0,0.0,0.0,0.0,2.906,2.9996,0.0,0.0,0.0,3.0993,3.0769,0.0,0.0,0.0,0.0,0.0,0.0,0.0,0.0,0.0,0.0,0.0,0.0,0.0,0.0,0.0,0.0,0.0,0.0,0.0,0.0,0.0,0.0,0.0,0.0,0.0,0.0,0.0,0.0,0.0,0.0,0.0,0.0,0.0,0.0,0.0,0.0,0.0,0.0,0.0,0.0,0.0,0.0,0.0,0.0,0.0,0.0,0.0,0.0,0.0,0.0,0.0,0.0,0.0,0.0,0.0,0.0,0.0,3.2788,3.5685,3.8265,4.0444,4.0764,4.0752,4.0524,3.8666,0.0,0.0,0.0,0.0,0.0,0.0,0.0,0.0,0.0,0.0,0.0,0.0,0.0,0.0,0.0,0.0,0.0,0.0,0.0,0.0,0.0,0.0,0.0,0.0,0.0,0.0,0.0,1.3697,0.0,0.0,0.0,0.0,0.0,0.0,0.0,0.0,0.0,0.0,0.0,0.0,0.0,0.0,2.893,3.069,3.1869,3.2691,0.0,0.0,3.3067,3.2804,3.1838,3.0936,0.0,0.0,0.0,0.0,0.0,0.0,0.0,0.0,0.0,0.0,0.0,0.0,0.0,0.0,0.0,0.0,0.0,0.0,0.0,0.0,0.0,0.0,0.0,0.0,0.0,0.0,0.0,0.0,0.0,0.0,0.0,0.0,0.0,0.0,0.0,0.0,0.0,0.0,0.0,0.0,0.0,0.0,0.0,0.0,0.0,0.0,0.0,0.0,0.0,0.0,0.0,0.0,0.0,0.0,2.9886,3.2884,3.5802,3.8425,4.0633,4.1354,4.1388,4.0667,3.9284,3.7111,0.0,0.0,0.0,0.0,0.0,0.0,0.0,0.0,0.0,0.0,0.0,0.0,0.0,0.0,0.0,0.0,0.0,0.0,0.0,0.0,0.0,0.0,0.0,0.0,0.0,0.0,0.0,0.0,0.0,0.0,0.0,0.0,0.0,0.0,0.0,0.0,0.0,0.0,0.0,0.0,0.0,3.0755,3.3465,3.4018,3.4626,0.0,3.6306,3.5893,3.4562,3.4255,3.3343,3.0899,0.0,0.0,0.0,0.0,0.0,0.0,0.0,0.0,0.0,0.0,0.0,0.0,0.0,0.0,0.0,0.0,0.0,0.0,0.0,0.0,0.0,0.0,0.0,0.0,0.0,0.0,0.0,0.0,0.0,0.0,0.0,0.0,0.0,0.0,0.0,0.0,0.0,0.0,0.0,0.0,0.0,0.0,0.0,0.0,0.0,0.0,0.0,0.0,0.0,0.0,0.0,0.0,0.0,3.1292,3.4283,3.7275,3.9904,4.2132,4.2499,4.2533,4.2258,4.079,3.8571,0.0,0.0,0.0,0.0,0.0,0.0,0.0,0.0,0.0,0.0,0.0,0.0,0.0,0.0,0.0,0.0,0.0,0.0,0.0,0.0,0.0,0.0,0.0,0.0,0.0,0.0,0.0,0.0,1.8443,1.9117,1.9043,0.0,0.0,0.0,0.0,0.0,0.0,0.0,0.0,0.0,0.0,3.2143,3.4088,3.5183,0.0,0.0,3.6679,3.6573,3.6191,3.5312,3.4459,3.3584,3.1727,0.0,0.0,0.0,0.0,0.0,0.0,0.0,0.0,0.0,0.0,0.0,0.0,0.0,0.0,0.0,0.0,0.0,0.0,0.0,0.0,0.0,0.0,0.0,0.0,0.0,0.0,0.0,0.0,0.0,0.0,0.0,0.0,0.0,0.0,0.0,0.0,0.0,0.0,0.0,0.0,0.0,0.0,0.0,0.0,0.0,0.0,0.0,0.0,0.0,0.0,0.0,0.0,3.2396,3.518,3.8387,4.1055,4.3172,4.3414,4.3517,4.3495,4.2033,3.9986,0.0,0.0,0.0,0.0,0.0,0.0,0.0,0.0,0.0,0.0,0.0,0.0,0.0,0.0,0.0,0.0,0.0,0.0,0.0,0.0,0.0,0.0,0.0,0.0,0.0,0.0,0.0,0.0,1.9889,2.0392,2.0328,0.0,0.0,0.0,0.0,0.0,0.0,0.0,0.0,0.0,0.0,3.3702,3.562,3.6808,3.765,3.8117,3.8236,3.8176,3.7939,3.6987,3.6183,3.5761,0.0,0.0,0.0,0.0,0.0,0.0,0.0,0.0,0.0,0.0,0.0,0.0,0.0,0.0,0.0,0.0,0.0,0.0,0.0,0.0,0.0,0.0,0.0,0.0,0.0,0.0,0.0,2.0291,0.0,0.0,1.8235,0.0,0.0,0.0,0.0,0.0,0.0,0.0,0.0,0.0,0.0,0.0,0.0,0.0,0.0,0.0,0.0,0.0,0.0,0.0,0.0,0.0,0.0,3.2948,3.5214,3.8985,4.1654,4.3207,4.3931,4.4311,4.4242,4.278,4.1262,3.9641,0.0,0.0,0.0,0.0,0.0,0.0,0.0,0.0,0.0,0.0,0.0,0.0,0.0,0.0,0.0,0.0,0.0,0.0,0.0,0.0,0.0,0.0,0.0,0.0,0.0,0.0,2.1271,2.1404,2.1408,0.0,0.0,0.0,0.0,0.0,0.0,0.0,0.0,0.0,0.0,3.3559,3.5575,3.8539,3.9135,3.9787,4.1286,4.1624,4.1251,3.9858,3.9603,3.8937,0.0,0.0,0.0,0.0,0.0,0.0,0.0,0.0,0.0,0.0,0.0,0.0,0.0,0.0,0.0,0.0,0.0,0.0,0.0,0.0,0.0,0.0,0.0,0.0,0.0,0.0,0.0,2.4178,2.3474,0.0,0.0,0.0,0.0,0.0,0.0,0.0,0.0,0.0,0.0,0.0,3.3593,3.2913,0.0,0.0,0.0,0.0,0.0,0.0,0.0,0.0,0.0,0.0,0.0,0.0,3.4707,3.7467,4.0227,4.2608,4.463,4.5423,4.5561,4.5031,4.4514,4.2824,3.9767,0.0,0.0,0.0,0.0,0.0,0.0,0.0,0.0,0.0,0.0,0.0,0.0,0.0,0.0,0.0,0.0,0.0,0.0,0.0,0.0,0.0,0.0,0.0,0.0,0.0,2.2047,0.0,0.0,0.0,0.0,0.0,0.0,0.0,0.0,0.0,0.0,0.0,3.1062,3.3972,3.6013,3.7969,3.9954,4.0681,4.1223,0.0,0.0,0.0,0.0,0.0,0.0,0.0,0.0,0.0,0.0,0.0,0.0,0.0,0.0,3.3658,3.1562,3.0988,3.0925,3.1121,0.0,0.0,0.0,0.0,0.0,0.0,0.0,0.0,0.0,0.0,0.0,0.0,0.0,0.0,2.8446,2.7764,2.7489,0.0,0.0,0.0,0.0,0.0,0.0,0.0,0.0,3.4466,3.6008,3.7847,3.7443,3.7778,0.0,3.7191,3.4914,0.0,0.0,0.0,0.0,0.0,0.0,0.0,0.0,3.6891,3.9365,4.1905,4.4031,4.5755,4.6583,4.6755,4.6203,4.5673,4.3997,4.1021,3.7778,3.5225,0.0,0.0,0.0,0.0,0.0,0.0,0.0,0.0,0.0,0.0,0.0,0.0,0.0,0.0,0.0,0.0,0.0,0.0,0.0,0.0,0.0,0.0,0.0,2.4601,0.0,0.0,0.0,0.0,0.0,0.0,0.0,0.0,0.0,2.9445,3.1352,3.3761,3.6142,3.8392,4.0404,4.1924,0.0,0.0,0.0,0.0,0.0,0.0,0.0,4.2864,4.2808,4.203,4.1442,4.1479,4.1067,4.0898,4.1245,0.0,0.0,3.623,3.5374,3.5352,3.5857,3.6293,3.6637,3.687,3.8161,3.9375,0.0,0.0,0.0,0.0,0.0,0.0,0.0,0.0,3.4259,3.3845,0.0,3.2352,0.0,0.0,0.0,0.0,0.0,3.4318,0.0,0.0,3.9641,4.109,4.1274,4.262,4.3345,4.3276,4.1826,4.1067,4.071,3.5121,0.0,0.0,0.0,0.0,0.0,0.0,3.9479,4.1067,4.3906,4.5824,4.672,4.7376,4.772,4.7686,4.6238,4.4768,4.3323,4.1044,3.8755,3.6536,3.3578,0.0,0.0,0.0,0.0,0.0,0.0,0.0,0.0,0.0,0.0,0.0,0.0,0.0,0.0,0.0,0.0,0.0,0.0,0.0,0.0,2.6523,0.0,0.0,0.0,0.0,0.0,0.0,0.0,0.0,0.0,0.0,3.2998,3.5059,3.7259,3.8594,0.0,0.0,0.0,0.0,4.6297,4.7196,4.7361,4.7087,4.6321,4.6219,4.5945,4.5275,0.0,0.0,4.5522,4.5535,4.5707,4.6548,4.6467,4.5121,4.072,3.9754,3.9914,4.1138,4.13,4.1445,4.2125,4.3359,4.4541,4.1974,0.0,0.0,0.0,0.0,3.787,3.8077,3.8146,3.8709,3.8502,3.7732,3.7536,0.0,0.0,0.0,0.0,0.0,0.0,4.0526,4.279,4.3686,4.4962,4.6514,4.6458,4.6665,4.7134,4.6203,4.5755,4.563,4.2893,3.9859,3.6708,0.0,0.0,0.0,0.0,4.2031,4.3494,4.542,4.7257,4.901,4.8651,4.8535,4.8695,4.7207,4.6235,4.5922,4.3711,4.1673,3.99,3.6839,0.0,0.0,0.0,0.0,0.0,0.0,0.0,0.0,0.0,0.0,0.0,0.0,0.0,0.0,0.0,0.0,0.0,0.0,0.0,2.8834,2.9937,3.0498,0.0,0.0,0.0,0.0,0.0,0.0,0.0,0.0,0.0,3.992,4.0107,4.0758,0.0,0.0,4.5553,4.711,4.7529,4.7967,4.8748,4.8885,0.0,4.8709,4.8689,4.8649,4.8558,4.8615,4.8658,4.8686,4.8686,4.8755,4.8996,4.943,4.9421,4.8704,4.6549,4.5268,4.5507,4.5922,4.6323,4.6601,4.7822,4.9029,4.6962,4.363,4.1974,4.1492,4.1802,4.225,4.263,4.2906,4.3417,4.3397,4.2936,4.2698,4.2098,4.1244,4.1255,0.0,0.0,0.0,4.539,4.7442,4.8017,4.9166,5.0616,5.0581,5.069,5.0996,5.0306,4.9976,4.9927,4.848,4.6366,4.3627,0.0,0.0,4.1823,4.3715,4.5259,4.6422,4.7937,4.9479,5.1009,5.0613,5.0428,5.0493,4.9035,4.829,4.8336,4.6142,4.4239,4.2683,3.9934,3.7026,0.0,0.0,0.0,0.0,0.0,0.0,0.0,0.0,0.0,0.0,0.0,1.943,2.202,0.0,0.0,0.0,2.8282,3.0282,3.2706,3.3603,0.0,0.0,0.0,0.0,0.0,0.0,0.0,4.0422,4.2452,4.41,4.5153,4.5629,4.5706,4.5309,4.6856,4.8323,4.9262,0.0,5.0551,5.0982,5.1291,5.1527,5.1604,5.1619,5.1664,5.1774,5.1804,5.1804,5.1804,5.1789,5.1892,5.2203,5.2582,5.3134,5.3908,5.2391,5.0826,5.0202,5.0347,5.061,5.061,5.1601,5.2577,5.1124,5.0227,4.7348,4.6437,4.6886,4.7024,4.7486,4.8107,4.8342,4.8432,4.832,4.7809,4.7492,4.747,4.747,0.0,4.7596,4.9025,5.0091,5.1011,5.2355,5.3296,5.3909,5.4637,5.4906,5.4714,5.4008,5.3713,5.3644,5.2344,5.1691,5.1601,4.7453,4.531,4.5297,4.7378,4.8808,4.9491,5.0941,5.2042,5.2674,5.2793,5.2793,5.2704,5.1359,5.0607,5.06,4.8494,4.6646,4.516,4.2846,4.0232,3.7293,0.0,0.0,0.0,0.0,0.0,0.0,0.0,0.0,0.0,0.0,0.0,0.0,0.0,0.0,2.9825,3.2844,0.0,3.6594,3.7467,0.0,0.0,0.0,3.971,4.109,4.1435,4.263,4.5432,0.0,0.0,4.8982,5.1099,5.1354,4.8371,4.9835,5.1214,5.1249,5.2574,5.3598,5.3616,5.4203,5.4651,5.4497,5.4547,5.4582,5.4701,5.477,5.4754,5.4823,5.4858,5.5134,5.5651,5.5892,5.6168,5.6943,5.6927,5.6703,5.511,5.4518,5.4283,5.4265,5.495,5.555,5.488,5.4618,5.3296,5.1402,4.9471,5.0613,5.124,5.1599,5.2804,5.3008,5.2465,5.232,5.1966,5.1408,5.1422,5.1722,5.2265,5.2648,5.352,5.4844,5.5212,5.5738,5.6422,5.6631,5.6685,5.6618,5.6444,5.6375,5.634,5.5483,5.5107,5.5094,5.3553,5.1591,4.9418,5.0492,5.1143,5.1221,5.2115,5.2616,5.2709,5.3316,5.336,5.2869,5.2649,5.2579,5.2656,5.1051,4.9701,4.8633,4.5719,4.3173,4.1262,3.8241,0.0,0.0,0.0,0.0,0.0,0.0,0.0,0.0,0.0,2.6695,2.9153,0.0,3.1627,0.0,3.7502,3.9652,4.0572,4.1378,0.0,0.0,4.3113,4.3928,4.4307,4.5858,4.7445,4.8755,5.0065,5.1237,5.2168,5.3754,5.4532,5.3745,5.3623,5.3845,5.4397,5.4773,5.5306,5.5874,5.6184,5.6253,5.6322,5.6253,5.646,5.7012,5.7099,5.7288,5.7823,5.7926,5.7995,5.8202,5.8737,5.915,5.9323,5.9806,6.003,5.9581,5.8238,5.6965,5.6999,5.7997,5.8961,5.772,5.7685,5.7232,5.6067,5.4504,5.427,5.4374,5.4813,5.5761,5.5946,5.5562,5.5604,5.5389,5.5054,5.5054,5.5459,5.6158,5.6158,5.6998,5.8466,5.845,5.8838,5.9455,5.949,5.9406,5.934,5.9375,5.934,5.9306,5.8655,5.8212,5.7907,5.725,5.5914,5.3967,5.399,5.4025,5.3952,5.4708,5.5049,5.4989,5.5134,5.5068,5.4685,5.4176,5.395,5.3985,5.2868,5.1688,5.0544,4.8418,4.6349,4.4495,4.1756,3.9445,0.0,0.0,0.0,0.0,0.0,0.0,0.0,0.0,0.0,0.0,0.0,3.6594,3.9606,4.1698,4.3354,4.4423,4.5216,4.5851,4.6196,4.7238,4.8051,4.8396,4.9858,5.1272,5.2375,5.3203,5.3996,5.4839,5.6202,5.7099,5.7133,5.7357,5.7288,5.6754,5.6892,5.7391,5.8185,5.8599,5.8806,5.8806,5.8806,5.8944,5.9323,5.9426,5.9564,5.9926,6.0013,6.0047,6.003,6.0392,6.0668,6.0703,6.0978,6.1289,6.1185,6.0599,5.9875,5.9495,6.0082,6.0703,6.003,6.003,6.003,6.0128,6.0118,5.7996,5.7342,5.7818,5.8085,5.8218,5.8234,5.8359,5.8386,5.8386,5.8386,5.8773,5.944,5.9424,6.0126,6.1406,6.1441,6.171,6.2206,6.2225,6.2122,6.1969,6.1969,6.1969,6.1934,6.1423,6.0825,6.0142,5.9676,5.9089,5.8386,5.7684,5.7158,5.6771,5.7454,5.782,5.782,5.7319,5.7055,5.7035,5.5908,5.5199,5.5093,5.4349,5.3273,5.1869,5.0899,4.9518,4.7534,4.5116,4.3398,0.0,4.0341,0.0,0.0,0.0,0.0,0.0,0.0,0.0,0.0,3.9491,4.1987,4.4643,4.5721,4.681,4.8169,4.9016,4.9789,5.0493,5.1237,5.1927,5.2582,5.3425,5.4529,5.5906,5.6182,5.6527,5.7405,5.8597,5.9357,5.9443,6.029,6.0411,5.9046,5.9012,5.9547,6.0306,6.0945,6.1067,6.1119,6.1239,6.1274,6.1377,6.1377,6.1497,6.1565,6.1599,6.1599,6.1599,6.1634,6.1634,6.1599,6.1703,6.1806,6.191,6.2393,6.2496,6.1634,6.1668,6.1737,6.2361,6.2361,6.2361,6.2393,6.2374,6.1934,6.1248,6.0588,6.1216,6.1478,6.1513,6.1511,6.1527,6.1527,6.1527,6.1598,6.1773,6.1757,6.1914,6.2195,6.2195,6.2232,6.2356,6.2356,6.2339,6.2306,6.2306,6.2306,6.2306,6.2199,6.204,6.1899,6.1792,6.1703,6.1527,0.0,0.0,0.0,5.7842,5.7973,5.7988,5.8012,5.8045,5.8045,5.7909,0.0,5.6844,5.612,5.5281,5.4322,5.2879,0.0,0.0,0.0,0.0,0.0,0.0,0.0,0.0,0.0,0.0,0.0,4.51,4.4624,4.3024,4.5423,4.7341,4.7927,4.9755,5.103,5.1341,5.2617,5.3479,5.3651,5.4306,5.4823,5.4996,5.6184,5.7476,5.8472,5.9146,5.9872,6.0651,6.1206,6.1328,6.1293,6.1588,6.1866,6.1988,6.1415,6.1155,6.1346,6.1675,6.1814,6.1797,6.1849,6.2023,6.2282,6.2436,6.2607,6.2999,6.3135,6.3151,6.3117,6.3151,6.3117,6.3151,6.3634,6.3979,6.4048,6.4653,6.4653,6.2756,6.322,6.4048,6.4388,0.0,6.4388,6.4324,0.0,6.4244,6.3902,6.3233,6.2845,6.2704,6.2704,6.2704,6.2704,6.2668,6.2704,6.2915,6.3216,6.3134,6.3312,6.3682,6.3581,6.3512,6.3547,6.3547,6.3547,6.3547,6.3547,6.3547,6.3547,6.3547,6.3337,6.3002,6.2986,6.2775,6.2405,6.2405,6.149,5.962,5.9327,5.9228,5.9269,5.9096,5.8973,5.8973,5.8714,0.0,0.0,0.0,0.0,0.0,0.0,0.0,0.0,0.0,0.0,5.0561,4.9084,4.8088,4.7924,4.8223,4.8894,4.9983,5.136,5.1094,4.8633,5.0235,5.1483,5.1864,5.327,5.4171,5.4206,5.5574,5.6459,5.6528,5.7499,5.8157,5.8261,5.9197,6.0063,6.0495,6.0929,6.1397,6.1813,6.2231,6.2405,6.2492,6.2788,6.3154,6.3414,6.2857,6.2422,6.2804,6.2944,6.3049,6.3032,6.3049,6.3084,6.3378,6.3412,6.3514,6.3714,6.3728,6.3814,6.4085,6.4152,6.422,6.4669,6.5067,6.5309,6.529,6.5619,6.5619,6.4412,6.4791,6.5309,6.5931,6.5899,6.5931,6.5836,6.564,6.564,6.5559,6.5374,0.0,0.0,0.0,6.3403,6.3403,6.3403,6.3403,6.3741,6.4291,6.4143,6.443,6.5065,6.486,6.481,6.474,6.474,6.4723,6.4689,6.4689,6.4689,6.4689,6.4689,6.439,6.3828,6.3793,6.3442,6.2862,6.2686,6.2383,6.1963,6.1254,6.0909,6.103,6.0595,6.0365,6.0365,5.9828,5.9402,5.9152,5.9116,5.8688,5.786,5.7788,5.7489,5.6811,5.5396,5.4477,5.418,5.2797,5.2153,5.2593,5.272,5.3449,5.4854,5.6272,5.604,5.3525,5.4167,5.4948,5.556,5.6466,5.7023,5.7023,5.8277,5.9097,5.9148,6.0246,6.096,6.0995,6.1657,6.2022,6.2144,6.2265,6.2335,6.2491,6.2979,6.3311,6.338,6.3816,6.4269,6.4217,6.3677,6.3485,6.4008,6.4113,6.4235,6.4252,6.42,6.4269,6.4147,6.4199,6.4162,6.4036,6.4067,6.4325,6.4699,6.4885,6.5284,6.5836,6.6097,6.6163,6.6159,6.6263,6.6347,6.6275,6.6275,6.6275,6.6345,6.6223,6.6345,6.6315,6.6177,6.6177,6.6161,6.6099,6.5313,6.4997,6.498,6.498,6.498,6.4997,6.498,6.5051,6.5122,6.5105,6.516,6.5266,6.5232,6.5132,6.4945,6.4945,6.4895,6.4706,6.4689,6.4689,6.4689,6.4689,6.4654,6.4548,6.4548,6.4478,6.4338,6.3723,6.3539,6.3711,6.2949,6.2655,6.2833,6.2877,6.2883,6.2883,6.277,6.2092,6.0843,6.0772,6.0094,5.8652,5.8545,5.846,5.8367,5.7582,5.6921,5.6602,5.5731,5.5164,5.5031,5.5578,5.6651,5.8215,5.9708,5.9211,5.6079,5.7023,5.7894,5.8068,5.9252,6.0141,6.0211,6.0873,6.1342,6.1395,6.1604,6.1761,6.1813,6.244,6.2945,6.31,6.3659,6.4078,6.4112,6.427,6.434,6.4427,6.4463,6.4602,6.455,6.4411,6.4323,6.4533,6.4655,6.4655,6.4603,6.4602,6.4533,6.4376,6.4393,6.4445,6.4285,6.4718,6.5152,6.5238,6.5775,6.6246,6.6508,6.6943,6.7178,6.7168,6.7511,6.7869,6.7698,6.7694,6.7536,6.7738,6.8077,6.8137,6.8114,6.7978,6.7903,6.7872,6.7842,6.7563,6.6809,6.5867,6.5832,6.5867,6.5832,6.5832,6.5768,6.5672,6.5611,6.5513,6.5431,6.5349,6.5266,6.5182,6.5166,6.5115,6.5013,6.5031,6.5031,6.5031,6.5048,6.5048,6.5048,6.5048,6.5048,6.5013,6.4695,6.4652,6.4847,6.3561,6.3018,6.3304,6.3382,6.3392,6.3392,6.3392,6.3107,6.2378,6.2342,6.2021,6.1272,6.1272,6.1221,6.1221,6.0434,5.9894,5.9648,5.8784,5.8406,5.8648,5.9334,6.0052,6.0774,6.1476,6.1286,5.972,6.0229,6.0613,6.0648,6.1297,6.1682,6.1682,6.2364,6.2819,6.2819,6.3169,6.3397,6.3432,6.3676,6.3956,6.4077,6.434,6.4602,6.4672,6.4689,6.4689,6.4689,6.4689,6.4724,6.4724,6.5023,6.5058,6.4777,6.4689,6.4689,6.4724,6.4689,6.4654,6.4585,6.4935,6.5111,6.5056,6.5596,6.6135,6.6514,6.6879,6.7227,6.754,6.7958,6.811,6.8142,6.8258,6.8478,6.8435,6.8435,6.8219,6.9155,6.9697,6.974,6.9675,6.95,6.9352,6.9292,6.9292,6.9277,6.8452,6.7162,6.6977,6.6916,6.6885,6.6885,6.6777,6.6585,6.6479,6.6371,6.6158,6.6043,6.598,6.5897,6.5897,6.5845,6.583,6.583,6.583,6.583,6.5795,6.5724,6.5547,6.537,6.5299,6.5299,6.5299,6.5382,6.5406,6.4173,6.3614,6.3912,6.3948,6.3964,6.3948,6.3964,6.3841,6.3663,6.3678,6.3591,6.3428,6.3392,6.3392,6.3341,6.2688,6.2182,6.2006,6.1302,6.1056,6.1527,6.2265,6.2686,6.2686,6.2827,6.2932,6.2932,6.2915,6.2862,6.2721,6.2793,6.2951,6.3004,6.3477,6.3863,6.3898,6.4355,6.4566,6.4689,6.4689,6.4689,6.4689,6.4689,6.4689,6.4689,6.4689,6.4794,6.4987,6.511,6.5215,6.5285,6.5759,6.5829,6.5461,6.5215,6.5285,6.5215,6.5285,6.5285,6.5215,6.5707,6.6005,6.6074,6.6598,6.7173,6.7587,6.7864,6.8197,6.8717,6.8822,6.8822,6.8749,6.8746,6.8762,6.8686,6.8667,6.8571,7.011,7.0064,7.0234,7.0101,6.9921,6.9697,6.9639,6.9639,6.9588,6.9501,6.9311,6.9059,6.8811,6.8677,6.8641,6.8527,6.8406,6.8411,6.8263,6.8066,6.8122,6.7958,6.7588,6.7607,6.7558,6.737,6.7334,6.7298,6.7298,6.7352,6.7034,6.6292,6.5653,6.5403,6.5351,6.5351,6.5382,6.5529,6.5335,6.5345,6.5574,6.559,6.5554,6.559,6.5554,6.5233,6.4539,6.4468,6.4162,6.3484,6.3448,6.3428,6.3397,6.3222,6.303,6.282,6.2608,6.2446,6.2387,6.3073,6.3494,6.3564,6.4074,6.4408,6.4408,6.4443,6.4179,6.3758,6.4109,6.4338,6.4478,6.4513,6.4548,6.4636,6.4689,6.4689,6.4794,6.4689,6.4689,6.4689,6.4864,6.4724,6.4864,6.4899,6.5075,6.5689,6.6216,6.6497,6.6514,6.6742,6.6883,6.6777,6.6777,6.6777,6.6654,6.6777,6.6567,6.6672,6.6813,6.69,6.7005,6.7496,6.8127,6.8246,6.8687,6.9108,6.9196,6.932,6.9281,6.929,6.9199,6.9072,6.8816,6.8882,6.8856,7.1397,7.1798,7.189,7.1812,7.1701,7.1631,7.1603,7.1603,7.1603,7.1603,7.1589,7.149,7.069,6.9352,6.93,6.9201,6.9008,6.8992,6.8852,6.8562,6.845,6.832,6.8189,6.8073,6.799,6.7923,6.8024,6.8073,6.809,6.8189,6.8096,6.7758,6.7319,6.7127,6.7111,6.7012,6.6996,6.7045,6.7045,6.7094,6.7053,6.6268,6.5804,6.5804,6.5804,6.5661,6.5375,6.5304,6.5161,6.484,6.4804,6.4804,6.4804,6.4666,6.4505,6.4307,6.4027,6.3826,6.3793,6.4074,6.425,6.4232,6.4513,6.4689,6.4689,6.4689,6.4548,6.4373,6.4513,6.4689,6.4724,6.4689,6.4864,6.5268,6.5408,6.5584,6.604,6.6058,6.6058,6.6058,6.6058,6.6075,6.6058,6.6058,6.6216,6.6532,6.6883,6.7058,6.704,6.7409,6.7672,6.7796,6.8076,6.7936,6.7304,6.6988,6.7023,6.7129,6.7427,6.7725,6.7831,6.8357,6.8884,6.8884,6.9183,6.9394,6.9376,6.9797,7.0024,7.0001,7.0421,7.0594,7.0498,7.0463,7.0368,7.2513,7.3068,7.3077,7.305,7.305,7.3009,7.2996,7.2996,7.2996,7.2996,7.2996,7.2996,7.2097,7.0688,7.0449,7.0259,7.0036,6.996,6.9798,6.9465,6.9321,6.9209,6.9112,6.8945,6.8879,6.8912,6.9082,6.9112,6.9092,6.899,6.8982,6.8966,6.8638,6.8466,6.8502,6.8337,6.8219,6.8186,6.817,6.8189,6.7926,6.7017,6.641,6.6446,6.641,6.641,6.6446,6.641,6.6446,6.6446,6.641,6.6446,6.641,6.6248,6.6034,6.5834,6.5562,6.5373,6.5338,6.5321,6.5321,6.5321,6.5356,6.5321,6.5321,6.5321,6.5321,6.5356,6.5321,6.5321,6.5057,6.5215,6.5601,6.611,6.6216,6.6461,6.6865,6.6988,6.6953,6.6988,6.6848,6.6988,6.7023,6.7129,6.7321,6.7321,6.755,6.7655,6.769,6.8182,6.8533,6.8568,6.9024,6.8867,6.7901,6.7796,6.7655,6.776,6.8252,6.8533,6.8533,6.9113,6.9394,6.9183,6.9359,6.9429,6.9464,6.9937,7.071,7.0885,7.1288,7.1709,7.1425,7.1639,7.1581,7.3372,7.3346,7.3252,7.3185,7.3185,7.3064,7.3009,7.3023,7.3009,7.3009,7.3009,7.3009,7.2945,7.2692,7.2353,7.2211,7.2035,7.1814,7.1551,7.1277,7.1266,7.1143,7.0888,7.0872,7.0819,7.0692,7.0688,7.0777,7.076,7.0113,6.9721,6.9753,6.9194,6.8766,6.8854,6.8822,6.8634,6.8597,6.8581,6.8392,6.8208,6.8085,6.8049,6.8013,6.7961,6.7873,6.7909,6.7945,6.7945,6.7945,6.7873,6.7909,6.7928,6.7795,6.7526,6.7217,6.713,6.7024,6.6866,6.6813,6.6795,6.6848,6.6725,6.6848,6.6654,6.6672,6.6672,6.6848,6.6777,6.6584,6.611,6.6374,6.676,6.69,6.6953,6.7023,6.7058,6.7269,6.7023,6.7129,6.7252,6.7305,6.7164,6.7672,6.8113,6.8323,6.878,6.9185,6.9098,6.9255,6.929,6.9272,6.9342,6.9359,6.9253,6.8937,6.9008,6.9008,6.8884,6.9218,6.9324,6.9394,6.9394,6.9394,6.9394,6.9464,6.9534,7.0043,7.092,7.1412,7.1798,7.2025,7.229,7.1884,7.1935,7.3385,7.3385,7.3333,7.3344,7.3331,7.3292,7.3278,7.3228,7.3278,7.3278,7.3265,7.3241,7.3278,7.3215,7.3027,7.2737,7.2423,7.2351,7.2159,7.1836,7.1734,7.1625,7.1515,7.1368,7.132,7.132,7.1452,7.1578,7.1599,7.1324,7.1215,7.1148,7.0853,7.0682,7.0651,7.0477,7.0334,7.0233,7.0136,7.0038,6.9917,6.9937,6.9953,6.9865,6.872,6.8088,6.8088,6.8088,6.8088,6.8088,6.8088,6.8088,6.8071,6.7974,6.7822,6.7686,6.7566,6.7463,6.7393,6.7393,6.7323,6.7218,6.72,6.7183,6.7041,6.6988,6.6988,6.7111,6.7675,6.7764,6.757,6.727,6.7216,6.769,6.7778,6.7989,6.8411,6.8551,6.8551,6.8569,6.8607,6.8644,6.8645,6.9034,6.9282,6.9317,6.9547,6.967,6.9705,6.9723,6.9669,6.956,6.9524,6.9487,6.9394,6.9359,6.9394,6.9394,6.9359,6.9359,6.9394,6.9394,6.9394,6.9394,6.9394,6.957,6.9745,7.0569,7.1412,7.2641,7.2957,7.2851,7.3202,7.2851,7.2957,7.3571,7.3757,7.3794,7.3943,7.4166,7.4166,7.4166,7.4166,7.4166,7.4166,7.4166,7.4166,7.4166,7.4153,7.4097,7.3683,7.3091,7.2814,7.251,7.2226,7.2099,7.1979,7.1903,7.1728,7.1666,7.1682,7.1821,7.1957,7.2063,7.2122,7.2152,7.2137,7.2024,7.1933,7.1888,7.1672,7.1515,7.1436,7.1324,7.1223,7.1175,7.1159,7.1159,7.0966,6.9839,6.9105,6.902,6.9006,6.8973,6.8956,6.8906,6.8873,6.8856,6.8772,6.8706,6.8638,6.8535,6.8396,6.8344,6.8327,6.831,6.8152,6.817,6.8082,6.7958,6.794,6.794,6.8116,6.8469,6.8947,6.8823,6.8346,6.8186,6.8644,6.8749,6.8961,6.9472,6.9542,6.9525,6.9508,6.9545,6.9653,6.9706,6.9813,6.9849,6.9885,6.9885,6.9885,6.9885,6.9885,6.9884,6.9724,6.9688,6.9687,6.9615,6.9615,6.9486,6.9449,6.9449,6.9431,6.9431,6.9431,6.9412,6.9412,6.9499,6.971,7.0237,7.1061,7.2254,7.3624,7.3799,7.3553,7.3764,7.3905,7.3764,7.3906,7.4574,7.4612,7.4983,7.554,7.5578,7.5726,7.5615,7.5652,7.554,7.5466,7.5652,7.554,7.5689,7.5514,7.5173,7.4357,7.3605,7.301,7.2695,7.2553,7.2409,7.2241,7.2122,7.2063,7.2063,7.2182,7.2241,7.227,7.2401,7.2496,7.2467,7.2329,7.2255,7.2204,7.2093,7.1964,7.1826,7.1801,7.1687,7.151,7.1494,7.1494,7.1479,7.1227,7.1047,7.0921,7.0759,7.057,7.059,7.0474,7.0478,7.03,7.0283,7.0286,7.0076,7.0095,7.0043,6.9867,6.9796,6.969,6.9637,6.9778,6.9655,6.953,6.9566,6.9601,6.9566,6.9725,6.9814,6.9814,6.9708,6.969,6.9867,6.9672,6.9743,6.9831,6.9867,6.9867,6.9849,6.9902,6.992,6.992,6.9938,6.9973,7.0009,6.9956,6.9956,6.9973,6.9973,6.992,6.992,6.992,6.9884,6.9902,6.9849,6.9669,6.9541,6.9522,6.9504,6.9541,6.9559,6.9542,6.9524,6.9451,6.9697,7.0574,7.1398,7.2149,7.3273,7.3553,7.3975,7.401,7.401,7.401,7.4686,7.5392,7.5416,7.5564,7.5801,7.5801,7.5801,7.5801,7.5801,7.5801,7.5801,7.5801,7.5801,7.5838,7.5801,7.5662,7.5349,7.5011,7.4195,7.3139,7.2909,7.2867,7.2774,7.2695,7.2718,7.2681,7.2723,7.2751,7.2751,7.2793,7.2858,7.2844,7.2765,7.2751,7.2723,7.2559,7.2401,7.2277,7.2159,7.2003,7.1866,7.1851,7.1851,7.1836,7.179,7.1744,7.1682,7.1191,7.0966,7.0949,7.0802,7.0633,7.0548,7.0514,7.048,7.041,7.0393,7.0375,7.0324,7.0289,7.0237,7.0149,7.0114,7.0044,6.9938,6.9902,6.9902,6.9902,7.0026,7.0114,7.0132,7.0237,7.0184,6.992,6.9885,6.9902,6.992,6.9902,6.9885,6.9902,7.0026,7.0097,7.0132,7.0202,7.0272,7.0272,7.0272,7.0272,7.0289,7.0254,7.0237,7.0149,7.0132,7.0079,7.0044,7.0026,6.992,6.9777,6.9705,6.9633,6.9651,6.9669,6.9687,6.9669,6.9597,6.9983,7.0843,7.1544,7.221,7.2925,7.3452,7.3749,7.394,7.401,7.401,7.554,7.6246,7.6284,7.6469,7.6729,7.6729,7.6729,7.6729,7.6729,7.6729,7.6767,7.6729,7.6716,7.6729,7.6729,7.6544,7.6321,7.627,7.5483,7.4195,7.3979,7.3965,7.3914,7.3564,7.3254,7.3046,7.305,7.3064,7.3077,7.3131,7.3158,7.3145,7.3105,7.3064,7.305,7.289,7.2765,7.2667,7.2567,7.2445,7.2372,7.2394,7.2343,7.238,7.2299,7.2241,7.2152,7.1713,7.1368,7.1175,7.0982,7.08,7.0699,7.0632,7.0616,7.0599,7.0548,7.0497,7.0514,7.048,7.0463,7.0324,7.0306,7.0254,7.0149,7.0132,7.0132,7.0149,7.0237,7.0306,7.0324,7.0393,7.0358,7.0167,7.0132,7.0132,7.0132,7.0132,7.0132,7.0167,7.0237,7.0289,7.0341,7.0375,7.0514,7.0514,7.0514,7.0514,7.0514,7.0497,7.0375,7.0324,7.0306,7.0254,7.0167,7.0149,7.0149,7.0062,6.9973,6.9884,6.9796,6.9796,6.9796,6.9796,6.9777,7.0112,7.0905,7.1186,7.173,7.25,7.3373,7.362,7.3831,7.3959,7.401,7.6358,7.7138,7.7175,7.7547,7.8141,7.8179,7.8104,7.8216,7.8179,7.8141,7.8179,7.8067,7.8141,7.8216,7.803,7.7696,7.725,7.7138,7.6753,7.6067,7.58,7.5657,7.5273,7.4635,7.4039,7.3521,7.3492,7.3471,7.3633,7.3689,7.3534,7.3705,7.3636,7.3397,7.3569,7.3262,7.3356,7.3351,7.3278,7.3264,7.3236,7.3213,7.3125,7.3075,7.2927,7.2763,7.251,7.2285,7.1951,7.1542,7.1223,7.1097,7.1015,7.0902,7.0836,7.0802,7.0633,7.0565,7.0548,7.0548,7.0531,7.048,7.048,7.0514,7.0427,7.0393,7.0393,7.041,7.048,7.0497,7.0497,7.0514,7.0497,7.0497,7.0445,7.0445,7.0497,7.048,7.0445,7.0463,7.0497,7.0497,7.048,7.0497,7.0514,7.0514,7.0514,7.0514,7.0514,7.0514,7.0514,7.048,7.0427,7.0393,7.0306,7.0306,7.0289,7.0272,7.0202,7.0132,7.0026,7.0009,7.0044,7.0026,6.9991,7.0398,7.0681,7.098,7.1616,7.2585,7.3183,7.3514,7.3845,7.4065,7.4128,7.725,7.7956,7.7993,7.8104,7.829,7.829,7.829,7.829,7.829,7.829,7.829,7.829,7.829,7.829,7.829,7.8179,7.7993,7.7956,7.7919,7.7682,7.7617,7.6824,7.5956,7.5521,7.5234,7.5011,7.4913,7.5116,7.5102,7.5031,7.5057,7.5169,7.5017,7.5028,7.5089,7.4988,7.4994,7.4936,7.4885,7.4793,7.4723,7.4709,7.4473,7.3919,7.3818,7.3481,7.2932,7.2695,7.2299,7.178,7.164,7.1452,7.1276,7.1215,7.1097,7.0982,7.0916,7.0817,7.0752,7.0718,7.065,7.0531,7.0531,7.0514,7.0514,7.0514,7.0514,7.0514,7.0514,7.0514,7.0514,7.0514,7.0514,7.0514,7.0514,7.0514,7.0514,7.0514,7.0514,7.0514,7.0514,7.0514,7.0514,7.0514,7.0514,7.0514,7.0514,7.0514,7.0514,7.0514,7.0514,7.0514,7.0497,7.0497,7.0497,7.0497,7.048,7.0463,7.0393,7.0375,7.0324,7.0324,7.0341,7.0376,7.0184,7.0416,7.0558,7.0735,7.1692,7.2578,7.3017,7.3367,7.4074,7.4495,7.4345,7.7881,7.829,7.829,7.829,7.829,7.829,7.829,7.829,7.829,7.829,7.829,7.829,7.829,7.829,7.829,7.829,7.829,7.829,7.829,7.829,7.8253,7.7533,7.6604,7.6358,7.6172,7.5801,7.5838,7.5801,7.575,7.5801,7.5801,7.5763,7.5801,7.5801,7.5713,7.5801,7.576,7.5679,7.5665,7.5661,7.5593,7.5579,7.537,7.4926,7.4838,7.4454,7.3669,7.3088,7.2596,7.2189,7.2009,7.1872,7.1604,7.1531,7.1452,7.134,7.1227,7.1081,7.1018,7.0952,7.0819,7.0667,7.0633,7.0582,7.0531,7.0514,7.0514,7.0514,7.0514,7.0514,7.0514,7.0514,7.0514,7.0514,7.0514,7.0514,7.0514,7.0514,7.0514,7.0514,7.0514,7.0514,7.0514,7.0514,7.0514,7.0514,7.0514,7.0514,7.0514,7.0514,7.0514,7.0514,7.0514,7.0514,7.0514,7.0514,7.0514,7.0514,7.0514,7.0514,7.0514,7.0514,7.0497,7.0463,7.0358,7.036,7.0486,7.0771,7.1446,7.2192,7.2705,7.3466,7.421,7.4723,7.4574,7.829,7.829,7.829,7.829,7.829,7.829,7.829,7.829,7.829,7.829,7.829,7.829,7.829,7.829,7.829,7.829,7.829,7.829,7.829,7.829,7.8253,7.7844,7.7324,7.7213,7.6878,7.6395,7.6098,7.6209,7.6358,7.6246,7.6135,7.6321,7.6246,7.6135,7.6358,7.6246,7.6098,7.6233,7.6331,7.6317,7.6304,7.6304,7.6179,7.5932,7.5635,7.5284,7.4559,7.3844,7.3245,7.2729,7.246,7.2226,7.2063,7.1933,7.1826,7.1749,7.1546,7.1388,7.1308,7.1195,7.1015,7.0902,7.0836,7.0735,7.0616,7.0565,7.0548,7.0514,7.0514,7.0514,7.0514,7.0514,7.0514,7.0514,7.0514,7.0514,7.0514,7.0514,7.0514,7.0514,7.0514,7.0514,7.0514,7.0514,7.0514,7.0514,7.0514,7.0514,7.0514,7.0514,7.0514,7.0514,7.0514,7.0514,7.0514,7.0514,7.0514,7.0514,7.0514,7.0514,7.0514,7.0514,7.0514,7.048,7.0445,7.0428,7.0481,7.0873,7.1354,7.2068,7.2762,7.3615,7.4469,7.4715,7.4782,7.829,7.829,7.829,7.829,7.829,7.829,7.829,7.829,7.829,7.829,7.829,7.829,7.829,7.829,7.829,7.829,7.829,7.829,7.829,7.829,7.829,7.8253,7.803,7.7993,7.7919,7.7658,7.7733,7.7733,7.7696,7.7584,7.7733,7.7658,7.751,7.7733,7.7658,7.7547,7.777,7.777,7.7696,7.7621,7.7584,7.7584,7.7361,7.6841,7.6209,7.5737,7.5575,7.5311,7.4795,7.4039,7.3319,7.2865,7.2489,7.2351,7.2233,7.2018,7.1912,7.1811,7.1672,7.1494,7.132,7.1195,7.1048,7.0883,7.0752,7.0718,7.065,7.0548,7.0514,7.0514,7.0514,7.0514,7.0514,7.0514,7.0514,7.0514,7.0514,7.0514,7.0514,7.0514,7.0514,7.0514,7.0514,7.0514,7.0514,7.0514,7.0514,7.0514,7.0514,7.0514,7.0514,7.0514,7.0514,7.0514,7.0514,7.0514,7.0514,7.0514,7.0514,7.0514,7.0514,7.0514,7.0514,7.0514,7.0497,7.0514,7.0514,7.0728,7.1175,7.2014,7.287,7.3743,7.4491,7.4756,7.4968,7.829,7.829,7.829,7.829,7.829,7.829,7.829,7.829,7.829,7.829,7.829,7.829,7.829,7.829,7.829,7.829,7.829,7.829,7.829,7.829,7.829,7.829,7.829,7.829,7.829,7.829,7.829,7.829,7.829,7.829,7.8216,7.829,7.829,7.8216,7.829,7.829,7.8253,7.8253,7.829,7.829,7.829,7.829,7.8179,7.7584,7.6878,7.6395,7.6432,7.5986,7.5524,7.5048,7.4559,7.3766,7.2927,7.2746,7.2624,7.251,7.227,7.2233,7.2099,7.1903,7.1687,7.1546,7.1356,7.1195,7.0999,7.0902,7.0752,7.065,7.0565,7.0514,7.0514,7.0514,7.0514,7.0514,7.0514,7.0514,7.0514,7.0514,7.0514,7.0514,7.0514,7.0514,7.0514,7.0514,7.0514,7.0514,7.0514,7.0514,7.0514,7.0514,7.0514,7.0514,7.0514,7.0514,7.0514,7.0514,7.0514,7.0514,7.0514,7.0514,7.0514,7.0514,7.0514,7.0514,7.0514,7.0514,7.055,7.08,7.1264,7.2245,7.3173,7.3958,7.4564,7.4955,7.5115,7.829,7.829,7.829,7.829,7.829,7.829,7.829,7.829,7.829,7.829,7.829,7.829,7.829,7.829,7.829,7.829,7.829,7.829,7.829,7.829,7.829,7.829,7.829,7.829,7.829,7.829,7.829,7.829,7.829,7.829,7.829,7.829,7.829,7.829,7.829,7.829,7.829,7.829,7.829,7.829,7.829,7.829,7.8253,7.8067,7.7658,7.7287,7.7175,7.6729,7.6196,7.6024,7.5986,7.5072,7.3959,7.3406,7.3365,7.3411,7.327,7.3096,7.2877,7.2578,7.2282,7.1976,7.1749,7.1531,7.1324,7.1117,7.0936,7.0752,7.0633,7.0514,7.0514,7.0514,7.0514,7.0514,7.0514,7.0514,7.0514,7.0514,7.0514,7.0514,7.0514,7.0514,7.0514,7.0514,7.0514,7.0514,7.0514,7.0514,7.0531,7.0548,7.0565,7.0565,7.0565,7.0531,7.0531,7.0514,7.0514,7.0514,7.0514,7.0585,7.055,7.0514,7.0514,7.0514,7.0514,7.055,7.0728,7.1085,7.1727,7.2655,7.3405,7.4136,7.4671,7.5099,7.5135,7.829,7.829,7.829,7.829,7.829,7.829,7.829,7.829,7.829,7.829,7.829,7.829,7.829,7.829,7.829,7.829,7.829,7.829,7.829,7.829,7.829,7.829,7.829,7.829,7.829,7.829,7.829,7.829,7.829,7.829,7.829,7.829,7.829,7.829,7.829,7.829,7.829,7.829,7.829,7.829,7.829,7.829,7.829,7.829,7.8067,7.803,7.803,7.7919,7.7584,7.699,7.6878,7.6294,7.5581,7.5226,7.5093,7.4811,7.469,7.4375,7.3941,7.3629,7.3141,7.2578,7.2167,7.1882,7.1589,7.1352,7.113,7.0836,7.0633,7.0514,7.0514,7.0514,7.0514,7.0514,7.0531,7.0531,7.0548,7.0548,7.053,7.0564,7.053,7.0548,7.0564,7.0598,7.0615,7.0615,7.0615,7.0598,7.0598,7.0632,7.0684,7.0667,7.065,7.0599,7.0513,7.0514,7.0514,7.055,7.0585,7.0728,7.0693,7.055,7.0514,7.0907,7.0835,7.0693,7.0942,7.1406,7.212,7.2976,7.3637,7.4279,7.4564,7.485,7.4903,7.829,7.829,7.829,7.829,7.829,7.829,7.829,7.829,7.829,7.829,7.829,7.829,7.829,7.829,7.829,7.829,7.829,7.829,7.829,7.829,7.829,7.829,7.829,7.829,7.829,7.829,7.829,7.829,7.829,7.829,7.829,7.829,7.829,7.829,7.829,7.829,7.829,7.829,7.829,7.829,7.829,7.829,7.829,7.829,7.829,7.829,7.829,7.829,7.8104,7.777,7.7733,7.7473,7.7185,7.6884,7.6542,7.5843,7.5588,7.5398,7.4853,7.4445,7.3802,7.34,7.2796,7.2307,7.1973,7.1697,7.1324,7.0936,7.0735,7.0599,7.0514,7.0531,7.0548,7.0633,7.065,7.0665,7.0733,7.075,7.0766,7.075,7.0752,7.075,7.08,7.08,7.0783,7.0766,7.075,7.0733,7.0716,7.0783,7.0869,7.0852,7.0819,7.0701,7.0669,7.0725,7.071,7.0728,7.0942,7.1085,7.1228,7.1264,7.1549,7.1906,7.162,7.1264,7.1585,7.2156,7.2762,7.3333,7.4029,7.4564,7.4493,7.4528,7.4475,7.829,7.829,7.829,7.829,7.829,7.829,7.829,7.829,7.829,7.829,7.829,7.829,7.829,7.829,7.829,7.829,7.829,7.829,7.829,7.829,7.829,7.829,7.829,7.829,7.829,7.829,7.829,7.829,7.829,7.829,7.829,7.829,7.829,7.829,7.829,7.829,7.829,7.829,7.829,7.829,7.829,7.829,7.829,7.829,7.829,7.829,7.829,7.829,7.829,7.8216,7.8253,7.8253,7.829,7.829,7.7658,7.6554,7.6235,7.6106,7.5731,7.5357,7.483,7.4118,7.3326,7.289,7.2321,7.1851,7.1372,7.1035,7.0852,7.0802,7.0665,7.0615,7.0701,7.0785,7.0852,7.0902,7.0999,7.1065,7.1114,7.1081,7.1018,7.0966,7.0979,7.0897,7.0864,7.0864,7.0847,7.0864,7.0864,7.0999,7.1048,7.1015,7.0949,7.0852,7.0859,7.0972,7.1011,7.1049,7.1513,7.187,7.2084,7.2263,7.2494,7.2655,7.2691,7.2477,7.2727,7.2798,7.3155,7.3672,7.4457,7.4528,7.4011,7.3761,7.3654,7.829,7.829,7.829,7.829,7.829,7.829,7.829,7.829,7.829,7.829,7.829,7.829,7.829,7.829,7.829,7.829,7.829,7.829,7.829,7.829,7.829,7.829,7.829,7.829,7.829,7.829,7.829,7.829,7.829,7.829,7.829,7.829,7.829,7.829,7.829,7.829,7.829,7.829,7.829,7.829,7.829,7.829,7.829,7.829,7.829,7.829,7.829,7.829,7.829,7.829,7.829,7.829,7.829,7.829,7.8253,7.8067,7.7942,7.7668,7.7023,7.6573,7.58,7.4801,7.4044,7.3479,7.2672,7.2009,7.1526,7.1467,7.1195,7.0979,7.0946,7.093,7.0946,7.1015,7.1065,7.1146,7.126,7.1368,7.1452,7.1578,7.1531,7.1324,7.1207,7.1078,7.0979,7.0996,7.1012,7.1045,7.1061,7.1211,7.126,7.1227,7.1418,7.1342,7.1474,7.1553,7.1666,7.1617,7.2225,7.2796,7.2993,7.3171,7.3047,7.3208,7.3333,7.3369,7.3261,7.3333,7.3494,7.3637,7.3904,7.3583,7.3083,7.2941,7.2869,7.829,7.829,7.829,7.829,7.829,7.829,7.829,7.829,7.829,7.829,7.829,7.829,7.829,7.829,7.829,7.829,7.829,7.829,7.829,7.829,7.829,7.829,7.829,7.829,7.829,7.829,7.829,7.829,7.829,7.829,7.829,7.829,7.829,7.829,7.829,7.829,7.829,7.829,7.829,7.829,7.829,7.829,7.829,7.829,7.829,7.829,7.829,7.829,7.829,7.829,7.829,7.829,7.829,7.829,7.829,7.829,7.829,7.8104,7.7807,7.7361,7.6392,7.5433,7.4616,7.3753,7.2759,7.2189,7.1842,7.1672,7.1546,7.1436,7.1304,7.1288,7.1372,7.142,7.1452,7.1526,7.162,7.1666,7.1775,7.1948,7.2039,7.1836,7.1682,7.1635,7.1573,7.1479,7.1494,7.1494,7.1447,7.1399,7.1415,7.1384,7.1689,7.1955,7.2177,7.2382,7.2674,7.2857,7.3414,7.3881,7.3989,7.4044,7.4062,7.408,7.4259,7.4187,7.3812,7.3636,7.3583,7.3351,7.3083,7.2727,7.237,7.2191,7.2049,7.829,7.829,7.829,7.829,7.829,7.829,7.829,7.829,7.829,7.829,7.829,7.829,7.829,7.829,7.829,7.829,7.829,7.829,7.829,7.829,7.829,7.829,7.829,7.829,7.829,7.829,7.829,7.829,7.829,7.829,7.829,7.829,7.829,7.829,7.829,7.829,7.829,7.829,7.829,7.829,7.829,7.829,7.829,7.829,7.829,7.829,7.829,7.7993,7.7956,7.7956,7.7919,7.7881,7.7919,7.8141,7.829,7.829,7.829,7.8141,7.777,7.7324,7.6655,7.5784,7.4725,7.3591,7.2893,7.2504,7.2292,7.2009,7.1918,7.179,7.1713,7.1697,7.179,7.1903,7.1964,7.2069,7.2122,7.2137,7.2211,7.2409,7.2496,7.2481,7.2329,7.2307,7.2167,7.2018,7.1957,7.1927,7.1857,7.1703,7.1905,7.1962,7.2314,7.2694,7.3103,7.3346,7.3608,7.4026,7.4549,7.491,7.5018,7.5181,7.5253,7.5289,7.5056,7.4214,7.3407,7.3525,7.3529,7.2958,7.2422,7.203,7.1727,7.1566,7.1388,7.829,7.829,7.829,7.829,7.829,7.829,7.829,7.829,7.829,7.829,7.829,7.829,7.829,7.829,7.829,7.829,7.829,7.829,7.829,7.829,7.829,7.829,7.829,7.829,7.829,7.829,7.829,7.829,7.8253,7.8141,7.8216,7.829,7.8253,7.829,7.829,7.829,7.829,7.829,7.829,7.829,7.829,7.829,7.829,7.829,7.829,7.829,7.8253,7.7547,7.7175,7.7175,7.7175,7.7175,7.725,7.7621,7.7844,7.7881,7.7881,7.7621,7.7213,7.7138,7.6655,7.5612,7.4428,7.3354,7.2978,7.2779,7.261,7.2438,7.2336,7.2226,7.2182,7.2197,7.2255,7.2336,7.2394,7.2452,7.2539,7.2559,7.2681,7.2849,7.2876,7.2821,7.2807,7.2723,7.2496,7.2285,7.2078,7.2069,7.2112,7.2079,7.248,7.2735,7.3078,7.351,7.407,7.4446,7.4928,7.5152,7.5498,7.5807,7.6024,7.6169,7.5827,7.5375,7.4836,7.3905,7.3119,7.3041,7.28,7.2254,7.1775,7.1543,7.1311,7.1132,7.0955,7.829,7.829,7.829,7.829,7.829,7.829,7.829,7.829,7.829,7.829,7.829,7.829,7.829,7.829,7.829,7.829,7.829,7.829,7.829,7.829,7.829,7.829,7.829,7.829,7.829,7.8253,7.829,7.829,7.829,7.7807,7.7584,7.7658,7.7956,7.8253,7.829,7.8141,7.8179,7.8216,7.8253,7.829,7.829,7.829,7.829,7.829,7.7696,7.7584,7.7398,7.6729,7.6432,7.6284,7.6284,7.6321,7.6358,7.6729,7.6878,7.6915,7.6952,7.6692,7.6544,7.6618,7.6507,7.5142,7.3959,7.3185,7.3118,7.2959,7.2913,7.2779,7.2723,7.2653,7.2681,7.2695,7.2723,7.2802,7.2793,7.2821,7.2863,7.2904,7.2945,7.3054,7.3105,7.3091,7.3091,7.3091,7.2807,7.2553,7.2351,7.221,7.2393,7.2649,7.3087,7.3687,7.4105,7.457,7.5134,7.5676,7.6215,7.6308,7.6421,7.6474,7.6506,7.5936,7.5592,7.514,7.4579,7.3711,7.2998,7.2565,7.2138,7.1715,7.1455,7.1189,7.0941,7.0783,7.075,7.829,7.829,7.829,7.829,7.829,7.829,7.829,7.829,7.829,7.829,7.829,7.829,7.829,7.829,7.829,7.829,7.829,7.829,7.829,7.829,7.829,7.829,7.8216,7.803,7.7807,7.7881,7.7621,7.7473,7.7361,7.6952,7.6767,7.6878,7.7213,7.7398,7.7473,7.7584,7.7584,7.7547,7.7547,7.7547,7.751,7.7473,7.7473,7.7398,7.6915,7.6729,7.6469,7.5949,7.5503,7.5466,7.5453,7.5453,7.5527,7.5652,7.5763,7.5801,7.5763,7.5689,7.5689,7.5763,7.5689,7.4338,7.3752,7.3315,7.3239,7.3172,7.3131,7.305,7.3037,7.305,7.305,7.3023,7.3064,7.3091,7.3118,7.3108,7.3108,7.3135,7.3162,7.3252,7.3265,7.3265,7.3225,7.3212,7.2982,7.2723,7.2567,7.2658,7.3098,7.3414,7.3875,7.455,7.5277,7.573,7.6255,7.6616,7.6955,7.7007,7.705,7.6835,7.6673,7.6068,7.5357,7.4775,7.4174,7.341,7.2893,7.2434,7.1884,7.1332,7.1198,7.112,7.1002,7.088,7.0913,7.829,7.829,7.829,7.829,7.829,7.829,7.829,7.829,7.829,7.829,7.829,7.829,7.829,7.829,7.829,7.829,7.8253,7.8216,7.8179,7.8141,7.7881,7.8104,7.7844,7.7473,7.7101,7.6915,7.6655,7.6321,7.6084,7.5949,7.5875,7.5763,7.5875,7.6024,7.5875,7.5912,7.5912,7.5912,7.6061,7.6135,7.6172,7.6209,7.6246,7.6209,7.5986,7.5838,7.5689,7.5057,7.4649,7.4612,7.4612,7.4612,7.4649,7.5206,7.5429,7.5503,7.5578,7.528,7.476,7.4686,7.4277,7.3794,7.3408,7.3383,7.3359,7.3346,7.3318,7.3212,7.3199,7.3199,7.3199,7.3199,7.3278,7.3305,7.3331,7.3331,7.3318,7.3318,7.3294,7.3294,7.3346,7.3372,7.3357,7.3278,7.3077,7.2863,7.2751,7.3026,7.3564,7.4175,7.4573,7.536,7.6125,7.6604,7.6993,7.74,7.7659,7.7725,7.7481,7.7068,7.6611,7.603,7.5338,7.454,7.3873,7.3244,7.2746,7.2284,7.1973,7.1744,7.132,7.1159,7.1078,7.1094,7.1207,7.7807,7.829,7.829,7.829,7.829,7.829,7.829,7.829,7.829,7.829,7.829,7.829,7.829,7.829,7.8253,7.8253,7.8179,7.7621,7.751,7.7435,7.7064,7.6692,7.6544,7.6507,7.6233,7.6172,7.5875,7.5689,7.5875,7.528,7.502,7.4946,7.4686,7.4834,7.554,7.5801,7.5838,7.5838,7.5838,7.5838,7.5801,7.5763,7.5726,7.5689,7.5243,7.502,7.4983,7.424,7.3943,7.3906,7.3906,7.3906,7.3868,7.4351,7.4314,7.4277,7.424,7.4128,7.3831,7.3794,7.372,7.346,7.3385,7.3385,7.3385,7.3385,7.3346,7.3357,7.3331,7.3331,7.3344,7.3344,7.3346,7.3346,7.3359,7.3359,7.3359,7.3359,7.3359,7.3359,7.3385,7.3385,7.3396,7.337,7.3199,7.3091,7.2959,7.3333,7.3859,7.467,7.5269,7.6131,7.6847,7.7334,7.771,7.7708,7.7686,7.7657,7.7281,7.6788,7.6337,7.5795,7.5101,7.4201,7.3651,7.3125,7.2814,7.2567,7.2473,7.227,7.1897,7.1651,7.162,7.163,7.1692,7.7138,7.7844,7.7881,7.803,7.829,7.829,7.829,7.829,7.829,7.829,7.829,7.829,7.829,7.8216,7.803,7.7881,7.7807,7.7027,7.6655,7.6581,7.6135,7.5986,7.5875,7.549,7.5392,7.5318,7.5095,7.4909,7.4797,7.4426,7.4203,7.4054,7.3683,7.4054,7.4686,7.4834,7.4834,7.4797,7.476,7.4797,7.4797,7.4872,7.4909,7.476,7.4463,7.4166,7.4054,7.3757,7.3385,7.3385,7.3385,7.3385,7.3385,7.3385,7.3385,7.3385,7.3423,7.3423,7.346,7.346,7.346,7.3423,7.3385,7.3385,7.3385,7.3385,7.3385,7.3372,7.3385,7.3385,7.3385,7.3385,7.3385,7.3385,7.3385,7.3385,7.3385,7.3385,7.3385,7.3385,7.3385,7.3385,7.3385,7.341,7.3344,7.3278,7.3212,7.3663,7.4113,7.4839,7.5652,7.6457,7.7188,7.7601,7.7727,7.7593,7.7593,7.755,7.7003,7.6309,7.5736,7.5139,7.4491,7.3955,7.3508,7.3171,7.3042,7.2899,7.2779,7.2709,7.2539,7.2314,7.2197,7.2167,7.2167,7.6284,7.699,7.7064,7.7473,7.8104,7.8141,7.8216,7.829,7.829,7.829,7.829,7.8253,7.8104,7.803,7.7398,7.7064,7.6878,7.6135,7.5875,7.5689,7.5429,7.5466,7.5243,7.4872,7.4649,7.4314,7.4091,7.3943,7.3534,7.3645,7.3608,7.3497,7.346,7.3645,7.3757,7.3831,7.3831,7.3868,7.3906,7.3906,7.3943,7.372,7.3831,7.3794,7.3683,7.3608,7.3534,7.3423,7.3385,7.3385,7.3385,7.3385,7.3385,7.3385,7.3385,7.3385,7.3385,7.3385,7.3385,7.3385,7.3385,7.3385,7.3385,7.3385,7.3385,7.3385,7.3385,7.3385,7.3385,7.3385,7.3385,7.3385,7.3385,7.3385,7.3385,7.3385,7.3385,7.3385,7.3385,7.3385,7.3385,7.3385,7.3385,7.341,7.341,7.3383,7.3355,7.3551,7.4017,7.4731,7.5537,7.6421,7.7116,7.7752,7.7715,7.7177,7.7014,7.6862,7.6198,7.5568,7.5004,7.4582,7.4084,7.371,7.3424,7.3199,7.3145,7.3105,7.305,7.2982,7.2904,7.2765,7.2545,7.2524,7.2496,7.5429,7.6172,7.6172,7.6321,7.6618,7.7213,7.7733,7.8253,7.829,7.829,7.829,7.7696,7.7435,7.7361,7.6581,7.6233,7.5875,7.5429,7.5057,7.4797,7.4537,7.424,7.4054,7.3943,7.3794,7.372,7.3534,7.3385,7.3423,7.3385,7.3348,7.3423,7.3162,7.3237,7.3237,7.3385,7.3348,7.3348,7.3348,7.3385,7.3385,7.3385,7.3385,7.3385,7.3385,7.3385,7.3385,7.3385,7.3385,7.3385,7.3385,7.3385,7.3385,7.3385,7.3385,7.3385,7.3385,7.3385,7.3385,7.3385,7.3385,7.3385,7.3385,7.3385,7.3385,7.3385,7.3385,7.3385,7.3385,7.3385,7.3385,7.3385,7.3385,7.3385,7.3385,7.3385,7.3385,7.3385,7.3385,7.3385,7.3385,7.3385,7.3385,7.3385,7.3385,7.3385,7.3447,7.3569,7.3877,7.4593,7.5149,7.6047,7.6544,7.7027,7.6729,7.6243,7.6182,7.6047,7.5429,7.4909,7.4598,7.4177,7.3744,7.3508,7.3344,7.3331,7.3331,7.3278,7.3212,7.3278,7.3215,7.3068,7.2931,7.2863,7.2793,7.4612,7.528,7.5318,7.5503,7.5875,7.6358,7.6915,7.7324,7.7658,7.7807,7.7733,7.6952,7.6581,7.6469,7.5763,7.5318,7.5243,7.4537,7.4128,7.398,7.3645,7.3571,7.3423,7.3385,7.346,7.3385,7.3385,7.3385,7.3274,7.2939,7.2828,7.2332,7.2406,7.2444,7.2444,7.2605,7.2865,7.3014,7.3162,7.3348,7.3385,7.3385,7.3385,7.3385,7.3385,7.3385,7.3385,7.3385,7.3385,7.3385,7.3385,7.3385,7.3385,7.3385,7.3385,7.3385,7.3385,7.3385,7.3385,7.3385,7.3385,7.3385,7.3385,7.3385,7.3385,7.3385,7.3385,7.3385,7.3385,7.3385,7.3385,7.3385,7.3385,7.3385,7.3385,7.3385,7.3385,7.3385,7.3385,7.3385,7.3385,7.3385,7.3385,7.3385,7.3385,7.3385,7.3385,7.3447,7.3768,7.4288,7.472,7.5267,7.5689,7.6098,7.5689,7.5429,7.5355,7.5169,7.4612,7.4203,7.4054,7.3906,7.3571,7.346,7.341,7.3372,7.3396,7.3372,7.3346,7.346,7.3497,7.3379,7.3236,7.3162,7.3131,7.3831,7.45,7.45,7.4946,7.5652,7.5726,7.5801,7.5875,7.6581,7.6952,7.6804,7.6098,7.5713,7.5578,7.4872,7.4537,7.4351,7.3868,7.3608,7.3385,7.346,7.3385,7.3385,7.3385,7.3274,7.3274,7.32,7.2939,7.2865,7.2456,7.1738,7.0945,7.1094,7.1242,7.1428,7.2085,7.2419,7.2531,7.3014,7.3385,7.3385,7.3385,7.3385,7.3385,7.3385,7.3385,7.3385,7.3385,7.3385,7.3385,7.3385,7.3385,7.3385,7.3385,7.3385,7.3385,7.3385,7.3385,7.3385,7.3385,7.3385,7.3385,7.3385,7.3385,7.3385,7.3385,7.3385,7.3385,7.3385,7.3385,7.3385,7.3385,7.3385,7.3385,7.3385,7.3385,7.3385,7.3385,7.3385,7.3385,7.3385,7.3385,7.3385,7.3385,7.3385,7.3385,7.3385,7.3385,7.3571,7.4017,7.4277,7.4537,7.476,7.502,7.4983,7.4723,7.4537,7.424,7.3831,7.3683,7.372,7.3571,7.3423,7.3385,7.3385,7.3385,7.3385,7.3423,7.3534,7.3757,7.3757,7.3645,7.3619,7.3742,7.3442,7.3497,7.3683,7.3683,7.4166,7.4834,7.4872,7.5243,7.5726,7.5318,7.5578,7.5875,7.5318,7.4872,7.4773,7.4142,7.3783,7.3597,7.3474,7.3398,7.3263,7.3225,7.3065,7.3287,7.314,7.2965,7.2642,7.2419,7.2222,7.1701,7.1354,7.1143,7.0883,7.0772,7.0685,7.076,7.159,7.2086,7.211,7.2928,7.3361,7.3385,7.3385,7.3385,7.3385,7.3385,7.3385,7.3385,7.3385,7.3385,7.3385,7.3385,7.3385,7.3385,7.3385,7.3385,7.3385,7.3385,7.3385,7.3385,7.3385,7.3385,7.3385,7.3385,7.3385,7.3385,7.3385,7.3385,7.3385,7.3385,7.3385,7.3385,7.3385,7.3385,7.3385,7.3385,7.3385,7.3385,7.3385,7.3385,7.3385,7.3385,7.3385,7.3385,7.3385,7.3385,7.3385,7.3385,7.3385,7.3385,7.3645,7.372,7.3868,7.3757,7.3906,7.4054,7.4166,7.4017,7.3868,7.3608,7.346,7.3385,7.3385,7.3385,7.3385,7.3385,7.3534,7.3608,7.346,7.3645,7.4091,7.4351,7.4389,7.476,7.4957,7.4288,7.3385,7.3385,7.3385,7.3645,7.4017,7.4054,7.4378,7.469,7.4318,7.4432,7.4793,7.4343,7.4117,7.417,7.3662,7.3216,7.3093,7.3006,7.2621,7.2522,7.2571,7.2373,7.2472,7.2571,7.2199,7.1852,7.1777,7.1442,7.0648,7.0523,7.0498,7.0176,7.0065,7.0102,7.0251,7.1082,7.1802,7.1764,7.288,7.3376,7.3411,7.3385,7.3385,7.3385,7.3385,7.3385,7.3385,7.3385,7.3385,7.3385,7.3385,7.3385,7.3385,7.3385,7.3385,7.3385,7.3385,7.3385,7.3385,7.3385,7.3385,7.3385,7.3385,7.3385,7.3385,7.3385,7.3385,7.3385,7.3385,7.3385,7.3385,7.3385,7.3385,7.3385,7.3385,7.3385,7.3385,7.3385,7.3385,7.3385,7.3385,7.3385,7.3385,7.3385,7.3385,7.3385,7.3385,7.3385,7.3385,7.3385,7.3385,7.3385,7.3385,7.3385,7.3608,7.3683,7.3571,7.346,7.3385,7.3423,7.346,7.3423,7.3385,7.3608,7.3831,7.398,7.398,7.4017,7.4426,7.502,7.5169,7.5243,7.5652,7.6024,7.5416,7.3385,7.3385,7.3448,7.3448,7.3411,7.3474,7.3576,7.3665,7.364,7.374,7.3902,7.3688,7.3564,7.3602,7.3466,7.3019,7.2633,7.2397,7.1911,7.1624,7.1463,7.1663,7.1625,7.1437,7.1339,7.1115,7.0891,7.0517,6.9946,6.9859,6.9598,6.9022,6.891,6.8973,6.9481,7.0354,7.1377,7.1938,7.2758,7.3428,7.3513,7.3435,7.3385,7.3385,7.3385,7.3385,7.3385,7.3385,7.3385,7.3385,7.3385,7.3385,7.3385,7.3385,7.3385,7.3385,7.3385,7.3385,7.3385,7.3385,7.3385,7.3385,7.3385,7.3385,7.3385,7.3385,7.3385,7.3385,7.3385,7.3385,7.3385,7.3385,7.3385,7.3348,7.3348,7.3348,7.3348,7.3385,7.3385,7.3385,7.3385,7.3385,7.3385,7.3385,7.3385,7.3385,7.3385,7.3385,7.3385,7.3385,7.3385,7.3385,7.3385,7.3385,7.3385,7.3385,7.3385,7.3385,7.3423,7.346,7.3571,7.3757,7.3943,7.4128,7.4314,7.4662,7.4872,7.502,7.5466,7.5925,7.5986,7.6098,7.6544,7.6767,7.6507,7.3385,7.3398,7.3539,7.354,7.3552,7.369,7.3753,7.3765,7.3778,7.379,7.3827,7.379,7.3753,7.374,7.2981,7.2545,7.2356,7.1945,7.1585,7.1312,7.1023,7.1149,7.1149,7.0859,7.0801,7.0427,6.9927,6.9369,6.9427,6.9292,6.9145,6.9019,6.897,6.9306,7.0016,7.0913,7.1735,7.2321,7.2981,7.374,7.3665,7.3577,7.3398,7.3385,7.3385,7.3385,7.3385,7.3385,7.3385,7.3385,7.3398,7.3398,7.3385,7.3385,7.3385,7.3385,7.3385,7.3385,7.3385,7.3385,7.3385,7.3385,7.3385,7.3385,7.3385,7.3385,7.3385,7.3385,7.3385,7.3385,7.3385,7.3385,7.3385,7.3274,7.3237,7.3237,7.3237,7.3311,7.3385,7.3385,7.3385,7.3385,7.3385,7.3385,7.3385,7.3385,7.3385,7.3385,7.3385,7.3385,7.3398,7.3385,7.3398,7.3385,7.3385,7.3385,7.3385,7.3385,7.3584,7.3907,7.4168,7.4351,7.4537,7.4839,7.5185,7.558,7.579,7.6067,7.6375,7.6723,7.6831,7.699,7.7412,7.7588,7.7368]}]]